[[{"header":{"parameterUnit":"m.s-1","parameterCategory":1,"la1":30.6,"la2":29.2853,"lo1":-89.7004,"lo2":-87.6739,"dy":0.0162,"dx":0.0183,"nx":112,"ny":82,"refTime":"2025-01-08T06:00:00:Z","depth":0,"parameterNumber":2,"parameterNumberName":"U-component_of_WINDS"},"data":[0.0,0.0,0.0,0.0,0.0,0.0,0.0,0.0,0.0,0.0,0.0,0.0,0.0,0.0,0.0,0.0,0.0,0.0,0.0,0.0,0.0,0.0,0.0,0.0,0.0,0.0,0.0,0.0,0.0,0.0,0.0,0.0,0.0,0.0,0.0,0.0,0.0,0.0,0.0,0.0,0.0,0.0,0.0,0.0,0.0,0.0,0.0,0.0,0.0,0.0,0.0,0.0,0.0,0.0,0.0,0.0,0.0,0.0,0.0,0.0,0.0,0.0,0.0,0.0,0.0,0.0,0.0,0.0,0.0,0.0,0.0,0.0,0.0,0.0,0.0,0.0,0.0,0.0,0.0,0.0,0.0,0.0,0.0,0.0,0.0,0.0,0.0,0.0,0.0,0.0,0.0,4.3662,4.8531,5.1282,5.0756,4.9217,4.6453,4.2189,0.0,0.0,0.0,0.0,0.0,0.0,0.0,0.0,0.0,0.0,0.0,0.0,0.0,0.0,0.0,0.0,0.0,0.0,0.0,0.0,0.0,0.0,0.0,0.0,0.0,0.0,0.0,0.0,0.0,0.0,0.0,0.0,0.0,0.0,0.0,0.0,0.0,0.0,0.0,0.0,0.0,0.0,0.0,0.0,0.0,0.0,0.0,0.0,0.0,0.0,0.0,0.0,0.0,0.0,0.0,0.0,0.0,0.0,0.0,0.0,0.0,0.0,0.0,0.0,0.0,0.0,0.0,0.0,0.0,0.0,0.0,0.0,0.0,0.0,0.0,0.0,0.0,0.0,0.0,0.0,0.0,0.0,0.0,0.0,0.0,0.0,0.0,0.0,0.0,0.0,0.0,0.0,0.0,0.0,0.0,0.0,0.0,0.0,0.0,0.0,0.0,0.0,0.0,0.0,4.2156,4.879,5.1254,5.2412,5.2509,5.0486,4.7375,4.3073,0.0,0.0,0.0,0.0,0.0,0.0,0.0,0.0,0.0,0.0,0.0,0.0,0.0,0.0,0.0,0.0,0.0,0.0,0.0,0.0,0.0,0.0,0.0,0.0,0.0,0.0,0.0,0.0,0.0,0.0,0.0,0.0,0.0,0.0,0.0,0.0,0.0,0.0,0.0,0.0,0.0,0.0,0.0,0.0,0.0,0.0,0.0,0.0,0.0,0.0,0.0,0.0,0.0,0.0,0.0,0.0,0.0,0.0,0.0,0.0,0.0,0.0,0.0,0.0,0.0,0.0,0.0,0.0,0.0,0.0,0.0,0.0,0.0,0.0,0.0,0.0,0.0,0.0,0.0,0.0,0.0,0.0,0.0,0.0,0.0,0.0,0.0,0.0,0.0,0.0,0.0,0.0,0.0,0.0,0.0,0.0,0.0,0.0,0.0,0.0,0.0,0.0,0.0,4.0769,4.5053,5.0729,5.2466,5.3136,5.2915,5.0755,4.7586,4.3338,3.9007,0.0,0.0,0.0,0.0,0.0,0.0,0.0,0.0,0.0,0.0,0.0,0.0,0.0,0.0,0.0,0.0,0.0,0.0,0.0,0.0,0.0,0.0,0.0,0.0,0.0,0.0,0.0,0.0,0.0,0.0,0.0,0.0,0.0,0.0,0.0,0.0,0.0,0.0,0.0,0.0,0.0,0.0,0.0,0.0,0.0,0.0,0.0,0.0,0.0,0.0,0.0,0.0,0.0,0.0,0.0,0.0,0.0,0.0,0.0,0.0,0.0,0.0,0.0,0.0,0.0,0.0,0.0,0.0,0.0,0.0,0.0,0.0,0.0,0.0,0.0,0.0,0.0,0.0,0.0,0.0,0.0,0.0,0.0,0.0,0.0,0.0,0.0,0.0,0.0,0.0,0.0,0.0,0.0,0.0,0.0,0.0,0.0,0.0,0.0,0.0,0.0,0.0,4.3812,4.7255,5.1469,5.3281,5.3811,5.2977,5.0776,4.7586,4.3355,3.9069,0.0,0.0,0.0,0.0,0.0,0.0,0.0,0.0,0.0,0.0,0.0,0.0,0.0,0.0,0.0,0.0,0.0,0.0,0.0,0.0,0.0,0.0,0.0,0.0,0.0,0.0,0.0,0.0,0.0,0.0,0.0,0.0,0.0,0.0,0.0,0.0,0.0,0.0,0.0,0.0,0.0,0.0,0.0,0.0,0.0,0.0,0.0,0.0,0.0,0.0,0.0,0.0,0.0,0.0,0.0,0.0,0.0,0.0,0.0,0.0,0.0,0.0,0.0,0.0,0.0,0.0,0.0,0.0,0.0,0.0,0.0,0.0,0.0,0.0,0.0,0.0,0.0,0.0,0.0,0.0,0.0,0.0,0.0,0.0,0.0,0.0,0.0,0.0,0.0,0.0,0.0,0.0,0.0,0.0,0.0,0.0,0.0,0.0,0.0,0.0,0.0,0.0,4.4426,4.8016,5.1692,5.3926,5.4537,5.3123,5.0796,4.7586,4.3355,3.9084,0.0,0.0,0.0,0.0,0.0,0.0,0.0,0.0,0.0,0.0,0.0,0.0,0.0,0.0,0.0,0.0,0.0,0.0,0.0,0.0,0.0,0.0,0.0,0.0,0.0,0.0,0.0,0.0,0.0,0.0,0.0,0.0,0.0,0.0,0.0,0.0,0.0,0.0,0.0,0.0,0.0,0.0,0.0,0.0,0.0,0.0,0.0,0.0,0.0,0.0,0.0,0.0,0.0,0.0,0.0,0.0,0.0,0.0,0.0,0.0,0.0,0.0,0.0,0.0,0.0,0.0,0.0,0.0,0.0,0.0,0.0,0.0,0.0,0.0,0.0,0.0,0.0,0.0,0.0,0.0,0.0,0.0,0.0,0.0,0.0,0.0,0.0,0.0,0.0,0.0,0.0,0.0,0.0,0.0,0.0,0.0,0.0,0.0,0.0,0.0,0.0,0.0,4.4941,4.8652,0.0,5.3964,5.4575,5.3123,5.0297,4.7009,4.3316,0.0,0.0,0.0,0.0,0.0,0.0,0.0,0.0,0.0,0.0,0.0,0.0,0.0,0.0,0.0,0.0,0.0,0.0,0.0,0.0,0.0,0.0,0.0,0.0,0.0,0.0,0.0,0.0,0.0,0.0,0.0,0.0,0.0,0.0,0.0,0.0,0.0,0.0,0.0,0.0,0.0,0.0,0.0,0.0,0.0,0.0,0.0,0.0,0.0,0.0,0.0,0.0,0.0,0.0,0.0,0.0,0.0,0.0,0.0,0.0,0.0,0.0,0.0,0.0,0.0,0.0,0.0,0.0,0.0,0.0,0.0,0.0,0.0,0.0,0.0,0.0,0.0,0.0,0.0,0.0,0.0,0.0,0.0,0.0,0.0,0.0,0.0,0.0,0.0,0.0,0.0,0.0,0.0,0.0,0.0,0.0,0.0,0.0,0.0,0.0,0.0,0.0,4.0769,4.5233,4.9021,0.0,5.3992,5.4639,5.3123,4.9989,4.6663,4.3316,0.0,0.0,0.0,0.0,0.0,0.0,0.0,0.0,0.0,0.0,0.0,0.0,0.0,0.0,0.0,0.0,0.0,0.0,0.0,0.0,0.0,0.0,0.0,0.0,0.0,0.0,0.0,0.0,0.0,0.0,0.0,0.0,0.0,0.0,0.0,0.0,0.0,0.0,0.0,0.0,0.0,0.0,0.0,0.0,0.0,0.0,0.0,0.0,0.0,0.0,0.0,0.0,0.0,0.0,0.0,0.0,0.0,0.0,0.0,0.0,0.0,0.0,0.0,0.0,0.0,0.0,0.0,0.0,0.0,0.0,0.0,0.0,0.0,0.0,0.0,0.0,0.0,0.0,0.0,0.0,0.0,0.0,0.0,0.0,0.0,0.0,0.0,0.0,0.0,0.0,0.0,0.0,0.0,0.0,0.0,0.0,0.0,0.0,0.0,0.0,0.0,0.0,4.0843,4.5264,4.9046,5.1805,5.402,5.4689,5.3123,4.9989,4.6663,0.0,0.0,0.0,0.0,0.0,0.0,0.0,0.0,0.0,0.0,0.0,0.0,0.0,0.0,0.0,0.0,0.0,0.0,0.0,0.0,0.0,0.0,0.0,0.0,0.0,0.0,0.0,0.0,0.0,0.0,0.0,0.0,0.0,0.0,0.0,0.0,0.0,0.0,0.0,0.0,0.0,0.0,0.0,0.0,0.0,0.0,0.0,0.0,0.0,0.0,0.0,0.0,0.0,0.0,0.0,0.0,0.0,0.0,0.0,0.0,0.0,0.0,0.0,0.0,0.0,0.0,0.0,0.0,0.0,0.0,0.0,0.0,0.0,0.0,0.0,0.0,0.0,0.0,0.0,0.0,0.0,0.0,0.0,0.0,0.0,0.0,0.0,0.0,0.0,0.0,0.0,0.0,0.0,0.0,0.0,0.0,0.0,0.0,0.0,0.0,0.0,0.0,0.0,4.0917,4.5722,4.9658,5.1843,5.3992,5.46,5.3123,4.9989,4.6663,4.3316,0.0,0.0,0.0,0.0,0.0,0.0,0.0,0.0,0.0,0.0,0.0,0.0,0.0,0.0,0.0,0.0,0.0,0.0,0.0,0.0,0.0,0.0,0.0,0.0,0.0,0.0,0.0,0.0,0.0,0.0,0.0,0.0,0.0,0.0,0.0,0.0,0.0,0.0,0.0,0.0,0.0,0.0,0.0,0.0,0.0,0.0,0.0,0.0,0.0,0.0,0.0,0.0,0.0,0.0,0.0,0.0,0.0,0.0,0.0,0.0,0.0,0.0,0.0,0.0,0.0,0.0,0.0,0.0,0.0,0.0,0.0,0.0,0.0,0.0,0.0,0.0,0.0,0.0,0.0,0.0,0.0,0.0,0.0,0.0,0.0,0.0,0.0,0.0,0.0,0.0,0.0,0.0,0.0,0.0,0.0,0.0,0.0,0.0,0.0,0.0,0.0,0.0,4.0892,4.5876,4.9856,5.1789,5.3936,5.4575,5.31,5.0276,4.7048,4.3316,0.0,0.0,0.0,0.0,0.0,0.0,0.0,0.0,0.0,0.0,0.0,0.0,0.0,0.0,0.0,0.0,0.0,0.0,0.0,0.0,0.0,0.0,0.0,0.0,0.0,0.0,0.0,0.0,0.0,0.0,0.0,0.0,0.0,0.0,0.0,0.0,0.0,0.0,0.0,0.0,0.0,0.0,0.0,0.0,0.0,0.0,0.0,0.0,0.0,0.0,0.0,0.0,0.0,0.0,0.0,0.0,0.0,0.0,0.0,0.0,0.0,0.0,0.0,0.0,0.0,0.0,0.0,0.0,0.0,0.0,0.0,0.0,0.0,0.0,0.0,0.0,0.0,0.0,0.0,0.0,0.0,0.0,0.0,0.0,0.0,0.0,0.0,0.0,0.0,0.0,0.0,0.0,0.0,0.0,0.0,0.0,0.0,0.0,0.0,0.0,0.0,0.0,4.0793,4.5844,4.9828,5.17,5.3879,5.4587,5.303,5.0832,4.7702,4.347,0.0,0.0,0.0,0.0,0.0,0.0,0.0,0.0,0.0,0.0,0.0,0.0,0.0,0.0,0.0,0.0,0.0,0.0,0.0,0.0,0.0,0.0,0.0,0.0,0.0,0.0,0.0,0.0,0.0,0.0,0.0,0.0,0.0,0.0,0.0,0.0,0.0,0.0,0.0,0.0,0.0,0.0,0.0,0.0,0.0,0.0,0.0,0.0,0.0,0.0,0.0,0.0,0.0,0.0,0.0,0.0,0.0,0.0,0.0,0.0,3.3186,0.0,0.0,0.0,0.0,0.0,0.0,0.0,0.0,0.0,0.0,0.0,0.0,0.0,0.0,0.0,0.0,0.0,0.0,0.0,0.0,0.0,0.0,0.0,0.0,0.0,0.0,0.0,0.0,0.0,0.0,0.0,0.0,0.0,0.0,0.0,0.0,0.0,0.0,0.0,0.0,0.0,4.0793,4.5778,4.9762,5.17,5.3821,5.4535,5.303,5.1369,4.8586,4.4316,3.9892,0.0,0.0,0.0,0.0,0.0,0.0,0.0,0.0,0.0,0.0,0.0,0.0,0.0,0.0,0.0,0.0,0.0,0.0,0.0,0.0,0.0,0.0,0.0,0.0,0.0,0.0,0.0,0.0,0.0,0.0,0.0,0.0,0.0,0.0,0.0,0.0,0.0,0.0,0.0,0.0,0.0,0.0,0.0,0.0,0.0,0.0,0.0,0.0,0.0,0.0,0.0,0.0,0.0,0.0,0.0,0.0,0.0,0.0,0.0,0.0,3.5507,0.0,0.0,0.0,0.0,0.0,0.0,0.0,0.0,0.0,0.0,0.0,0.0,0.0,0.0,0.0,0.0,0.0,0.0,0.0,0.0,0.0,0.0,0.0,0.0,0.0,0.0,0.0,0.0,0.0,0.0,0.0,0.0,0.0,0.0,0.0,0.0,0.0,0.0,0.0,0.0,4.1287,4.5971,4.9694,5.157,5.3762,5.4661,5.3555,5.2116,4.9817,4.6355,4.2547,0.0,0.0,0.0,0.0,0.0,0.0,0.0,0.0,0.0,0.0,0.0,0.0,0.0,0.0,0.0,0.0,0.0,0.0,0.0,0.0,0.0,0.0,0.0,0.0,0.0,0.0,0.0,0.0,0.0,0.0,0.0,0.0,0.0,0.0,0.0,0.0,0.0,0.0,0.0,0.0,0.0,0.0,0.0,0.0,0.0,0.0,0.0,0.0,0.0,0.0,0.0,0.0,0.0,4.2508,4.3156,4.397,4.4124,4.4547,4.5009,4.2085,3.97,3.7777,3.7353,0.0,0.0,0.0,0.0,0.0,0.0,0.0,0.0,0.0,0.0,0.0,0.0,0.0,0.0,0.0,0.0,0.0,0.0,0.0,0.0,0.0,0.0,0.0,0.0,3.8799,3.7367,3.3844,0.0,0.0,0.0,0.0,0.0,0.0,0.0,0.0,0.0,0.0,0.0,4.2103,4.6419,4.9846,5.1435,5.3702,5.4825,5.418,5.3015,5.1202,4.8509,4.5586,4.2376,0.0,0.0,0.0,0.0,0.0,0.0,0.0,0.0,0.0,0.0,0.0,0.0,0.0,0.0,0.0,0.0,0.0,0.0,0.0,0.0,0.0,0.0,0.0,0.0,0.0,0.0,0.0,0.0,0.0,0.0,0.0,0.0,3.1572,3.3221,0.0,0.0,0.0,0.0,0.0,0.0,0.0,0.0,0.0,0.0,0.0,0.0,0.0,4.0427,4.1493,4.2397,4.3483,4.4801,4.6355,4.7184,4.7471,4.8202,4.8625,4.8663,4.7471,0.0,4.2085,3.9854,0.0,0.0,0.0,0.0,0.0,0.0,0.0,0.0,0.0,0.0,0.0,0.0,0.0,0.0,0.0,0.0,0.0,0.0,0.0,0.0,0.0,0.0,4.0708,4.1625,4.1735,4.1332,0.0,3.6964,3.41,3.3183,3.1861,0.0,0.0,0.0,0.0,0.0,0.0,0.0,4.291,4.727,5.0445,5.151,5.3702,5.4825,5.418,5.415,5.2741,4.9433,4.8086,4.5568,4.1382,3.9384,0.0,0.0,0.0,0.0,0.0,0.0,0.0,0.0,0.0,0.0,0.0,0.0,0.0,0.0,0.0,0.0,0.0,0.0,0.0,0.0,0.0,0.0,0.0,0.0,0.0,0.0,0.0,0.0,0.0,3.1851,3.4208,3.5436,3.5477,3.5365,0.0,0.0,0.0,0.0,0.0,0.0,0.0,0.0,0.0,4.0881,4.3261,4.4762,4.5299,4.6639,4.7884,4.8963,4.9771,5.043,5.0971,5.1356,5.1548,5.151,5.0625,4.9163,4.7086,4.3547,4.1623,4.0623,0.0,0.0,0.0,0.0,3.8123,3.9508,3.9008,3.9362,3.9813,3.8508,0.0,0.0,0.0,0.0,0.0,0.0,0.0,0.0,0.0,0.0,4.3483,4.4361,4.4546,4.4469,4.4169,4.1983,3.9224,0.0,3.4945,3.388,3.3036,0.0,0.0,0.0,0.0,4.1038,4.3828,4.7679,5.0557,5.151,5.3702,5.5015,5.4766,5.461,5.3664,5.1664,5.0279,4.8086,4.4761,4.253,3.9528,0.0,0.0,0.0,0.0,0.0,0.0,0.0,0.0,0.0,0.0,0.0,0.0,0.0,0.0,0.0,0.0,0.0,0.0,0.0,0.0,0.0,0.0,0.0,0.0,0.0,0.0,0.0,0.0,3.4266,3.6443,3.751,3.7721,3.775,0.0,0.0,0.0,0.0,0.0,0.0,4.0997,4.2924,4.426,4.4891,4.7312,4.8671,4.8716,5.0214,5.1354,5.2154,5.2427,5.2892,5.3549,5.3549,5.3549,5.3472,5.2626,5.1895,5.101,4.6932,4.4816,4.3855,4.1739,4.1277,4.1739,4.1123,4.1854,4.3008,4.2354,4.2646,4.3171,4.222,4.0995,3.9785,3.9349,0.0,0.0,0.0,0.0,4.1724,4.2976,4.4494,4.586,4.652,4.6702,4.6735,4.6838,4.5717,4.3608,0.0,3.8147,3.7088,3.6405,0.0,0.0,0.0,0.0,4.2616,4.5002,4.8345,5.078,5.151,5.3702,5.513,5.5301,5.4802,5.4126,5.328,5.1818,4.9856,4.7317,4.5201,4.2288,3.8508,0.0,0.0,0.0,0.0,0.0,0.0,0.0,0.0,0.0,0.0,0.0,0.0,0.0,0.0,0.0,0.0,0.0,0.0,0.0,0.0,0.0,0.0,0.0,0.0,0.0,0.0,0.0,0.0,0.0,4.0032,4.0879,0.0,0.0,0.0,0.0,4.0903,4.1787,4.2768,4.3769,4.624,4.7639,4.7716,5.0099,5.1438,5.1507,5.2326,5.2855,5.3042,5.3909,5.4314,5.4434,5.4434,5.4434,5.4395,5.351,5.3126,5.2818,4.9356,4.7432,4.6624,4.5663,4.5316,4.5316,4.5278,4.5855,4.6663,4.6586,4.7086,4.7587,4.6607,4.4829,4.2897,4.1911,4.1928,0.0,0.0,4.3595,4.4893,4.5101,4.6392,4.7648,4.7686,4.7751,4.7815,4.7815,4.7174,4.5991,0.0,4.1674,4.0015,3.9761,0.0,3.9369,4.1699,4.28,4.4232,4.6691,4.9529,5.1413,5.1585,5.3702,5.513,5.5301,5.4802,5.4126,5.328,5.2356,5.0702,4.8163,4.7201,4.4648,4.0266,3.8306,0.0,0.0,0.0,0.0,0.0,0.0,0.0,0.0,0.0,0.0,0.0,0.0,0.0,0.0,0.0,0.0,0.0,0.0,0.0,0.0,0.0,0.0,0.0,0.0,0.0,0.0,0.0,0.0,4.2713,4.3579,0.0,4.396,4.3488,4.3802,4.5344,4.5726,4.6806,4.8966,4.9946,5.0755,5.1275,5.2713,5.3481,5.3503,5.4847,5.5561,5.5605,5.6489,5.6643,5.6088,5.6088,5.578,5.5241,5.4934,5.4511,5.3933,5.2702,5.1395,5.0048,4.9202,4.8548,4.8048,4.8048,4.8586,4.9279,4.8702,4.9048,4.9529,4.7907,4.6725,4.5899,4.5358,4.5311,4.5455,4.5424,4.624,4.713,4.7185,4.804,4.8927,4.9039,4.9097,4.9155,4.9277,4.8662,4.784,4.7071,4.4691,4.2753,4.2532,4.1835,4.1767,4.3074,4.4334,4.5661,4.7059,4.9676,5.145,5.1585,5.3702,5.4939,5.4537,5.4495,5.3895,5.2472,5.1587,5.0202,4.8202,4.7317,4.534,4.2028,4.0214,3.73,0.0,0.0,0.0,0.0,0.0,0.0,0.0,0.0,0.0,0.0,0.0,0.0,0.0,0.0,0.0,0.0,0.0,0.0,0.0,0.0,0.0,0.0,0.0,0.0,0.0,0.0,4.3197,4.5285,4.6263,4.6837,4.7085,4.6937,4.7465,4.899,4.9105,5.0013,5.2197,5.2602,5.3161,5.401,5.4895,5.5472,5.578,5.6896,5.7434,5.7434,5.8011,5.8011,5.7434,5.7434,5.7126,5.6549,5.628,5.5818,5.5318,5.5011,5.4203,5.3087,5.1972,5.1202,5.0664,5.0664,5.1048,5.1471,5.0894,5.1048,5.1316,4.9937,4.9182,4.8732,4.8466,4.8135,4.7889,4.783,4.8273,4.8775,4.8824,4.9259,4.9731,4.9868,4.9948,5.0,5.0139,4.9706,4.9262,4.9112,4.7013,4.5169,4.496,4.442,4.4283,4.5008,4.5909,4.68,4.7574,4.9824,5.1414,5.1585,5.3641,5.4732,5.4155,5.405,5.3297,5.1587,5.0702,4.9471,4.7778,4.7201,4.5801,4.3406,4.096,3.8173,3.5061,0.0,0.0,0.0,0.0,0.0,0.0,0.0,0.0,0.0,0.0,0.0,0.0,0.0,0.0,0.0,0.0,0.0,0.0,0.0,0.0,0.0,0.0,0.0,4.0193,4.2487,4.5148,4.7778,4.8874,4.9719,5.0521,5.0555,5.0856,5.1737,5.1919,5.2346,5.3196,5.4143,5.4972,5.5742,5.6588,5.7434,5.828,5.8319,5.8357,5.8357,5.8357,5.8357,5.8357,5.8357,5.8319,5.8242,5.7396,5.7011,5.6934,5.6088,5.5703,5.5549,5.3895,5.328,5.3241,5.3241,5.3241,5.3241,5.3241,5.32,5.3119,5.2947,5.2207,5.1319,5.113,5.0421,4.9721,4.9797,4.9854,4.991,4.9955,5.0088,5.0165,5.0127,5.0226,5.0321,5.0283,5.0283,5.0259,5.0114,4.8669,4.7284,4.6986,4.6847,4.6962,4.762,4.7564,0.0,4.8384,5.0083,5.1305,5.1551,5.3509,5.4582,5.4117,5.3468,5.241,5.0741,4.9817,4.8625,4.6971,4.6894,4.6068,4.4323,4.0692,3.7877,3.5972,0.0,0.0,0.0,0.0,0.0,0.0,0.0,0.0,0.0,0.0,0.0,0.0,0.0,0.0,0.0,0.0,0.0,0.0,0.0,0.0,0.0,4.0946,4.2862,4.2927,4.5701,4.8311,4.9719,5.116,5.212,5.2389,5.29,5.3568,5.4457,5.5132,5.5907,5.6835,5.7126,5.7357,5.7588,5.7819,5.805,5.8319,5.8896,5.9165,5.9165,5.9819,5.9781,5.9165,5.9165,5.8858,5.828,5.805,5.7588,5.6973,5.6742,5.628,5.5665,5.5203,5.4664,5.4126,5.4126,5.4126,5.4126,5.4126,5.4126,5.4028,5.3289,5.2816,5.2494,5.2348,5.2107,5.1929,5.1877,5.1903,5.198,5.2054,5.1658,5.1285,5.1338,5.0922,5.0521,5.0563,5.0584,5.0563,5.0478,5.0007,4.9272,4.8218,4.8032,4.8022,4.8047,4.838,0.0,4.8714,5.0268,5.1378,5.1519,5.3515,5.4325,5.32,5.31,5.2141,4.9894,4.8933,4.8009,4.6932,4.6278,4.5378,4.4193,4.2387,4.0798,0.0,0.0,0.0,0.0,0.0,0.0,0.0,0.0,0.0,0.0,0.0,0.0,0.0,0.0,0.0,0.0,0.0,0.0,0.0,0.0,0.0,0.0,4.4097,4.6211,4.6661,4.8464,5.0462,5.2466,5.3563,5.4468,5.5198,5.5714,5.6191,5.6698,5.7197,5.7697,5.828,5.8319,5.8473,5.8781,5.8819,5.8973,5.9358,5.9819,6.005,6.005,6.055,6.0512,6.005,6.005,5.9781,5.9319,5.8973,5.8511,5.8011,5.7665,5.7011,0.0,0.0,0.0,0.0,0.0,5.5011,5.5011,5.5011,5.5011,5.4934,5.4331,5.3903,5.3552,5.3436,5.3145,5.2877,5.2791,5.2815,5.29,5.2947,5.2625,5.2302,5.2329,5.1718,5.1162,5.1202,5.0933,5.0682,5.0584,5.0563,0.0,4.9491,4.9226,4.9094,4.8938,4.9046,4.9239,4.9338,5.0453,5.1454,5.1933,5.3541,5.4216,5.3263,5.3068,0.0,0.0,0.0,4.8279,4.7432,4.6932,0.0,0.0,0.0,0.0,0.0,0.0,0.0,0.0,3.7529,3.7881,0.0,0.0,0.0,0.0,0.0,0.0,0.0,0.0,0.0,0.0,0.0,0.0,0.0,0.0,0.0,0.0,4.7242,4.98,5.0922,5.1058,5.2214,5.5231,5.5835,5.6588,5.8165,5.8396,5.8434,5.8434,5.855,5.8588,5.8588,0.0,0.0,0.0,0.0,6.0012,6.0781,6.0781,6.0781,6.0781,6.0781,6.0781,6.0781,6.0781,6.0781,6.0742,5.9973,5.9588,5.9435,5.8742,5.7934,5.7049,5.6088,5.5703,5.5703,5.5703,5.5703,5.5703,5.5703,0.0,0.0,5.5638,5.5138,5.4501,5.4388,5.3851,5.3283,5.3215,5.3238,5.3283,5.3283,5.3289,5.3255,5.3255,5.2623,5.2049,5.2049,5.1395,5.0798,5.0758,5.0661,5.0584,5.0521,5.0283,5.0089,4.9933,4.9671,4.9669,5.004,5.0787,5.1639,5.2604,0.0,0.0,5.391,5.3378,5.2395,5.0933,5.001,4.9202,4.8432,4.8394,4.8414,4.8356,4.7448,4.6832,4.6645,4.5649,4.535,4.5782,4.3704,4.2763,0.0,0.0,0.0,0.0,0.0,0.0,0.0,0.0,0.0,0.0,0.0,0.0,0.0,0.0,0.0,4.7728,4.998,5.2116,5.4287,5.4639,5.4951,5.5605,5.6934,5.7934,5.828,5.8896,5.9281,5.9281,5.9935,6.0319,6.0319,6.0319,6.0396,6.055,6.055,6.0627,6.0781,6.0781,6.0781,6.0781,0.0,0.0,6.0781,6.0781,6.0781,6.0781,6.0627,6.0165,5.9473,5.9319,5.8781,5.7896,5.6319,5.5703,5.5703,5.5703,5.5703,5.5703,5.5703,5.5703,5.5703,5.5703,5.5566,5.5451,5.5429,5.5275,0.0,5.516,5.516,5.5182,5.5182,5.472,5.422,5.422,5.3587,5.2972,5.2972,5.2279,5.1664,5.1644,5.1105,5.0682,5.0644,5.0521,5.0329,5.0089,5.0448,5.0614,5.0216,5.1416,5.2382,5.2605,5.3639,5.4156,5.3867,5.3887,5.3315,5.1759,5.0894,5.0356,5.0202,5.0202,5.0183,5.0143,4.9827,4.9816,5.0187,4.9797,4.9802,5.0184,4.6905,4.5662,0.0,0.0,0.0,0.0,0.0,0.0,0.0,0.0,0.0,0.0,0.0,4.0998,4.3558,0.0,4.7924,5.0112,5.2346,5.4194,5.5423,5.6736,5.7588,5.7588,5.8357,5.9088,5.9511,5.9896,6.0165,6.0165,6.055,6.0781,6.0781,6.0781,6.0781,6.0781,6.0781,6.0781,6.0781,6.0781,6.0781,6.0781,6.0781,6.0781,6.0781,6.0781,6.0781,6.0781,6.0781,6.055,6.0127,5.9665,5.9281,5.8781,5.7511,5.7011,5.7011,5.7011,5.6742,5.6357,5.6357,5.6049,5.5703,5.5703,5.5703,5.5703,5.5703,5.5703,5.5703,5.5703,5.5703,5.5703,5.5703,5.5395,5.5088,5.5088,5.4472,5.3857,5.3857,5.3164,5.2549,5.2549,5.2241,5.1933,5.1933,5.1893,5.1612,5.0899,5.1304,5.1647,5.1513,5.2085,5.2678,5.3162,5.3756,5.4209,5.441,5.4407,5.3827,5.2605,5.2164,5.1933,5.1933,5.2356,5.2587,5.2546,5.2845,5.3092,5.3225,5.3016,5.3101,5.3381,5.1454,5.0231,0.0,0.0,0.0,0.0,0.0,0.0,0.0,0.0,4.0356,4.1126,4.2679,4.4595,4.7029,4.8813,5.0542,5.2269,5.4425,5.5983,5.6329,5.8181,5.955,5.9742,5.9742,6.0012,6.0742,6.0781,6.0781,6.0781,6.0781,6.0781,6.0781,6.0781,6.0781,6.0781,6.0781,6.0781,6.0781,6.0781,6.0781,6.0781,6.0781,6.0781,6.0781,6.0781,6.0781,6.0781,6.0781,6.0781,6.0742,6.005,5.9742,5.9704,5.905,5.8781,5.8742,5.8434,5.7857,5.7242,5.7242,5.6665,5.5934,5.5934,5.5818,5.5703,5.5703,5.5703,5.5703,5.5703,5.5703,5.5703,5.5703,5.5703,5.5703,5.5703,5.5203,5.4741,5.4741,5.4049,5.3433,5.3433,5.3318,5.3203,5.3203,5.3356,5.3042,5.1935,5.2258,5.2681,5.285,5.2754,5.3049,5.3943,5.4168,5.4631,5.5569,5.5384,5.4934,5.4241,5.4203,5.4203,5.4203,5.4857,5.5241,5.5241,5.5791,5.6045,5.5836,5.5625,5.5579,5.5763,5.5585,5.4568,3.6507,3.6699,0.0,3.8354,3.9931,4.1223,0.0,0.0,4.396,4.4767,4.6263,4.7989,4.9854,5.1544,5.3217,5.4989,5.6165,5.7357,5.8858,5.9319,5.9781,6.055,6.0666,6.0704,6.0781,6.0781,6.0781,6.0781,6.0781,6.0781,6.0781,6.0781,6.0781,6.0781,6.0781,6.0781,6.0781,6.0781,6.0781,6.0781,6.0781,6.0781,6.0781,6.0781,6.0781,6.0781,6.0781,6.0781,6.0781,6.0704,6.0666,6.0666,6.055,6.0512,6.0319,5.8858,5.8242,5.8165,5.8165,5.7588,5.6857,5.6857,5.6319,5.5703,5.5703,5.5703,5.5703,5.5703,5.5703,5.5703,5.5703,5.5703,5.5703,5.5703,5.5626,5.5549,5.5549,5.4934,5.4357,5.4357,5.3741,5.3203,5.3203,5.3857,5.3985,5.2924,5.3239,5.3509,5.3128,5.3421,5.398,5.4912,5.5137,5.5789,5.7347,5.7733,5.7819,5.7742,5.7742,5.7742,5.7742,5.7819,5.7857,5.7857,5.7905,5.7896,5.7785,5.7461,5.721,5.6998,5.723,5.6611,3.843,0.0,0.0,0.0,4.2393,4.4008,4.3991,4.5299,4.6896,4.826,4.9067,5.024,5.2451,5.3836,5.5028,0.0,5.7588,5.8704,5.9396,5.9935,6.0396,6.0742,6.0781,6.0781,6.0781,6.0781,6.0781,6.0781,6.0781,6.0781,6.0781,6.0781,6.0781,6.0781,6.0781,6.0781,6.0781,6.0781,6.0781,6.0781,6.0781,6.0781,6.0781,6.0781,6.0781,6.0781,6.0781,6.0781,6.0781,6.0781,6.0781,6.0781,6.0781,6.0781,6.0704,6.0012,5.9435,5.9011,5.9011,5.8434,5.7742,5.7742,5.7165,5.6434,5.6434,5.6088,5.5703,5.5703,5.5703,5.5703,5.5703,5.5703,5.5703,5.5703,5.5703,5.5703,5.5703,5.5434,5.5203,5.5203,5.4895,5.4664,5.4664,5.4972,5.5028,5.4534,5.4549,5.443,5.3978,5.435,5.5025,5.5959,5.6425,5.696,5.7745,5.8103,5.8319,5.8319,5.8319,5.8319,5.8319,5.8742,5.9011,5.9011,5.9488,5.9672,5.9624,5.9381,5.9063,5.8684,5.8613,5.8117,4.0431,0.0,0.0,4.2701,4.4586,4.6278,4.6278,4.7586,4.9163,5.0433,5.1241,5.2318,5.4164,5.5164,5.6049,5.7165,5.8396,5.9319,5.9781,6.0396,6.0704,6.0473,6.0666,6.0704,6.0473,6.0666,6.0781,6.0781,6.0781,6.0781,6.0781,6.0781,6.0781,6.0781,6.0781,6.0781,6.0781,6.0781,6.0781,6.0781,6.0781,6.0781,6.0781,6.0781,6.0781,6.0781,6.0781,6.0781,6.0781,6.0781,6.0781,6.0781,6.0781,6.0781,6.0781,6.0781,6.0396,5.9858,5.9858,5.9319,5.8627,5.8627,5.805,5.7357,5.7357,5.6934,5.6434,5.6434,5.6434,5.6357,5.6126,5.6049,5.6011,5.5742,5.5703,5.5703,5.5703,5.5703,5.5703,5.5703,5.5703,5.578,5.6011,5.6049,5.6104,5.6268,5.6141,5.5739,5.507,5.5645,5.6331,5.704,5.7845,5.8359,5.8525,5.8832,5.8973,5.8973,5.8973,5.8973,5.8973,5.955,5.9858,5.9858,6.0473,6.0757,6.071,6.0559,6.0275,5.9906,5.947,5.9063,0.0,0.0,4.5432,4.547,4.674,4.8009,4.8009,4.9356,5.0625,5.0702,5.2664,5.4395,5.4472,5.5164,5.6242,5.7973,5.8319,5.8896,6.0512,6.0781,6.0473,5.9627,6.0281,6.0473,0.0,6.0281,6.0781,6.0781,6.0781,6.0781,6.0781,6.0781,6.0781,6.0781,6.0781,6.0781,6.0781,6.0781,6.0781,6.0781,6.0781,6.0781,6.0781,6.0781,6.0781,6.0781,6.0781,6.0781,6.0781,6.0781,6.0781,6.0781,6.0781,6.0781,6.0781,6.0781,6.0781,6.0742,6.0742,6.0204,5.9473,5.9473,5.8934,5.828,5.828,5.8242,5.8204,5.8204,5.8204,5.805,5.7165,5.6934,5.6742,5.5895,5.5703,5.5703,5.5703,5.5703,5.5703,5.5703,5.5703,5.5972,5.6819,5.6934,5.722,5.7997,5.8064,5.7545,5.6282,5.7305,5.8119,5.8154,5.9336,6.0199,6.0376,6.0584,6.0704,6.0704,6.0704,6.0704,6.0704,6.0742,6.0742,6.0742,6.0781,6.0781,6.0781,6.0585,6.0398,6.015,5.9575,5.914,0.0,0.0,4.5855,4.6971,4.8548,4.9817,4.9817,5.1125,5.2356,5.2356,5.3049,5.3626,5.3626,5.478,5.6088,5.7242,5.8357,5.9511,6.0627,6.0781,6.0704,6.0396,6.0627,0.0,0.0,0.0,0.0,6.0781,6.0781,6.0781,6.0781,6.0781,6.0781,6.0781,6.0781,6.0781,6.0781,6.0781,6.0781,6.0781,6.0781,6.0781,6.0781,6.0781,6.0781,6.0781,6.0781,6.0781,6.0781,6.0781,6.0781,6.0781,6.0781,6.0781,6.0781,6.0781,6.0781,6.0781,6.0781,6.0589,6.0358,6.0358,5.9781,5.9088,5.9088,5.8704,5.8319,5.8319,5.8319,5.8242,5.7934,5.7857,5.778,5.7473,5.7434,5.7434,5.7434,5.7434,5.7434,5.7434,5.7434,5.7511,5.7819,5.7857,5.795,5.815,5.8004,5.7832,5.784,5.8186,5.8656,5.9185,5.984,6.0332,6.048,6.066,6.0781,6.0781,6.0781,6.0781,6.0781,6.0781,6.0781,6.0781,6.0781,6.0781,6.0781,6.0685,6.0468,6.0179,5.9809,5.9363,0.0,4.674,4.7663,4.874,5.0317,5.1587,5.1587,5.2433,5.3203,5.3203,5.3203,5.3203,5.3203,5.4318,5.5665,5.6819,5.8165,5.9473,6.0627,6.0781,6.0666,6.0358,6.0589,6.0666,0.0,0.0,0.0,6.0781,6.0781,6.0781,6.0781,6.0781,6.0781,6.0781,6.0781,6.0781,6.0781,6.0781,6.0781,6.0781,6.0781,6.0781,6.0781,6.0781,6.0781,6.0781,6.0781,6.0781,6.0781,6.0781,6.0781,6.0781,6.0781,6.0781,6.0781,6.0781,6.0781,6.0781,6.0781,6.0781,6.0781,6.0781,6.0435,5.9973,5.9973,5.9588,5.9204,5.9204,5.9204,5.9127,5.8819,5.8742,5.8665,5.8357,5.8319,5.8319,5.8319,5.8319,5.8319,5.8319,5.8319,5.8396,5.8665,5.8973,5.9181,5.9158,5.8911,5.8803,5.8834,5.9079,5.9429,5.9924,6.0237,6.0441,6.0559,6.071,6.0781,6.0781,6.0781,6.0781,6.0781,6.0781,6.0781,6.0781,6.0781,6.0781,6.0781,6.0734,6.052,6.0208,5.9937,5.9467,4.6817,4.8856,5.0702,5.0818,5.2049,5.3241,5.3203,5.3241,5.3241,5.3087,5.3087,5.3049,0.0,0.0,5.4934,5.6665,5.7703,5.8896,6.055,6.0781,6.0473,0.0,0.0,0.0,0.0,0.0,0.0,6.0781,0.0,6.0781,6.0781,6.0781,6.0781,6.0781,6.0781,6.0781,6.0781,6.0781,6.0781,6.0781,6.0781,6.0781,6.0781,6.0781,6.0781,6.0781,6.0781,6.0781,6.0781,6.0781,6.0781,6.0781,6.0781,6.0781,6.0781,6.0781,6.0781,6.0781,6.0781,6.0781,6.0781,6.0781,6.0781,6.0781,6.0781,6.0781,6.0781,6.0781,6.0781,6.0589,5.9781,5.9588,5.9358,5.8627,5.8434,5.8434,5.8434,5.8434,5.8434,5.8434,5.8434,5.8665,5.9435,6.0242,6.0781,6.0781,6.0734,6.0367,5.9289,5.9835,6.0321,6.0321,6.0506,6.061,6.0685,6.0757,6.0781,6.0781,6.0781,6.0781,6.0781,6.0781,6.0781,6.0781,6.0781,6.0781,6.0781,6.0734,6.0546,6.0293,5.9969,5.954,4.8971,5.0202,5.101,5.2241,5.3356,5.401,5.3356,5.3703,5.3626,5.1741,5.1318,5.1125,0.0,0.0,0.0,5.5665,5.7319,0.0,6.055,6.0781,0.0,0.0,0.0,6.0704,6.0473,6.0666,0.0,0.0,6.0781,6.0781,6.0781,6.0781,6.0781,6.0781,6.0781,6.0781,6.0781,6.0781,6.0781,6.0781,6.0781,6.0781,6.0781,6.0781,6.0781,6.0781,6.0781,6.0781,6.0781,6.0781,6.0781,6.0781,6.0781,6.0781,6.0781,6.0781,6.0781,6.0781,6.0781,6.0781,6.0781,6.0781,6.0781,6.0781,6.0781,6.0781,6.0781,6.0781,6.0781,6.0742,6.0512,6.0473,6.0435,6.0204,6.0165,6.0165,6.0165,6.0165,6.0165,6.0165,6.0165,6.0242,6.0435,6.0666,6.0781,6.0781,6.0781,6.0657,6.0328,6.0406,6.0533,6.0533,6.061,6.0685,6.0685,6.0757,6.0781,6.0781,6.0781,6.0781,6.0781,6.0781,6.0781,6.0781,6.0781,6.0781,6.0781,6.0757,6.0597,6.0293,6.0091,5.9643,5.0164,5.151,5.2587,5.3549,5.4126,5.4357,5.3895,5.328,5.2433,5.0971,5.0087,0.0,0.0,0.0,0.0,0.0,0.0,0.0,5.9973,6.055,6.0781,0.0,6.0781,0.0,6.0781,6.0781,6.0781,0.0,6.0781,6.0781,6.0781,6.0781,6.0781,6.0781,6.0781,6.0781,6.0781,6.0781,6.0781,6.0781,6.0781,6.0781,6.0781,6.0781,6.0781,6.0781,0.0,6.0781,6.0781,6.0781,6.0781,6.0781,6.0781,6.0781,6.0781,6.0781,6.0781,6.0781,6.0781,6.0781,6.0781,6.0781,6.0781,6.0781,6.0781,6.0781,6.0781,6.0781,6.0781,6.0781,6.0781,6.0781,6.0781,6.0781,6.0781,6.0781,6.0781,6.0781,6.0781,6.0781,6.0781,6.0781,6.0781,6.0781,6.0781,6.0781,6.0781,6.0781,6.0734,6.071,6.066,6.066,6.071,6.0734,6.0734,6.0757,6.0781,6.0781,6.0781,6.0781,6.0781,6.0781,6.0973,6.1358,6.1358,6.155,6.1897,6.1897,6.171,6.144,6.1294,6.0808,5.1087,5.2818,5.4511,5.4626,5.4587,5.4434,5.4203,5.2356,5.0587,5.0279,0.0,0.0,4.7932,0.0,5.1087,5.2895,0.0,5.7588,5.9242,6.0242,6.0781,6.0781,6.0781,6.0781,6.0781,6.0781,6.0781,6.0781,6.0781,6.0781,6.0781,6.0781,6.0781,6.0781,6.0781,6.0781,6.0781,6.0781,6.0781,6.0781,6.0781,6.0781,6.0781,6.0781,6.0781,6.0781,6.0781,6.0781,6.0781,6.0781,6.0781,6.0781,6.0781,6.0781,6.0781,6.0781,6.0781,6.0781,6.0781,6.0781,6.0781,6.0781,6.0781,6.0781,6.0781,6.0781,6.0781,6.0781,6.0781,6.0781,6.0781,6.0781,6.0781,6.0781,6.0781,6.0781,6.0781,6.0781,6.0781,6.0781,6.0781,6.0781,6.0781,6.0781,6.0781,6.0781,6.0781,6.0781,6.0781,6.0781,6.0781,6.0781,6.0781,6.0781,6.0781,6.0781,6.0858,6.0973,6.0973,6.1012,6.1127,6.1127,6.1473,6.2243,6.2243,6.2589,6.332,6.332,6.3168,6.2892,6.2704,6.217,5.328,5.4164,5.4664,5.5318,5.4972,5.4126,5.2702,5.1471,0.0,0.0,0.0,4.7124,4.7124,4.8509,0.0,5.2818,0.0,0.0,0.0,0.0,6.0781,0.0,0.0,0.0,0.0,0.0,0.0,0.0,6.0781,6.0781,6.0781,6.0781,6.0781,6.0781,6.0781,6.0781,6.0781,6.0781,6.0781,6.0781,6.0781,6.0781,6.0781,6.0781,6.0781,6.0781,6.0781,0.0,6.0781,6.0781,6.0781,6.0781,6.0781,6.0781,6.0781,6.0781,6.0781,6.0781,6.0781,6.0781,6.0781,6.0781,6.0781,6.0781,6.0781,6.0781,6.0781,6.0781,6.0781,6.0781,6.0781,6.0781,6.0781,6.0781,6.0781,6.0781,6.0781,6.0781,6.0781,6.0781,6.0781,6.0781,6.0781,6.0781,6.0781,6.0781,6.0781,6.0781,6.0781,6.0781,6.0781,6.0781,6.0781,6.0781,6.0781,6.0781,6.1089,6.182,6.1858,6.2166,6.2858,6.2858,6.2935,6.3089,6.3089,6.3166,6.332,6.332,6.3168,6.2892,6.2704,6.217,5.4049,5.4818,5.5126,5.5088,5.4434,5.3395,5.1664,0.0,0.0,0.0,0.0,4.6201,4.6201,4.7586,0.0,0.0,0.0,0.0,0.0,0.0,0.0,0.0,0.0,0.0,0.0,0.0,0.0,0.0,6.0781,6.0781,6.0781,6.0781,6.0781,6.0781,6.0781,6.0781,6.0781,6.0781,6.0781,6.0781,6.0781,6.0781,6.0781,6.0781,6.0781,6.0781,6.0781,6.0781,6.0781,6.0781,6.0781,6.0781,6.0781,6.0781,6.0781,6.0781,6.0781,6.0781,6.0781,6.0781,6.0781,6.0781,6.0781,6.0781,6.0781,6.0781,6.0781,6.0781,6.0781,6.0781,6.0781,6.0781,6.0781,6.0781,6.0781,6.0781,6.0781,6.0781,6.0781,6.0781,6.0781,6.0781,6.0781,6.0781,6.0781,6.0781,6.0781,6.0781,6.0781,6.0781,6.0781,6.0781,6.0781,6.0973,6.1435,6.1473,6.182,6.2666,6.2704,6.2897,6.3281,6.332,6.3512,6.3974,6.3974,6.4205,6.4666,6.4666,6.4473,6.4191,6.4,6.3495,5.4241,5.5088,5.5511,5.4703,5.3857,5.2702,5.0856,4.9202,0.0,0.0,0.0,4.5586,4.5586,0.0,0.0,0.0,0.0,0.0,0.0,0.0,0.0,0.0,0.0,0.0,0.0,0.0,0.0,0.0,6.0781,6.0781,6.0781,6.0781,6.0781,6.0781,6.0781,6.0781,6.0781,6.0781,6.0781,6.0781,6.0781,6.0781,6.0781,6.0781,6.0781,6.0781,6.0781,6.0781,6.0781,6.0781,6.0781,6.0781,6.0781,6.0781,6.0781,6.0781,6.0781,6.0781,6.0781,6.0781,6.0781,6.0781,6.0781,6.0781,6.0781,6.0781,6.0781,6.0781,6.0781,6.0781,6.0781,6.0781,6.0781,6.0781,6.0781,6.0781,6.0781,6.0781,6.0781,6.0781,6.0781,6.0781,6.0781,6.0781,6.0781,6.0781,6.0781,6.0858,6.105,6.1089,6.1127,6.132,6.1166,6.1435,6.2281,6.2358,6.2704,6.3551,6.3589,6.3666,6.3858,6.3858,6.4166,6.4859,6.4897,6.5205,6.5897,6.5897,6.5701,6.5375,6.5155,6.4631,5.4241,5.5088,5.5511,5.4703,5.3857,5.2549,5.0087,0.0,0.0,0.0,4.5663,4.5586,4.5586,0.0,0.0,0.0,0.0,0.0,0.0,0.0,0.0,0.0,0.0,0.0,0.0,0.0,0.0,6.0781,6.0781,6.0781,6.0781,6.0781,6.0781,6.0781,6.0781,6.0781,6.0781,6.0781,6.0781,6.0781,6.0781,6.0781,6.0781,6.0781,6.0781,6.0781,6.0781,6.0781,0.0,6.0781,6.0781,6.0781,6.0781,6.0781,6.0781,6.0781,6.0781,6.0781,6.0781,6.0781,6.0781,6.0781,6.0781,6.0781,6.0781,6.0781,6.0781,6.0781,6.0781,6.0781,6.0781,6.0781,6.0781,6.0781,6.0781,6.0781,6.0781,6.0781,6.0781,6.0781,6.0781,6.0781,6.0781,6.0781,6.0781,6.0781,6.0781,6.1089,6.1858,6.1973,6.2243,6.3012,6.2435,6.232,6.3128,6.3205,6.3551,6.4436,6.4474,6.4859,6.5628,6.5667,6.5705,6.5782,6.5782,6.582,6.5897,6.5846,6.5685,6.5413,6.4985,6.4483,5.3972,5.4741,5.478,5.3933,5.3472,5.2395,4.9317,0.0,0.0,4.5932,4.5586,4.5586,4.5586,4.6317,0.0,0.0,0.0,0.0,0.0,0.0,0.0,0.0,0.0,0.0,0.0,0.0,0.0,6.0781,6.0781,6.0781,6.0781,6.0781,6.0781,6.0781,6.0781,6.0781,6.0781,6.0781,6.0781,6.0781,6.0781,6.0781,6.0781,6.0781,6.0781,6.0781,6.0781,6.0781,0.0,6.0781,6.0781,6.0781,6.0781,6.0781,6.0781,6.0781,6.0781,6.0781,6.0781,6.0781,6.0781,6.0781,6.0781,6.0781,6.0781,6.0781,6.0781,6.0781,6.0781,6.0781,6.0781,6.0781,6.0781,6.0781,6.0781,6.0781,6.0781,6.0781,6.0781,6.0781,6.0781,6.0781,6.0781,6.0781,6.0973,6.1512,6.1589,6.1858,6.2704,6.282,6.3166,6.3974,6.332,6.3166,6.4012,6.4089,6.4436,6.532,6.5397,6.5551,6.5897,6.5897,6.5897,6.5897,6.5897,6.5897,6.5897,6.582,6.5618,6.5245,6.4951,6.4407,5.2895,5.3741,5.3895,5.3049,5.2626,5.1702,0.0,0.0,4.7355,4.5893,4.5586,4.5586,4.5586,4.6086,4.6586,0.0,0.0,0.0,0.0,0.0,0.0,0.0,0.0,0.0,0.0,0.0,6.0781,6.0781,6.0781,6.0781,6.0781,6.0781,6.0781,6.0781,6.0781,6.0781,6.0781,6.0781,6.0781,6.0781,6.0781,6.0781,6.0781,6.0781,6.0781,6.0781,6.0781,6.0781,0.0,6.0781,6.0781,6.0781,6.0781,6.0781,6.0781,6.0781,6.0781,6.0781,6.0781,6.0781,6.0781,6.0781,6.0781,6.0781,6.0781,6.0781,6.0781,6.0781,6.0781,6.0781,6.0781,6.0781,6.0781,6.0781,6.0781,6.0781,6.0781,6.0781,6.0858,6.1127,6.1166,6.1243,6.1512,6.155,6.1743,6.2358,6.2435,6.2743,6.3589,6.3666,6.4012,6.4897,6.4436,6.432,6.4936,6.4974,6.5243,6.5859,6.5897,6.5897,6.5897,6.5897,6.5897,6.5897,6.5897,6.5897,6.5897,6.5793,6.5561,6.5182,6.4775,6.4212,5.0741,5.1933,5.301,5.2125,5.1318,5.024,0.0,4.7471,4.6663,4.5778,4.5586,4.5586,4.5586,4.5586,4.5893,4.6778,0.0,0.0,0.0,0.0,0.0,0.0,0.0,0.0,0.0,0.0,6.0781,6.0781,6.0781,0.0,6.0781,6.0781,6.0781,6.0781,6.0781,6.0781,6.0781,6.0781,6.0781,6.0781,6.0781,6.0781,6.0781,6.0781,6.0781,6.0781,6.0781,6.0781,0.0,6.0781,6.0781,6.0781,6.0781,6.0781,6.0781,6.0781,6.0781,6.0781,6.0781,6.0781,6.0781,6.0781,6.0781,6.0781,6.0781,6.0781,6.0781,6.0781,6.0781,6.0781,6.0781,6.0781,6.0781,6.0781,6.0781,6.0781,6.0781,6.0781,6.105,6.1897,6.2089,6.232,6.3128,6.3281,6.3281,6.3281,6.3281,6.3589,6.4474,6.4589,6.4936,6.5782,6.5859,6.5859,6.5897,6.5897,6.5897,6.5897,6.5897,6.5897,6.5897,6.5897,6.5897,6.5897,6.5897,6.5897,6.5897,6.5608,6.5405,6.5182,6.452,6.3755,4.9989,5.1009,5.1355,5.1164,5.0894,5.0087,4.7817,4.7086,4.6663,4.5778,4.5586,4.5586,4.5586,4.5586,4.5893,4.6778,4.7586,0.0,0.0,0.0,0.0,0.0,0.0,0.0,0.0,0.0,6.0781,6.0781,6.0781,6.0781,6.0781,6.0781,6.0781,6.0781,6.0781,6.0781,6.0781,6.0781,6.0781,6.0781,6.0781,6.0781,6.0781,6.0781,6.0781,6.0781,6.0781,6.0781,6.0781,6.0781,6.0781,6.0781,6.0781,6.0781,6.0781,6.0781,6.0781,6.0781,6.0781,6.0781,6.0781,6.0781,6.0781,6.0781,6.0781,6.0781,6.0781,6.0781,6.0781,6.0781,6.0781,6.0781,6.0781,6.0781,6.0781,6.0781,6.0781,6.1281,6.1781,6.205,6.2551,6.3012,6.3281,6.332,6.3512,6.4089,6.4205,6.4512,6.5397,6.5474,6.559,6.5859,6.5897,6.5897,6.5897,6.5897,6.5897,6.5897,6.5897,6.5897,6.5897,6.6436,6.6705,6.6705,6.7321,6.7321,6.6705,6.649,6.5753,6.4483,6.4004,6.3519,0.0,4.9124,4.9682,4.9702,4.9471,4.8856,4.7278,4.6663,4.624,4.5701,4.5586,4.5586,4.5586,4.5586,4.5893,4.6778,4.7586,0.0,0.0,0.0,0.0,0.0,0.0,0.0,0.0,6.0781,6.0781,6.0781,6.0781,6.0781,6.0781,6.0781,6.0781,6.0781,6.0781,6.0781,6.0781,6.0781,6.0781,6.0781,6.0781,6.0781,6.0781,6.0781,6.0781,6.0781,6.0781,6.0781,0.0,6.0781,6.0781,6.0781,6.0781,6.0781,6.0781,6.0781,6.0781,6.0781,6.0781,6.0781,6.0781,6.0781,6.0781,6.0781,6.0781,6.0781,6.0781,6.0781,6.0781,6.0781,6.0781,6.0781,6.0781,6.0781,6.0781,6.0781,6.0781,6.1473,6.2166,6.2474,6.3205,6.3897,6.4205,6.4282,6.4474,6.5013,6.5089,6.5282,6.582,6.5897,6.5897,6.5897,6.5897,6.5897,6.5897,6.5897,6.5897,6.5897,6.5897,6.6051,6.632,6.6821,6.7244,6.759,6.8129,6.8129,6.759,6.7246,6.6394,6.4987,6.4674,6.4261,0.0,4.6455,4.7895,4.7991,4.7452,4.6876,4.6817,4.6163,0.0,4.5586,4.5586,4.5586,4.5586,4.5586,4.5893,4.6817,4.7625,0.0,0.0,0.0,0.0,0.0,0.0,0.0,6.0781,6.0781,6.0781,6.0781,6.0781,6.0781,6.0781,6.0781,6.0781,6.0781,6.0781,6.0781,6.0781,6.0781,6.0781,6.0781,6.0781,6.0781,6.0781,6.0781,6.0781,0.0,6.0781,6.0781,6.0781,6.0781,6.0781,6.0781,6.0781,6.0781,6.0781,6.0781,6.0781,6.0781,6.0781,6.0781,6.0781,6.0781,6.0781,6.0781,6.0781,6.0781,6.0781,6.0781,6.0781,6.0781,6.0781,6.0781,6.0781,6.0781,6.0781,6.0819,6.0858,6.155,6.2397,6.3243,6.4089,6.4936,6.5743,6.5897,6.5897,6.5897,6.5897,6.5897,6.5897,6.5897,6.5897,6.5897,6.5897,6.5897,6.5897,6.5897,6.5897,6.5897,6.5936,6.632,6.7051,6.7205,6.7667,6.8475,6.8513,6.8487,6.8487,6.7865,6.7165,6.6306,6.6118,6.573,4.1993,0.0,4.6066,4.6916,4.6954,4.6646,0.0,0.0,0.0,0.0,0.0,0.0,0.0,0.0,0.0,0.0,0.0,0.0,0.0,0.0,0.0,0.0,0.0,0.0,6.0781,6.0781,6.0781,6.0781,6.0781,6.0781,6.0781,6.0781,6.0781,6.0781,6.0781,6.0781,6.0781,6.0781,6.0781,6.0781,6.0781,6.0781,6.0781,6.0781,6.0781,6.0781,6.0781,6.0781,6.0781,6.0781,6.0781,6.0781,6.0781,6.0781,6.0781,6.0781,6.0781,6.0781,6.0781,6.0781,6.0781,6.0781,6.0781,6.0781,6.0781,6.0781,6.0781,6.0781,6.0781,6.0781,6.0781,6.0781,6.0781,6.0781,6.0781,6.0973,6.1627,6.2435,6.3281,6.4128,6.5013,6.5667,6.5859,6.5897,6.5897,6.5897,6.5897,6.5897,6.5897,6.5897,6.5897,6.5897,6.5897,6.5897,6.5897,6.5897,6.5897,6.5897,6.6474,6.6898,6.709,6.8398,6.9206,6.9398,6.9398,6.9289,6.9016,6.8074,6.7165,6.6306,6.6118,6.573,4.1267,4.3027,4.4739,4.5438,4.5918,4.6108,0.0,0.0,0.0,0.0,0.0,0.0,0.0,0.0,0.0,0.0,0.0,0.0,0.0,0.0,0.0,0.0,0.0,6.0781,0.0,6.0781,6.0781,6.0781,6.0781,6.0781,6.0781,6.0781,6.0781,6.0781,6.0781,6.0781,6.0781,6.0781,6.0781,6.0781,6.0781,6.0781,6.0781,6.0781,6.0781,6.0781,6.0781,6.0781,6.0781,6.0781,6.0781,6.0781,6.0781,6.0781,6.0781,6.0781,6.0781,6.0781,6.0781,6.0781,6.0781,6.0781,6.0781,6.0781,6.0781,6.0781,6.0781,6.0781,6.0781,6.0781,6.0781,6.0781,6.0781,6.0781,6.1089,6.1512,6.1973,6.3051,6.4051,6.4512,6.5282,6.5897,6.5897,6.5897,6.5897,6.5897,6.5897,6.5897,6.5897,6.5897,6.5897,6.5897,6.5897,6.6051,6.6397,6.6436,6.6436,6.6436,6.7244,6.7898,6.8282,6.9206,6.986,7.0244,7.0217,7.0047,6.9769,6.8967,6.8223,6.7464,6.7178,6.6827,4.1247,4.2586,4.3656,4.4231,4.4921,4.5514,0.0,0.0,0.0,0.0,0.0,0.0,0.0,0.0,0.0,0.0,0.0,0.0,0.0,0.0,0.0,0.0,0.0,0.0,6.0781,6.0781,6.0781,6.0781,6.0781,6.0781,6.0781,6.0781,6.0781,6.0781,6.0781,6.0781,6.0781,6.0781,6.0781,6.0781,6.0781,6.0781,6.0781,6.0781,6.0781,6.0781,0.0,0.0,6.0781,6.0781,6.0781,6.0781,6.0781,6.0781,6.0781,6.0781,6.0781,6.0781,6.0781,6.0781,6.0781,6.0781,6.0781,6.0781,6.0781,6.0781,6.0781,6.0781,6.0781,6.0781,6.0781,6.0781,6.0819,6.0973,6.155,6.2166,6.2435,6.3589,6.4628,6.4782,6.5397,6.5897,6.5897,6.5897,6.5897,6.5897,6.5897,6.5897,6.5897,6.5897,6.5936,6.6051,6.609,6.6397,6.7244,6.7398,6.7513,6.7513,6.8205,6.8975,6.986,6.9898,7.0206,7.0898,7.0815,7.0669,7.0419,7.0001,6.9463,6.8772,6.8468,6.807,4.0504,4.1503,4.2724,4.4565,4.5245,4.5457,0.0,0.0,0.0,0.0,0.0,0.0,0.0,0.0,0.0,0.0,0.0,0.0,0.0,0.0,0.0,0.0,0.0,6.0781,6.0781,6.0781,6.0781,6.0781,6.0781,6.0781,6.0781,6.0781,6.0781,6.0781,6.0781,6.0781,6.0781,6.0781,6.0781,6.0781,6.0781,6.0781,6.0781,6.0781,6.0781,6.0781,0.0,6.0781,6.0781,6.0781,6.0781,6.0781,6.0781,6.0781,6.0781,6.0781,6.0781,6.0781,6.0781,6.0781,6.0781,6.0781,6.0781,6.0781,6.0781,6.0781,6.0781,6.0781,6.0781,6.0781,6.0781,6.0781,6.0973,6.1704,6.1973,6.2474,6.3897,6.4436,6.482,6.5551,6.582,6.5897,6.5897,6.5897,6.5897,6.5897,6.5897,6.5897,6.5897,6.5897,6.6167,6.6821,6.6898,6.7244,6.8129,6.8898,6.9283,6.9283,6.9436,6.986,7.0667,7.0706,7.0783,7.0898,7.0815,7.0669,7.0419,7.0001,6.9463,6.8772,6.8468,6.807,4.0828,4.1577,4.2498,4.4638,4.56,0.0,0.0,0.0,0.0,0.0,0.0,0.0,0.0,0.0,0.0,0.0,0.0,0.0,0.0,0.0,0.0,0.0,0.0,6.0781,6.0781,6.0781,6.0781,6.0781,6.0781,6.0781,6.0781,6.0781,6.0781,6.0781,6.0781,6.0781,6.0781,6.0781,6.0781,6.0781,6.0781,6.0781,6.0781,6.0781,6.0781,6.0781,0.0,6.0781,6.0781,6.0781,6.0781,6.0781,6.0781,6.0781,6.0781,6.0781,6.0781,6.0781,6.0781,6.0781,6.0781,6.0781,6.0781,6.0781,6.0781,6.0781,6.0781,6.0781,6.0781,6.0781,6.0781,6.1127,6.1589,6.1973,6.2781,6.3666,6.4436,6.4974,6.5436,6.582,6.5897,6.5897,6.5897,6.5897,6.5897,6.5897,6.6282,6.6551,6.6551,6.6974,6.7398,6.7744,6.7782,6.8167,6.9052,6.9475,6.9898,7.0321,7.036,7.0514,7.0898,7.0898,7.0898,7.0898,7.0787,7.0639,7.0419,6.9891,6.934,6.8772,6.842,6.8055,4.1119,4.1733,4.2468,0.0,0.0,0.0,0.0,0.0,0.0,0.0,0.0,0.0,0.0,0.0,0.0,0.0,0.0,0.0,0.0,6.0396,6.0781,6.0781,6.0781,6.0781,6.0781,6.0781,6.0781,6.0781,6.0781,6.0781,6.0781,6.0781,6.0781,6.0781,6.0781,6.0781,6.0781,6.0781,6.0781,6.0781,6.0781,6.0781,6.0781,6.0781,6.0781,6.0781,6.0781,6.0781,6.0781,6.0781,6.0781,6.0781,6.0781,6.0781,6.0781,6.0781,6.0781,6.0781,6.0781,6.0781,6.0781,6.0781,6.0781,6.0781,6.0781,6.0781,6.0819,6.105,6.1089,6.1089,6.1089,6.1589,6.2204,6.2589,6.3666,6.4666,6.4859,6.5436,6.5897,6.5897,6.5897,6.5897,6.5897,6.5897,6.5974,6.6128,6.6705,6.7167,6.7359,6.7975,6.8475,6.8667,6.8706,6.9052,6.9898,6.9975,7.0244,7.086,7.0898,7.0898,7.0898,7.0898,7.0898,7.0898,7.0758,7.0609,7.0419,6.9853,6.9298,6.8809,6.8371,6.8004,4.0725,4.1415,0.0,0.0,0.0,0.0,0.0,0.0,0.0,0.0,0.0,0.0,0.0,0.0,0.0,0.0,0.0,0.0,6.0589,0.0,6.0781,6.0781,6.0781,6.0781,6.0781,6.0781,6.0781,6.0781,6.0781,6.0781,6.0781,6.0781,6.0781,6.0781,6.0781,6.0781,6.0781,6.0781,6.0781,6.0781,6.0781,6.0781,6.0781,6.0781,6.0781,6.0781,6.0781,6.0781,6.0781,6.0781,6.0781,6.0781,6.0781,6.0781,6.0781,6.0781,6.0781,6.0781,6.0781,6.0781,6.0781,6.0781,6.0781,6.0781,6.0781,6.0781,6.0973,6.1781,6.2012,6.2012,6.2012,6.205,6.2474,6.4051,6.4512,6.482,6.5628,6.5859,6.5897,6.5897,6.5897,6.5897,6.5897,6.5897,6.6128,6.6898,6.7051,6.7398,6.8205,6.8359,6.8706,6.9513,6.9629,6.9937,7.0744,7.0821,7.0821,7.0898,7.0898,7.0898,7.0898,7.0898,7.0898,7.0898,7.0815,7.0669,7.0419,7.0001,6.9423,6.8772,6.8468,6.8107,4.0926,4.1619,0.0,0.0,0.0,0.0,0.0,0.0,0.0,0.0,0.0,0.0,0.0,0.0,0.0,0.0,0.0,0.0,6.0742,6.0781,6.0781,6.0781,6.0781,6.0781,6.0781,6.0781,6.0781,6.0781,6.0781,6.0781,6.0781,6.0781,6.0781,6.0781,6.0781,6.0781,6.0781,6.0781,6.0781,6.0781,6.0781,6.0781,6.0781,6.0781,6.0781,6.0781,6.0781,6.0781,6.0781,6.0781,6.0781,6.0781,6.0781,6.0781,6.0781,6.0781,6.0781,6.0781,6.0781,6.0781,6.0781,6.0781,6.0781,6.0781,6.0781,6.1166,6.1666,6.2012,6.2474,6.2858,6.2858,6.3243,6.382,6.4436,6.5013,6.5513,6.582,6.5897,6.5897,6.5897,6.5897,6.5897,6.5897,6.632,6.6744,6.7051,6.8013,6.8821,6.9167,6.9667,7.009,7.0398,7.0437,7.0552,7.086,7.0898,7.0898,7.0898,7.0898,7.0898,7.0898,7.0898,7.0898,7.0898,7.0815,7.0669,7.0419,7.0001,6.9463,6.8772,6.8468,6.807,4.0798,4.1651,0.0,0.0,0.0,0.0,0.0,0.0,0.0,0.0,0.0,0.0,0.0,0.0,0.0,0.0,0.0,6.0781,6.0781,6.0781,6.0781,6.0781,6.0781,6.0781,6.0781,6.0781,6.0781,6.0781,6.0781,6.0781,6.0781,6.0781,6.0781,6.0781,6.0781,6.0781,6.0781,6.0781,6.0781,6.0781,6.0781,6.0781,6.0781,6.0781,6.0781,6.0781,6.0781,6.0781,6.0781,6.0781,6.0781,6.0781,6.0781,6.0781,6.0781,6.0781,6.0781,6.0781,6.0781,6.0781,6.0781,6.0781,6.0781,6.0858,6.1127,6.1627,6.2204,6.2743,6.3281,6.3782,6.4051,6.4359,6.4666,6.4936,6.5474,6.5897,6.5897,6.5897,6.5897,6.5897,6.5897,6.5974,6.6244,6.6744,6.7282,6.7821,6.8936,6.9783,7.0052,7.0552,7.0898,7.0898,7.0898,7.0898,7.0898,7.0898,7.0898,7.0898,7.0898,7.0898,7.0898,7.0898,7.0898,7.0898,7.0843,7.0699,7.0419,7.0073,6.9504,6.8772,6.8517,6.8121,4.036,0.0,0.0,0.0,0.0,0.0,0.0,0.0,0.0,0.0,0.0,0.0,0.0,0.0,0.0,0.0,6.0242,6.0781,6.0781,6.0781,6.0781,6.0781,6.0781,6.0781,6.0781,6.0781,6.0781,6.0781,6.0781,6.0781,6.0781,6.0781,6.0781,6.0781,6.0781,6.0781,6.0781,6.0781,6.0781,6.0781,6.0781,6.0781,6.0781,6.0781,6.0781,6.0781,6.0781,6.0781,6.0781,6.0781,6.0781,6.0781,6.0781,6.0781,6.0781,6.0781,6.0781,6.0781,6.0781,6.0781,6.0781,6.0781,6.0781,6.0973,6.182,6.2089,6.2435,6.4128,6.4628,6.482,6.5667,6.5243,6.482,6.5705,6.5897,6.5897,6.5897,6.5897,6.5897,6.5897,6.5897,6.6167,6.6974,6.709,6.7705,6.9436,6.9706,7.0014,7.0783,7.0898,7.0898,7.0898,7.0898,7.0898,7.0898,7.0898,7.0898,7.0898,7.0898,7.0898,7.0898,7.0898,7.0898,7.0898,7.0898,7.0758,7.0419,7.0179,6.9662,6.8809,6.8613,6.8222,4.1289,0.0,0.0,0.0,0.0,0.0,0.0,0.0,0.0,0.0,0.0,0.0,0.0,0.0,0.0,5.9511,6.0242,6.0781,6.0781,6.0781,6.0781,6.0781,6.0781,6.0781,6.0781,6.0781,6.0781,6.0781,6.0781,6.0781,6.0781,6.0781,6.0781,6.0781,6.0781,6.0781,6.0781,6.0781,6.0781,6.0781,6.0781,6.0781,6.0781,6.0781,6.0781,6.0781,6.0781,6.0781,6.0781,6.0781,6.0781,6.0781,6.0781,6.0781,6.0781,6.0781,6.0781,6.0781,6.0781,6.0781,6.0781,6.0781,6.0781,6.0973,6.182,6.2512,6.3166,6.4282,6.5051,6.5551,6.582,6.5705,6.559,6.582,6.5897,6.5897,6.5897,6.5897,6.5897,6.5897,6.6359,6.6821,6.7051,6.8129,6.909,6.9629,7.0167,7.0629,7.086,7.0898,7.0898,7.0898,7.0898,7.0898,7.0898,7.0898,7.0898,7.0898,7.0898,7.0898,7.0898,7.0898,7.0898,7.0898,7.0898,7.0758,7.0419,7.0179,6.9662,6.8809,6.8707,6.8321,0.0,0.0,0.0,0.0,0.0,0.0,0.0,0.0,0.0,0.0,0.0,0.0,0.0,0.0,0.0,6.0012,6.0473,6.0781,6.0781,6.0781,6.0781,6.0781,6.0781,6.0781,6.0781,6.0781,6.0781,6.0781,6.0781,6.0781,6.0781,6.0781,6.0781,6.0781,6.0781,6.0781,6.0781,6.0781,6.0781,6.0781,6.0781,6.0781,6.0781,6.0781,6.0781,6.0781,6.0781,6.0781,6.0781,6.0781,6.0781,6.0781,6.0781,6.0781,6.0781,6.0781,6.0781,6.0781,6.0781,6.0781,6.0781,6.0781,6.0781,6.1012,6.2204,6.2935,6.3551,6.4782,6.5474,6.5897,6.5897,6.5897,6.5897,6.5897,6.5897,6.5897,6.5897,6.5897,6.5897,6.5897,6.6551,6.7205,6.7552,6.8783,6.9821,7.0129,7.0591,7.0898,7.0898,7.0898,7.0898,7.0898,7.0898,7.0898,7.0898,7.0898,7.0898,7.0898,7.0898,7.0898,7.0898,7.0898,7.0898,7.0898,7.0898,7.0758,7.0413,7.0213,6.9701,6.8908,6.88,6.842,0.0,0.0,0.0,0.0,0.0,0.0,0.0,0.0,0.0,0.0,0.0,0.0,0.0,0.0,0.0,6.0781,6.0781,6.0781,6.0781,6.0781,6.0781,6.0781,6.0781,6.0781,6.0781,6.0781,6.0781,6.0781,6.0781,6.0781,6.0781,6.0781,6.0781,6.0781,6.0781,6.0781,6.0781,6.0781,6.0781,6.0781,6.0781,6.0781,6.0781,6.0781,6.0781,6.0781,6.0781,6.0781,6.0781,6.0781,6.0781,6.0781,6.0781,6.0781,6.0781,6.0781,6.0781,6.0781,6.0781,6.0781,6.0781,6.0781,6.0781,6.1089,6.2781,6.332,6.3666,6.5397,6.5897,6.5897,6.5897,6.5897,6.5897,6.5897,6.5897,6.5897,6.5897,6.5897,6.5897,6.5897,6.659,6.7475,6.8282,6.9167,7.0052,7.0783,7.0898,7.0898,7.0898,7.0898,7.0898,7.0898,7.0898,7.0898,7.0898,7.0898,7.0898,7.0898,7.0898,7.0898,7.0898,7.0898,7.0898,7.0898,7.0898,7.0787,7.0508,7.0247,6.9778,6.9091,6.8855,6.8517,0.0,0.0,0.0,0.0,0.0,0.0,0.0,0.0,0.0,0.0,0.0,0.0,0.0,0.0,6.0781,6.0781,6.0781,6.0781,6.0781,6.0781,6.0781,6.0781,6.0781,6.0781,6.0781,6.0781,6.0781,6.0781,6.0781,6.0781,6.0781,6.0781,6.0781,6.0781,6.0781,6.0781,6.0781,6.0781,6.0781,6.0781,6.0781,6.0781,6.0781,6.0781,6.0781,6.0781,6.0781,6.0781,6.0781,6.0781,6.0781,6.0781,6.0781,6.0781,6.0781,6.0781,6.0781,6.0781,6.0781,6.0781,6.0781,6.0781,6.0781,6.1089,6.2781,6.332,6.3666,6.5397,6.5897,6.5897,6.5897,6.5897,6.5897,6.5897,6.5897,6.5897,6.5897,6.5897,6.5897,6.5897,6.709,6.8167,6.8359,6.9667,7.0706,7.086,7.0898,7.0898,7.0898,7.0898,7.0898,7.0898,7.0898,7.0898,7.0898,7.0898,7.0898,7.0898,7.0898,7.0898,7.0898,7.0898,7.0898,7.0898,7.0898,7.0787,7.0508,7.0276,6.9815,6.9091,6.899,6.8707,0.0,0.0,0.0,0.0,0.0,0.0,0.0,0.0,0.0,0.0,0.0,0.0,0.0,6.0781,6.0781,6.0781,6.0781,6.0781,6.0781,6.0781,6.0781,6.0781,6.0781,6.0781,6.0781,6.0781,6.0781,6.0781,6.0781,6.0781,6.0781,6.0781,6.0781,6.0781,6.0781,6.0781,6.0781,6.0781,6.0781,6.0781,6.0781,6.0781,6.0781,6.0781,6.0781,6.0781,6.0781,6.0781,6.0781,6.0781,6.0781,6.0781,6.0781,6.0781,6.0781,6.0781,6.0781,6.0781,6.0781,6.0781,6.0781,6.0781,6.0781,6.1089,6.2781,6.332,6.3666,6.5397,6.5897,6.5897,6.5897,6.5897,6.5897,6.5897,6.5897,6.5897,6.5897,6.5897,6.5897,6.5897,6.7244,6.8398,6.8398,6.9783,7.0898,7.0898,7.0898,7.0898,7.0898,7.0898,7.0898,7.0898,7.0898,7.0898,7.0898,7.0898,7.0898,7.0898,7.0898,7.0898,7.0898,7.0898,7.0898,7.0898,7.0898,7.0815,7.0631,7.0342,6.9963,6.9463,6.9085,6.8717,0.0,0.0,0.0,0.0,0.0,0.0,0.0,0.0,0.0,0.0,0.0,0.0,6.0781,6.0781,6.0781,6.0781,6.0781,6.0781,6.0781,6.0781,6.0781,6.0781,6.0781,6.0781,6.0781,6.0781,6.0781,6.0781,6.0781,6.0781,6.0781,6.0666,6.0589,6.0589,6.0435,6.0435,6.055,6.0589,6.0666,6.0781,6.0781,6.0781,6.0781,6.0781,6.0781,6.0781,6.0781,6.0781,6.0781,6.0781,6.0781,6.0781,6.0781,6.0781,6.0781,6.0781,6.0781,6.0781,6.0781,6.0781,6.0781,6.0781,6.0896,6.132,6.2858,6.3435,6.3858,6.5436,6.5897,6.5897,6.5897,6.5897,6.5897,6.5897,6.5897,6.5897,6.5897,6.5897,6.5897,6.5897,6.7244,6.8513,6.8783,6.9975,7.0898,7.0898,7.0898,7.0898,7.0898,7.0898,7.0898,7.0898,7.0898,7.0898,7.0898,7.0898,7.0898,7.0898,7.0898,7.0898,7.0898,7.0898,7.0898,7.0898,7.0898,7.0871,7.0787,7.0445,7.0106,6.9816,6.9171,6.8763,0.0,0.0,0.0,0.0,0.0,0.0,0.0,0.0,0.0,0.0,0.0,6.0781,6.0781,6.0781,6.0781,6.0781,6.0781,6.0781,6.0781,6.0781,6.0781,6.0781,6.0781,6.0781,6.0781,6.0781,6.0781,6.0781,6.0781,6.0781,6.0781,6.0089,5.9665,5.9665,5.9011,5.8973,5.9665,5.9665,6.005,6.0781,6.0781,6.0781,6.0781,6.0781,6.0781,6.0781,6.0781,6.0781,6.0781,6.0781,6.0781,6.0781,6.0781,6.0781,6.0781,6.0781,6.0781,6.0781,6.0781,6.0781,6.0781,6.0781,6.132,6.2089,6.3012,6.382,6.4628,6.5628,6.5897,6.5897,6.5897,6.5897,6.5897,6.5897,6.5897,6.5897,6.5897,6.5897,6.5897,6.5897,6.7244,6.8859,7.0321,7.0744,7.0898,7.0898,7.0898,7.0898,7.0898,7.0898,7.0898,7.0898,7.0898,7.0898,7.0898,7.0898,7.0898,7.0898,7.0898,7.0898,7.0898,7.0898,7.0898,7.0898,7.0898,7.0871,7.0787,7.057,7.0209,6.9816,6.9423,6.9034,0.0,0.0,0.0,0.0,0.0,0.0,0.0,0.0,0.0,0.0,6.0473,6.0781,6.0781,6.0781,6.0781,6.0781,6.0781,6.0781,6.0781,6.0781,6.0781,6.0781,6.0781,6.0781,6.0781,6.0781,6.0781,6.0781,6.0358,6.0089,6.0089,5.9281,5.8819,5.8819,5.8473,5.8473,5.8819,5.9281,5.9935,6.0781,6.0781,6.0781,6.0781,6.0781,6.0781,6.0781,6.0781,6.0781,6.0781,6.0781,6.0781,6.0781,6.0781,6.0781,6.0781,6.0781,6.0781,6.0781,6.0781,6.0781,6.0781,6.0781,6.1396,6.2243,6.3051,6.3897,6.4782,6.5628,6.5897,6.5897,6.5897,6.5897,6.5897,6.5897,6.5897,6.5897,6.5897,6.5897,6.6167,6.7128,6.7898,6.8936,7.0591,7.0898,7.0898,7.0898,7.0898,7.0898,7.0898,7.0898,7.0898,7.0898,7.0898,7.0898,7.0898,7.0898,7.0898,7.0898,7.0898,7.0898,7.0898,7.0898,7.0898,7.0898,7.0898,7.0871,7.0843,7.0601,7.0348,6.9999,6.9544,6.9128,0.0,0.0,0.0,0.0,0.0,0.0,0.0,0.0,0.0,0.0,6.0012,6.055,6.0742,6.0781,6.0781,6.0781,6.0781,6.0781,6.0781,6.0781,6.0781,6.0781,6.0781,6.0781,6.0781,6.0589,6.0473,6.0473,5.9665,5.9204,5.9204,5.8434,5.7973,5.7973,5.7742,5.7742,5.7973,5.8973,5.9819,6.0473,6.0704,6.0781,6.0781,6.0781,6.0781,6.0781,6.0781,6.0781,6.0781,6.0781,6.0781,6.0781,6.0781,6.0781,6.0781,6.0781,6.0781,6.0781,6.0781,6.0781,6.0781,6.0781,6.1512,6.2512,6.3128,6.4051,6.5051,6.5705,6.5897,6.5897,6.5897,6.5897,6.5897,6.5897,6.5897,6.5897,6.5897,6.5897,6.6397,6.809,6.8282,6.8783,7.0591,7.0898,7.0898,7.0898,7.0898,7.0898,7.0898,7.0898,7.0898,7.0898,7.0898,7.0898,7.0898,7.0898,7.0898,7.0898,7.0898,7.0898,7.0898,7.0898,7.0898,7.0898,7.0898,7.0898,7.0898,7.0661,7.0477,7.0209,6.974,6.9382,0.0,0.0,0.0,0.0,0.0,0.0,0.0,0.0,0.0,5.9011,5.955,5.9819,6.0666,6.0781,6.0781,6.0781,6.0781,6.0781,6.0781,6.0781,6.0781,6.0781,6.0781,6.0781,6.0781,6.005,5.9588,5.9588,5.8819,5.8357,5.8357,5.755,5.7049,5.7049,5.628,5.6242,5.7049,5.8704,5.9511,5.9588,6.0396,6.0781,6.0781,6.0781,6.0781,6.0781,6.0781,6.0781,6.0781,6.0781,6.0781,6.0781,6.0781,6.0781,6.0781,6.0781,6.0781,6.0781,6.0781,6.0781,6.0781,6.0781,6.1897,6.3243,6.3281,6.4474,6.582,6.5897,6.5897,6.5897,6.5897,6.5897,6.5897,6.5897,6.5897,6.5897,6.5897,6.5897,6.6397,6.809,6.7975,6.8321,7.0514,7.0898,7.0898,7.0898,7.0898,7.0898,7.0898,7.0898,7.0898,7.0898,7.0898,7.0898,7.0898,7.0898,7.0898,7.0898,7.0898,7.0898,7.0898,7.0898,7.0898,7.0898,7.0898,7.0898,7.0898,7.0815,7.0669,7.0348,7.0179,6.9928,0.0,0.0,0.0,0.0,0.0,0.0,0.0,0.0,5.5972,5.6857,5.7934,5.8819,5.9127,6.005,6.0627,6.005,5.9973,5.9781,5.9281,5.9627,5.9973,5.9973,6.0473,6.0589,6.0012,5.9665,5.9281,5.8781,5.7934,5.7473,5.7473,5.6626,5.6165,5.6165,5.5857,5.6126,5.6973,5.7588,5.8434,5.9511,5.9819,6.0242,6.0781,6.0781,6.0781,6.0781,6.0781,6.0781,6.0781,6.0781,6.0781,6.0781,6.0781,6.0781,6.0781,6.0781,6.0781,6.0781,6.0781,6.0781,6.0781,6.0781,6.1935,6.332,6.332,6.4512,6.5897,6.5897,6.5897,6.5897,6.5897,6.5897,6.5897,6.5897,6.5897,6.5897,6.5897,6.5897,6.6397,6.809,6.7975,6.8282,7.0514,7.0898,7.0898,7.0898,7.0898,7.0898,7.0898,7.0898,7.0898,7.0898,7.0898,7.0898,7.0898,7.0898,7.0898,7.0898,7.0898,7.0898,7.0898,7.0898,7.0898,7.0898,7.0898,7.0898,7.0898,7.0815,7.0729,7.0578,7.0419,7.0213,0.0,0.0,0.0,0.0,0.0,0.0,0.0,0.0,5.3895,5.5049,5.6434,5.7627,5.8204,5.9204,5.9781,5.9204,5.9088,5.8896,5.8396,5.8781,5.9088,5.9088,5.9627,5.9742,5.9165,5.8819,5.8434,5.7896,5.7049,0.0,5.6549,5.6011,5.5703,5.5703,5.5703,5.5972,5.6549,5.6857,5.755,5.8665,5.9242,5.9819,6.0358,6.0666,6.0781,6.0781,6.0781,6.0781,6.0781,6.0781,6.0781,6.0781,6.0781,6.0781,6.0781,6.0781,6.0781,6.0781,6.0781,6.0781,6.0781,6.0781,6.1935,6.332,6.332,6.4512,6.5897,6.5897,6.5897,6.5897,6.5897,6.5897,6.5897,6.5897,6.5897,6.5897,6.5897,6.609,6.6705,6.8129,6.8129,6.8513,7.0552,7.0898,7.0898,7.0898,7.0898,7.0898,7.0898,7.0898,7.0898,7.0898,7.0898,7.0898,7.0898,7.0898,7.0898,7.0898,7.0898,7.0898,7.0898,7.0898,7.0898,7.0898,7.0898,7.0898,7.0898,7.0843,7.0787,7.0699,7.0609,7.0445,0.0,0.0,0.0,0.0,0.0,0.0,0.0,0.0,5.0317,5.3664,5.5011,5.6126,5.7857,5.8204,5.8204,5.8204,5.8242,5.8242,5.8242,5.8242,5.828,5.828,5.828,5.828,5.828,5.7511,5.6973,5.6934,5.6165,5.5703,5.5703,5.5703,5.5703,5.5703,5.5703,5.5703,5.5703,5.6549,5.6973,5.7011,5.8665,5.9473,5.9511,6.0396,6.0781,6.0781,6.0781,6.0781,6.0781,6.0781,6.0781,6.0781,6.0781,6.0781,6.0781,6.0781,6.0781,6.0781,6.0781,6.0781,6.0781,6.0781,6.1935,6.332,6.332,6.4512,6.5897,6.5897,6.5897,6.5897,6.5897,6.5897,6.5897,6.5897,6.5897,6.5897,6.5897,6.6551,6.7359,6.8205,6.8398,6.8936,7.0591,7.0898,7.0898,7.0898,7.0898,7.0898,7.0898,7.0898,7.0898,7.0898,7.0898,7.0898,7.0898,7.0898,7.0898,7.0898,7.0898,7.0898,7.0898,7.0898,7.0898,7.0898,7.0898,7.0898,7.0898,7.0898,7.0871,7.0787,7.0787,7.0758,3.3801,0.0,0.0,0.0,0.0,0.0,0.0,0.0,4.8894,5.0471,5.1933,5.3472,5.5241,5.5549,5.5742,5.6319,5.6934,5.7126,5.6511,5.6973,5.7357,5.7357,5.7934,5.805,5.7434,5.7126,5.6742,0.0,5.5818,5.5703,5.5703,5.5703,5.5703,5.5703,5.5703,5.5703,5.5703,5.5934,5.6357,5.7011,5.8127,5.8934,5.9511,6.0396,6.0781,6.0781,6.0781,6.0781,6.0781,6.0781,6.0781,6.0781,6.0781,6.0781,6.0781,6.0781,6.0781,6.0781,6.0781,6.0781,6.0781,6.0781,6.1935,6.332,6.332,6.4512,6.5897,6.5897,6.5897,6.5897,6.5897,6.5897,6.5897,6.5897,6.5897,6.5897,6.5897,6.6705,6.7513,6.7705,6.809,6.8936,7.0591,7.0898,7.0898,7.0898,7.0898,7.0898,7.0898,7.0898,7.0898,7.0898,7.0898,7.0898,7.0898,7.0898,7.0898,7.0898,7.0898,7.0898,7.0898,7.0898,7.0898,7.0898,7.0898,7.0898,7.0898,7.0898,7.0898,7.0871,7.0871,7.0871,0.0,0.0,0.0,0.0,0.0,0.0,4.0777,4.3316,4.5932,0.0,4.9163,5.0971,5.3049,5.3433,5.3703,5.4511,5.5395,5.5895,5.5703,5.6126,5.6472,5.6472,5.6896,5.7011,5.6511,5.6472,5.6242,5.5742,5.5703,5.5703,5.5703,5.5703,5.5703,5.5703,5.5703,5.5703,5.5703,5.5703,5.5934,5.6472,5.7703,5.855,5.905,6.0242,6.0781,6.0781,6.0781,6.0781,6.0781,6.0781,6.0781,6.0781,6.0781,6.0781,6.0781,6.0781,6.0781,6.0781,6.0781,6.0781,6.0781,6.0781,6.1935,6.332,6.332,6.4512,6.5897,6.5897,6.5897,6.5897,6.5897,6.5897,6.5897,6.5897,6.5897,6.5897,6.5897,6.6782,6.759,6.7552,6.859,6.9744,7.0744,7.0898,7.0898,7.0898,7.0898,7.0898,7.0898,7.0898,7.0898,7.0898,7.0898,7.0898,7.0898,7.0898,7.0898,7.0898,7.0898,7.0898,7.0898,7.0898,7.0898,7.0898,7.0898,7.0898,7.0898,7.0898,7.0898,7.0898,7.0898,7.0898,0.0,0.0,0.0,0.0,0.0,0.0,3.7815,3.9892,4.2316,0.0,4.6509,4.8432,5.0894,5.1433,5.1818,5.2779,5.3664,5.4511,5.5434,5.5626,5.5703,5.5703,5.5703,5.5703,5.5703,5.5703,5.5703,5.5703,5.5703,5.5703,5.5703,5.5703,5.5703,5.5703,5.5703,5.5703,5.5703,5.5703,5.5742,5.5857,5.7511,5.8357,5.8511,6.0089,6.0781,6.0781,6.0781,6.0781,6.0781,6.0781,6.0781,6.0781,6.0781,6.0781,6.0781,6.0781,6.0781,6.0781,6.0781,6.0781,6.0781,6.0781,6.1935,6.332,6.332,6.4512,6.5897,6.5897,6.5897,6.5897,6.5897,6.5897,6.5897,6.5897,6.5897,6.5897,6.5897,6.6705,6.7436,6.759,6.9398,7.0898,7.0898,7.0898,7.0898,7.0898,7.0898,7.0898,7.0898,7.0898,7.0898,7.0898,7.0898,7.0898,7.0898,7.0898,7.0898,7.0898,7.0898,7.0898,7.0898,7.0898,7.0898,7.0898,7.0898,7.0898,7.0898,7.0898,7.0898,7.0898,7.0898,7.0898,0.0,0.0,3.7762,0.0,0.0,0.0,3.7969,3.9431,4.1085,0.0,4.3855,4.5624,4.7548,4.8394,4.9356,5.0933,5.1856,5.2972,5.4511,5.528,5.5703,5.5703,5.5703,5.5703,5.5703,5.5703,5.5703,5.5703,5.5703,5.5703,5.5703,5.5703,5.5703,5.5703,5.5703,5.5703,5.5703,5.5703,5.6049,5.6742,5.778,5.8627,5.9319,6.0319,6.0781,6.0781,6.0781,6.0781,6.0781,6.0781,6.0781,6.0781,6.0781,6.0781,6.0781,6.0781,6.0781,6.0781,6.0781,6.0781,6.0781,6.0781,6.1935,6.332,6.332,6.4512,6.5897,6.5897,6.5897,6.5897,6.5897,6.5897,6.5897,6.5897,6.5897,6.5897,6.5897,6.6051,6.6513,6.7398,6.9398,7.0898,7.0898,7.0898,7.0898,7.0898,7.0898,7.0898,7.0898,7.0898,7.0898,7.0898,7.0898,7.0898,7.0898,7.0898,7.0898,7.0898,7.0898,7.0898,7.0898,7.0898,7.0898,7.0898,7.0898,7.0898,7.0898,7.0898,7.0898,7.0898,7.0898,7.0898,0.0,0.0,3.9893,3.9455,0.0,0.0,0.0,3.8036,3.8869,3.9738,4.0931,4.2316,4.4047,4.5047,4.6163,4.793,4.9239,5.0682,5.2454,5.3705,5.4434,5.4434,5.4857,5.5088,5.5088,5.5109,5.5129,5.517,5.5555,5.5766,5.5745,5.5745,5.5745,5.5703,5.5703,5.5703,5.5703,5.5703,5.6126,5.7011,5.7896,5.8704,5.9511,6.0396,6.0781,6.0781,6.0781,6.0781,6.0781,6.0781,6.0781,6.0781,6.0781,6.0781,6.0781,6.0781,6.0781,6.0781,6.0781,6.0781,6.0781,6.0781,6.1666,6.2781,6.3166,6.4512,6.5897,6.5897,6.5897,6.5897,6.5897,6.5897,6.5897,6.5897,6.5897,6.5897,6.5897,6.5897,6.6244,6.7359,6.9398,7.0898,7.0898,7.0898,7.0898,7.0898,7.0898,7.0898,7.0898,7.0898,7.0898,7.0898,7.0898,7.0898,7.0898,7.0898,7.0898,7.0898,7.0898,7.0898,7.0898,7.0898,7.0898,7.0898,7.0898,7.0898,7.0898,7.0898,7.0898,7.0898,7.0898,7.0898,0.0,0.0,0.0,0.0,0.0,3.8221,0.0,0.0,0.0,3.7623,3.843,0.0,0.0,0.0,0.0,4.4669,0.0,0.0,0.0,5.0987,0.0,5.2897,5.3608,5.4031,5.4031,5.4207,5.4342,5.438,5.5209,5.5654,5.5596,5.575,5.5787,5.5724,5.5703,5.5703,5.5703,5.5857,5.6395,5.7242,5.8127,5.8973,5.9781,6.0473,6.0781,6.0781,6.0781,6.0781,6.0781,6.0781,6.0781,6.0781,6.0781,6.0781,6.0781,6.0781,6.0781,6.0781,6.0781,6.0781,6.0781,6.0781,6.1473,6.2474,6.332,6.4666,6.5897,6.5897,6.5897,6.5897,6.5897,6.5897,6.5897,6.5897,6.5897,6.5897,6.5897,6.5897,6.6282,6.7513,6.9283,7.0629,7.086,7.0898,7.0898,7.0898,7.0898,7.0898,7.0898,7.0898,7.0898,7.0898,7.0898,7.0898,7.0898,7.0898,7.0898,7.0898,7.0898,7.0898,7.0898,7.0898,7.0898,7.0898,7.0898,7.0898,7.0898,7.0898,7.0898,7.0898,7.0898,7.0898,0.0,0.0,0.0,0.0,4.0602,0.0,0.0,0.0,3.6818,3.6853,0.0,0.0,0.0,0.0,0.0,0.0,0.0,0.0,4.6109,4.6535,4.8052,5.1773,5.228,5.2319,5.2357,5.3065,5.3558,5.363,5.442,5.4907,5.4817,5.5479,5.5847,5.5787,5.5724,5.5703,5.5703,5.6472,5.728,5.8165,5.8973,5.9819,6.0666,6.0742,6.0781,6.0781,6.0781,6.0781,6.0781,6.0781,6.0781,6.0781,6.0781,6.0781,6.0781,6.0781,6.0781,6.0781,6.0781,6.0781,6.0781,6.0781,6.1858,6.332,6.4205,6.5128,6.5897,6.5897,6.5897,6.5897,6.5897,6.5897,6.5897,6.5897,6.5897,6.5897,6.5897,6.5897,6.6359,6.8013,6.8898,6.9706,7.0744,7.0898,7.0898,7.0898,7.0898,7.0898,7.0898,7.0898,7.0898,7.0898,7.0898,7.0898,7.0898,7.0898,7.0898,7.0898,7.0898,7.0898,7.0898,7.0898,7.0898,7.0898,7.0898,7.0898,7.0898,7.0898,7.0898,7.0898,7.0898,7.0898,0.0,0.0,0.0,0.0,0.0,0.0,3.8562,0.0,3.6845,0.0,0.0,0.0,0.0,0.0,0.0,0.0,4.0796,0.0,0.0,0.0,4.4316,0.0,0.0,0.0,5.0593,5.1447,5.2041,5.2085,5.3366,5.4347,5.4793,5.5581,5.5998,5.5847,5.5787,5.5745,5.5703,5.6549,5.7434,5.8319,5.9127,5.9973,6.0781,6.0781,6.0781,6.0781,6.0781,6.0781,6.0781,6.0781,6.0781,6.0781,6.0781,6.0781,6.0781,6.0781,6.0781,6.0781,6.0781,6.0781,6.0781,6.0781,6.1935,6.3358,6.3743,6.482,6.5897,6.5897,6.5897,6.5897,6.5897,6.5897,6.5897,6.5897,6.5897,6.5897,6.5897,6.6282,6.6936,6.8167,6.9013,6.9783,7.0744,7.0898,7.0898,7.0898,7.0898,7.0898,7.0898,7.0898,7.0898,7.0898,7.0898,7.0898,7.0898,7.0898,7.0898,7.0898,7.0898,7.0898,7.0898,7.0898,7.0898,7.0898,7.0898,7.0898,7.0898,7.0898,7.0898,7.0898,7.0898,7.0898,4.8616,0.0,0.0,0.0,0.0,0.0,0.0,0.0,0.0,0.0,0.0,0.0,0.0,0.0,0.0,0.0,0.0,3.9762,0.0,4.0774,0.0,0.0,0.0,0.0,0.0,4.9808,5.0479,5.0763,5.2183,5.3496,5.4556,5.5317,5.583,5.5941,5.5866,5.5787,5.5724,5.6802,5.7665,5.8319,5.9358,6.0204,6.0781,6.0781,6.0781,6.0781,6.0781,6.0781,6.0781,6.0781,6.0781,6.0781,6.0781,6.0781,6.0781,6.0781,6.0781,6.0781,6.0781,6.0781,6.0819,6.1089,6.2127,6.3358,6.3589,6.4705,6.5897,6.5897,6.5897,6.5897,6.5897,6.5897,6.5897,6.5897,6.5897,6.5897,6.5897,6.6513,6.7359,6.8244,6.909,6.9975,7.0744,7.0898,7.0898,7.0898,7.0898,7.0898,7.0898,7.0898,7.0898,7.0898,7.0898,7.0898,7.0898,7.0898,7.0898,7.0898,7.0898,7.0898,7.0898,7.0898,7.0898,7.0898,7.0898,7.0898,7.0898,7.0898,7.0898,7.0898,7.0898,7.0898,0.0,0.0,0.0,4.532,0.0,0.0,0.0,0.0,3.7443,0.0,0.0,0.0,0.0,0.0,0.0,0.0,0.0,0.0,0.0,0.0,0.0,0.0,0.0,0.0,0.0,4.8222,4.9139,0.0,5.0855,5.211,5.3728,5.4552,5.5292,5.6078,5.598,5.5847,5.5787,5.7418,5.828,5.8319,5.9973,6.0781,6.0781,6.0781,6.0781,6.0781,6.0781,6.0781,6.0781,6.0781,6.0781,6.0781,6.0781,6.0781,6.0781,6.0781,6.0781,6.0781,6.0781,6.0781,6.0935,6.1781,6.2627,6.3474,6.432,6.5205,6.5897,6.5897,6.5897,6.5897,6.5897,6.5897,6.5897,6.5897,6.5897,6.5897,6.5897,6.6513,6.7359,6.8244,6.909,6.9975,7.0744,7.0898,7.0898,7.0898,7.0898,7.0898,7.0898,7.0898,7.0898,7.0898,7.0898,7.0898,7.0898,7.0898,7.0898,7.0898,7.0898,7.0898,7.0898,7.0898,7.0898,7.0898,7.0898,7.0898,7.0898,7.0898,7.0898,7.0898,7.0898,7.0898,0.0,0.0,4.902,4.7849,0.0,0.0,0.0,0.0,0.0,0.0,0.0,0.0,0.0,0.0,0.0,0.0,0.0,0.0,0.0,0.0,0.0,0.0,0.0,0.0,0.0,0.0,0.0,4.7462,4.938,0.0,5.2133,5.3983,5.5112,5.5302,5.5685,5.6136,5.6673,5.7764,5.8588,5.9127,6.0242,6.0781,6.0781,6.0781,6.0781,6.0781,6.0781,6.0781,6.0781,6.0781,6.0781,6.0781,6.0781,6.0781,6.0781,6.0781,6.0781,6.0781,6.0781,6.0781,6.0935,6.182,6.2627,6.3474,6.4359,6.5205,6.5897,6.5897,6.5897,6.5897,6.5897,6.5897,6.5897,6.5897,6.5897,6.6051,6.659,6.7359,6.8205,6.909,6.9937,7.0591,7.086,7.0898,7.0898,7.0898,7.0898,7.0898,7.0898,7.0898,7.0898,7.0898,7.0898,7.0898,7.0898,7.0898,7.0898,7.0898,7.0898,7.0898,7.0898,7.0898,7.0898,7.0898,7.0898,7.0898,7.0898,7.0898,7.0898,7.0898,7.0898,7.0898,5.3672,5.2578,0.0,4.9648,4.7225,0.0,4.3915,0.0,4.2641,0.0,0.0,0.0,0.0,0.0,0.0,0.0,0.0,0.0,0.0,3.6843,0.0,0.0,0.0,0.0,0.0,0.0,4.4988,4.6206,4.8108,0.0,0.0,5.3501,5.4762,5.4932,5.5916,5.6691,5.7178,5.8294,5.9078,5.9534,6.0419,6.0804,6.0781,6.0781,6.0781,6.0781,6.0781,6.0781,6.0781,6.0781,6.0781,6.0781,6.0781,6.0781,6.0781,6.0781,6.0781,6.0781,6.0781,6.1012,6.1396,6.2243,6.3089,6.3935,6.4782,6.5436,6.5897,6.5897,6.5897,6.5897,6.5897,6.5897,6.5897,6.5897,6.5897,6.6128,6.6936,6.7782,6.8667,6.9513,7.036,7.0898,7.0898,7.0898,7.0898,7.0898,7.0898,7.0898,7.0898,7.0898,7.0898,7.0898,7.0898,7.0898,7.0898,7.0898,7.0898,7.0898,7.0898,7.0898,7.0898,7.0898,7.0898,7.0898,7.0898,7.0898,7.0898,7.0898,7.0898,7.0898,7.0898,7.0898]},{"header":{"parameterUnit":"m.s-1","parameterCategory":1,"la1":30.6,"la2":29.2853,"lo1":-89.7004,"lo2":-87.6739,"dy":0.0162,"dx":0.0183,"nx":112,"ny":82,"refTime":"2025-01-08T06:00:00:Z","depth":0,"parameterNumber":3,"parameterNumberName":"V-component_of_WINDS"},"data":[0.0,0.0,0.0,0.0,0.0,0.0,0.0,0.0,0.0,0.0,0.0,0.0,0.0,0.0,0.0,0.0,0.0,0.0,0.0,0.0,0.0,0.0,0.0,0.0,0.0,0.0,0.0,0.0,0.0,0.0,0.0,0.0,0.0,0.0,0.0,0.0,0.0,0.0,0.0,0.0,0.0,0.0,0.0,0.0,0.0,0.0,0.0,0.0,0.0,0.0,0.0,0.0,0.0,0.0,0.0,0.0,0.0,0.0,0.0,0.0,0.0,0.0,0.0,0.0,0.0,0.0,0.0,0.0,0.0,0.0,0.0,0.0,0.0,0.0,0.0,0.0,0.0,0.0,0.0,0.0,0.0,0.0,0.0,0.0,0.0,0.0,0.0,0.0,0.0,0.0,0.0,-1.3767,-1.2664,-1.1604,-1.0904,-0.9455,-0.8295,-0.7724,0.0,0.0,0.0,0.0,0.0,0.0,0.0,0.0,0.0,0.0,0.0,0.0,0.0,0.0,0.0,0.0,0.0,0.0,0.0,0.0,0.0,0.0,0.0,0.0,0.0,0.0,0.0,0.0,0.0,0.0,0.0,0.0,0.0,0.0,0.0,0.0,0.0,0.0,0.0,0.0,0.0,0.0,0.0,0.0,0.0,0.0,0.0,0.0,0.0,0.0,0.0,0.0,0.0,0.0,0.0,0.0,0.0,0.0,0.0,0.0,0.0,0.0,0.0,0.0,0.0,0.0,0.0,0.0,0.0,0.0,0.0,0.0,0.0,0.0,0.0,0.0,0.0,0.0,0.0,0.0,0.0,0.0,0.0,0.0,0.0,0.0,0.0,0.0,0.0,0.0,0.0,0.0,0.0,0.0,0.0,0.0,0.0,0.0,0.0,0.0,0.0,0.0,0.0,0.0,-1.4105,-1.4221,-1.2898,-1.174,-1.0922,-0.9471,-0.846,-0.7886,0.0,0.0,0.0,0.0,0.0,0.0,0.0,0.0,0.0,0.0,0.0,0.0,0.0,0.0,0.0,0.0,0.0,0.0,0.0,0.0,0.0,0.0,0.0,0.0,0.0,0.0,0.0,0.0,0.0,0.0,0.0,0.0,0.0,0.0,0.0,0.0,0.0,0.0,0.0,0.0,0.0,0.0,0.0,0.0,0.0,0.0,0.0,0.0,0.0,0.0,0.0,0.0,0.0,0.0,0.0,0.0,0.0,0.0,0.0,0.0,0.0,0.0,0.0,0.0,0.0,0.0,0.0,0.0,0.0,0.0,0.0,0.0,0.0,0.0,0.0,0.0,0.0,0.0,0.0,0.0,0.0,0.0,0.0,0.0,0.0,0.0,0.0,0.0,0.0,0.0,0.0,0.0,0.0,0.0,0.0,0.0,0.0,0.0,0.0,0.0,0.0,0.0,0.0,-1.3938,-1.4421,-1.4546,-1.3203,-1.1902,-1.0886,-0.9521,-0.8391,-0.7739,-0.7318,0.0,0.0,0.0,0.0,0.0,0.0,0.0,0.0,0.0,0.0,0.0,0.0,0.0,0.0,0.0,0.0,0.0,0.0,0.0,0.0,0.0,0.0,0.0,0.0,0.0,0.0,0.0,0.0,0.0,0.0,0.0,0.0,0.0,0.0,0.0,0.0,0.0,0.0,0.0,0.0,0.0,0.0,0.0,0.0,0.0,0.0,0.0,0.0,0.0,0.0,0.0,0.0,0.0,0.0,0.0,0.0,0.0,0.0,0.0,0.0,0.0,0.0,0.0,0.0,0.0,0.0,0.0,0.0,0.0,0.0,0.0,0.0,0.0,0.0,0.0,0.0,0.0,0.0,0.0,0.0,0.0,0.0,0.0,0.0,0.0,0.0,0.0,0.0,0.0,0.0,0.0,0.0,0.0,0.0,0.0,0.0,0.0,0.0,0.0,0.0,0.0,0.0,-1.4447,-1.4447,-1.4516,-1.3161,-1.193,-1.0778,-0.9411,-0.8391,-0.7645,-0.6977,0.0,0.0,0.0,0.0,0.0,0.0,0.0,0.0,0.0,0.0,0.0,0.0,0.0,0.0,0.0,0.0,0.0,0.0,0.0,0.0,0.0,0.0,0.0,0.0,0.0,0.0,0.0,0.0,0.0,0.0,0.0,0.0,0.0,0.0,0.0,0.0,0.0,0.0,0.0,0.0,0.0,0.0,0.0,0.0,0.0,0.0,0.0,0.0,0.0,0.0,0.0,0.0,0.0,0.0,0.0,0.0,0.0,0.0,0.0,0.0,0.0,0.0,0.0,0.0,0.0,0.0,0.0,0.0,0.0,0.0,0.0,0.0,0.0,0.0,0.0,0.0,0.0,0.0,0.0,0.0,0.0,0.0,0.0,0.0,0.0,0.0,0.0,0.0,0.0,0.0,0.0,0.0,0.0,0.0,0.0,0.0,0.0,0.0,0.0,0.0,0.0,0.0,-1.4328,-1.4223,-1.3851,-1.2822,-1.1717,-1.0446,-0.93,-0.8391,-0.7645,-0.6892,0.0,0.0,0.0,0.0,0.0,0.0,0.0,0.0,0.0,0.0,0.0,0.0,0.0,0.0,0.0,0.0,0.0,0.0,0.0,0.0,0.0,0.0,0.0,0.0,0.0,0.0,0.0,0.0,0.0,0.0,0.0,0.0,0.0,0.0,0.0,0.0,0.0,0.0,0.0,0.0,0.0,0.0,0.0,0.0,0.0,0.0,0.0,0.0,0.0,0.0,0.0,0.0,0.0,0.0,0.0,0.0,0.0,0.0,0.0,0.0,0.0,0.0,0.0,0.0,0.0,0.0,0.0,0.0,0.0,0.0,0.0,0.0,0.0,0.0,0.0,0.0,0.0,0.0,0.0,0.0,0.0,0.0,0.0,0.0,0.0,0.0,0.0,0.0,0.0,0.0,0.0,0.0,0.0,0.0,0.0,0.0,0.0,0.0,0.0,0.0,0.0,0.0,-1.4386,-1.4412,0.0,-1.2831,-1.1725,-1.0446,-0.9208,-0.8289,-0.7638,0.0,0.0,0.0,0.0,0.0,0.0,0.0,0.0,0.0,0.0,0.0,0.0,0.0,0.0,0.0,0.0,0.0,0.0,0.0,0.0,0.0,0.0,0.0,0.0,0.0,0.0,0.0,0.0,0.0,0.0,0.0,0.0,0.0,0.0,0.0,0.0,0.0,0.0,0.0,0.0,0.0,0.0,0.0,0.0,0.0,0.0,0.0,0.0,0.0,0.0,0.0,0.0,0.0,0.0,0.0,0.0,0.0,0.0,0.0,0.0,0.0,0.0,0.0,0.0,0.0,0.0,0.0,0.0,0.0,0.0,0.0,0.0,0.0,0.0,0.0,0.0,0.0,0.0,0.0,0.0,0.0,0.0,0.0,0.0,0.0,0.0,0.0,0.0,0.0,0.0,0.0,0.0,0.0,0.0,0.0,0.0,0.0,0.0,0.0,0.0,0.0,0.0,-1.3938,-1.437,-1.4404,0.0,-1.2713,-1.1614,-1.0446,-0.9152,-0.8228,-0.7638,0.0,0.0,0.0,0.0,0.0,0.0,0.0,0.0,0.0,0.0,0.0,0.0,0.0,0.0,0.0,0.0,0.0,0.0,0.0,0.0,0.0,0.0,0.0,0.0,0.0,0.0,0.0,0.0,0.0,0.0,0.0,0.0,0.0,0.0,0.0,0.0,0.0,0.0,0.0,0.0,0.0,0.0,0.0,0.0,0.0,0.0,0.0,0.0,0.0,0.0,0.0,0.0,0.0,0.0,0.0,0.0,0.0,0.0,0.0,0.0,0.0,0.0,0.0,0.0,0.0,0.0,0.0,0.0,0.0,0.0,0.0,0.0,0.0,0.0,0.0,0.0,0.0,0.0,0.0,0.0,0.0,0.0,0.0,0.0,0.0,0.0,0.0,0.0,0.0,0.0,0.0,0.0,0.0,0.0,0.0,0.0,0.0,0.0,0.0,0.0,0.0,0.0,-1.3964,-1.4272,-1.418,-1.3881,-1.2596,-1.1375,-1.0446,-0.9152,-0.8228,0.0,0.0,0.0,0.0,0.0,0.0,0.0,0.0,0.0,0.0,0.0,0.0,0.0,0.0,0.0,0.0,0.0,0.0,0.0,0.0,0.0,0.0,0.0,0.0,0.0,0.0,0.0,0.0,0.0,0.0,0.0,0.0,0.0,0.0,0.0,0.0,0.0,0.0,0.0,0.0,0.0,0.0,0.0,0.0,0.0,0.0,0.0,0.0,0.0,0.0,0.0,0.0,0.0,0.0,0.0,0.0,0.0,0.0,0.0,0.0,0.0,0.0,0.0,0.0,0.0,0.0,0.0,0.0,0.0,0.0,0.0,0.0,0.0,0.0,0.0,0.0,0.0,0.0,0.0,0.0,0.0,0.0,0.0,0.0,0.0,0.0,0.0,0.0,0.0,0.0,0.0,0.0,0.0,0.0,0.0,0.0,0.0,0.0,0.0,0.0,0.0,0.0,0.0,-1.3989,-1.4636,-1.4592,-1.3891,-1.2713,-1.1606,-1.0446,-0.9152,-0.8228,-0.7638,0.0,0.0,0.0,0.0,0.0,0.0,0.0,0.0,0.0,0.0,0.0,0.0,0.0,0.0,0.0,0.0,0.0,0.0,0.0,0.0,0.0,0.0,0.0,0.0,0.0,0.0,0.0,0.0,0.0,0.0,0.0,0.0,0.0,0.0,0.0,0.0,0.0,0.0,0.0,0.0,0.0,0.0,0.0,0.0,0.0,0.0,0.0,0.0,0.0,0.0,0.0,0.0,0.0,0.0,0.0,0.0,0.0,0.0,0.0,0.0,0.0,0.0,0.0,0.0,0.0,0.0,0.0,0.0,0.0,0.0,0.0,0.0,0.0,0.0,0.0,0.0,0.0,0.0,0.0,0.0,0.0,0.0,0.0,0.0,0.0,0.0,0.0,0.0,0.0,0.0,0.0,0.0,0.0,0.0,0.0,0.0,0.0,0.0,0.0,0.0,0.0,0.0,-1.418,-1.4795,-1.4886,-1.4241,-1.2949,-1.1725,-1.0562,-0.9318,-0.8296,-0.7638,0.0,0.0,0.0,0.0,0.0,0.0,0.0,0.0,0.0,0.0,0.0,0.0,0.0,0.0,0.0,0.0,0.0,0.0,0.0,0.0,0.0,0.0,0.0,0.0,0.0,0.0,0.0,0.0,0.0,0.0,0.0,0.0,0.0,0.0,0.0,0.0,0.0,0.0,0.0,0.0,0.0,0.0,0.0,0.0,0.0,0.0,0.0,0.0,0.0,0.0,0.0,0.0,0.0,0.0,0.0,0.0,0.0,0.0,0.0,0.0,0.0,0.0,0.0,0.0,0.0,0.0,0.0,0.0,0.0,0.0,0.0,0.0,0.0,0.0,0.0,0.0,0.0,0.0,0.0,0.0,0.0,0.0,0.0,0.0,0.0,0.0,0.0,0.0,0.0,0.0,0.0,0.0,0.0,0.0,0.0,0.0,0.0,0.0,0.0,0.0,0.0,0.0,-1.4346,-1.4896,-1.5115,-1.4703,-1.3184,-1.1852,-1.091,-0.9536,-0.8411,-0.7665,0.0,0.0,0.0,0.0,0.0,0.0,0.0,0.0,0.0,0.0,0.0,0.0,0.0,0.0,0.0,0.0,0.0,0.0,0.0,0.0,0.0,0.0,0.0,0.0,0.0,0.0,0.0,0.0,0.0,0.0,0.0,0.0,0.0,0.0,0.0,0.0,0.0,0.0,0.0,0.0,0.0,0.0,0.0,0.0,0.0,0.0,0.0,0.0,0.0,0.0,0.0,0.0,0.0,0.0,0.0,0.0,0.0,0.0,0.0,0.0,-0.5926,0.0,0.0,0.0,0.0,0.0,0.0,0.0,0.0,0.0,0.0,0.0,0.0,0.0,0.0,0.0,0.0,0.0,0.0,0.0,0.0,0.0,0.0,0.0,0.0,0.0,0.0,0.0,0.0,0.0,0.0,0.0,0.0,0.0,0.0,0.0,0.0,0.0,0.0,0.0,0.0,0.0,-1.4346,-1.5095,-1.5332,-1.4703,-1.3419,-1.209,-1.091,-0.9637,-0.8567,-0.7814,-0.7034,0.0,0.0,0.0,0.0,0.0,0.0,0.0,0.0,0.0,0.0,0.0,0.0,0.0,0.0,0.0,0.0,0.0,0.0,0.0,0.0,0.0,0.0,0.0,0.0,0.0,0.0,0.0,0.0,0.0,0.0,0.0,0.0,0.0,0.0,0.0,0.0,0.0,0.0,0.0,0.0,0.0,0.0,0.0,0.0,0.0,0.0,0.0,0.0,0.0,0.0,0.0,0.0,0.0,0.0,0.0,0.0,0.0,0.0,0.0,0.0,-0.6261,0.0,0.0,0.0,0.0,0.0,0.0,0.0,0.0,0.0,0.0,0.0,0.0,0.0,0.0,0.0,0.0,0.0,0.0,0.0,0.0,0.0,0.0,0.0,0.0,0.0,0.0,0.0,0.0,0.0,0.0,0.0,0.0,0.0,0.0,0.0,0.0,0.0,0.0,0.0,0.0,-1.4823,-1.5382,-1.5549,-1.5153,-1.3654,-1.2243,-1.1261,-0.9894,-0.8784,-0.8174,-0.7502,0.0,0.0,0.0,0.0,0.0,0.0,0.0,0.0,0.0,0.0,0.0,0.0,0.0,0.0,0.0,0.0,0.0,0.0,0.0,0.0,0.0,0.0,0.0,0.0,0.0,0.0,0.0,0.0,0.0,0.0,0.0,0.0,0.0,0.0,0.0,0.0,0.0,0.0,0.0,0.0,0.0,0.0,0.0,0.0,0.0,0.0,0.0,0.0,0.0,0.0,0.0,0.0,0.0,-0.8745,-0.8291,-0.7753,-0.778,-0.7855,-0.7936,-0.7421,-0.7,-0.6661,-0.6586,0.0,0.0,0.0,0.0,0.0,0.0,0.0,0.0,0.0,0.0,0.0,0.0,0.0,0.0,0.0,0.0,0.0,0.0,0.0,0.0,0.0,0.0,0.0,0.0,-1.4122,-1.3601,-1.2318,0.0,0.0,0.0,0.0,0.0,0.0,0.0,0.0,0.0,0.0,0.0,-1.5324,-1.5644,-1.5717,-1.5603,-1.3888,-1.2406,-1.1516,-1.0185,-0.9028,-0.8554,-0.8038,-0.7567,0.0,0.0,0.0,0.0,0.0,0.0,0.0,0.0,0.0,0.0,0.0,0.0,0.0,0.0,0.0,0.0,0.0,0.0,0.0,0.0,0.0,0.0,0.0,0.0,0.0,0.0,0.0,0.0,0.0,0.0,0.0,0.0,-0.5851,-0.6382,0.0,0.0,0.0,0.0,0.0,0.0,0.0,0.0,0.0,0.0,0.0,0.0,0.0,-1.1783,-1.1312,-1.1261,-1.064,-0.9421,-0.9431,-0.9065,-0.837,-0.8499,-0.8574,-0.8581,-0.837,0.0,-0.7421,-0.7027,0.0,0.0,0.0,0.0,0.0,0.0,0.0,0.0,0.0,0.0,0.0,0.0,0.0,0.0,0.0,0.0,0.0,0.0,0.0,0.0,0.0,0.0,-1.4816,-1.515,-1.519,-1.5044,0.0,-1.3454,-1.2412,-1.2078,-1.1597,0.0,0.0,0.0,0.0,0.0,0.0,0.0,-1.5618,-1.5931,-1.6026,-1.5625,-1.3888,-1.2406,-1.1516,-1.0281,-0.93,-0.8716,-0.8479,-0.8137,-0.7576,-0.7211,0.0,0.0,0.0,0.0,0.0,0.0,0.0,0.0,0.0,0.0,0.0,0.0,0.0,0.0,0.0,0.0,0.0,0.0,0.0,0.0,0.0,0.0,0.0,0.0,0.0,0.0,0.0,0.0,0.0,-0.6263,-0.6417,-0.6648,-0.7057,-0.7598,0.0,0.0,0.0,0.0,0.0,0.0,0.0,0.0,0.0,-1.0098,-1.0886,-1.1161,-1.0771,-1.0875,-1.0506,-0.9739,-0.9675,-0.9347,-0.8988,-0.9055,-0.9089,-0.9083,-0.8927,-0.8669,-0.8303,-0.7678,-0.7339,-0.7163,0.0,0.0,0.0,0.0,-0.6722,-0.6966,-0.6878,-0.7118,-0.7469,-0.7835,0.0,0.0,0.0,0.0,0.0,0.0,0.0,0.0,0.0,0.0,-1.5292,-1.5383,-1.5447,-1.5312,-1.5101,-1.4251,-1.3506,0.0,-1.2719,-1.2331,-1.2024,0.0,0.0,0.0,0.0,-1.4937,-1.5952,-1.6185,-1.6062,-1.5625,-1.3888,-1.2449,-1.1766,-1.0368,-0.9462,-0.911,-0.8866,-0.8479,-0.7993,-0.7595,-0.7505,0.0,0.0,0.0,0.0,0.0,0.0,0.0,0.0,0.0,0.0,0.0,0.0,0.0,0.0,0.0,0.0,0.0,0.0,0.0,0.0,0.0,0.0,0.0,0.0,0.0,0.0,0.0,0.0,-0.6738,-0.7001,-0.7037,-0.7589,-0.8024,0.0,0.0,0.0,0.0,0.0,0.0,-0.9089,-0.9418,-0.9711,-0.9747,-1.0381,-1.0567,-1.0355,-1.0445,-1.0331,-0.9902,-0.9717,-0.9564,-0.9442,-0.9442,-0.9442,-0.9429,-0.9279,-0.915,-0.8994,-0.8275,-0.7902,-0.7733,-0.736,-0.7278,-0.736,-0.7251,-0.738,-0.7584,-0.7468,-0.7616,-0.8001,-0.8398,-0.9276,-1.0289,-1.1005,0.0,0.0,0.0,0.0,-1.4163,-1.4484,-1.4996,-1.5345,-1.534,-1.5287,-1.5185,-1.4993,-1.4524,-1.4064,0.0,-1.3509,-1.3225,-1.316,0.0,0.0,0.0,0.0,-1.5511,-1.638,-1.6411,-1.6133,-1.5625,-1.3888,-1.2475,-1.1881,-1.0405,-0.9544,-0.9395,-0.9137,-0.8791,-0.8343,-0.797,-0.7838,-0.7835,0.0,0.0,0.0,0.0,0.0,0.0,0.0,0.0,0.0,0.0,0.0,0.0,0.0,0.0,0.0,0.0,0.0,0.0,0.0,0.0,0.0,0.0,0.0,0.0,0.0,0.0,0.0,0.0,0.0,-0.7781,-0.8131,0.0,0.0,0.0,0.0,-1.0009,-0.9839,-0.9579,-0.9204,-0.9408,-0.9584,-0.96,-1.0421,-1.0699,-1.0362,-1.0646,-1.0394,-0.9831,-0.987,-0.9822,-0.9598,-0.9598,-0.9598,-0.9591,-0.9435,-0.9367,-0.9313,-0.8703,-0.8364,-0.8221,-0.8052,-0.7991,-0.7991,-0.7984,-0.8085,-0.8228,-0.8214,-0.8303,-0.8605,-0.9165,-1.0556,-1.2098,-1.2415,-1.3421,0.0,0.0,-1.4481,-1.4912,-1.4654,-1.485,-1.5024,-1.5035,-1.4827,-1.4619,-1.4619,-1.431,-1.4171,0.0,-1.3944,-1.3486,-1.3983,0.0,-1.4038,-1.5177,-1.5578,-1.6099,-1.6994,-1.6813,-1.6334,-1.5648,-1.3888,-1.2475,-1.1881,-1.0405,-0.9544,-0.9395,-0.9232,-0.894,-0.8492,-0.8323,-0.8174,-0.8009,-0.8229,0.0,0.0,0.0,0.0,0.0,0.0,0.0,0.0,0.0,0.0,0.0,0.0,0.0,0.0,0.0,0.0,0.0,0.0,0.0,0.0,0.0,0.0,0.0,0.0,0.0,0.0,0.0,0.0,-0.8109,-0.857,0.0,-0.9244,-0.994,-1.0314,-1.0053,-1.0137,-0.9949,-0.9518,-0.9595,-0.9521,-0.9503,-0.9889,-1.0033,-0.9916,-1.0165,-1.0172,-0.993,-1.0088,-1.0115,-0.989,-0.989,-0.9836,-0.9741,-0.9686,-0.9612,-0.951,-0.9293,-0.9062,-0.8825,-0.8676,-0.856,-0.8472,-0.8472,-0.8567,-0.8689,-0.8587,-0.8648,-0.8845,-0.9638,-1.068,-1.1764,-1.2579,-1.3314,-1.3788,-1.3888,-1.4027,-1.4185,-1.3865,-1.4002,-1.4029,-1.3485,-1.327,-1.3056,-1.2744,-1.2472,-1.2372,-1.2833,-1.3344,-1.3788,-1.4334,-1.4201,-1.428,-1.5042,-1.5699,-1.6281,-1.678,-1.6742,-1.6346,-1.5648,-1.3888,-1.2431,-1.1717,-1.0346,-0.9503,-0.9252,-0.9096,-0.8852,-0.8499,-0.8343,-0.8301,-0.836,-0.8456,-0.8783,0.0,0.0,0.0,0.0,0.0,0.0,0.0,0.0,0.0,0.0,0.0,0.0,0.0,0.0,0.0,0.0,0.0,0.0,0.0,0.0,0.0,0.0,0.0,0.0,0.0,0.0,-0.869,-0.8598,-0.8888,-0.921,-0.9366,-1.0084,-1.0414,-1.019,-1.0214,-1.0062,-0.9674,-0.9631,-0.9613,-0.9523,-0.968,-0.9781,-0.9836,-1.0032,-1.0127,-1.0127,-1.0229,-1.0229,-1.0127,-1.0127,-1.0073,-0.9971,-0.9924,-0.9842,-0.9754,-0.97,-0.9557,-0.9361,-0.9164,-0.9028,-0.8933,-0.8933,-0.9001,-0.9076,-0.8974,-0.9001,-0.9279,-1.0046,-1.0791,-1.17,-1.276,-1.3236,-1.3393,-1.3602,-1.3614,-1.3412,-1.3082,-1.2969,-1.2861,-1.2318,-1.1991,-1.1773,-1.1345,-1.1133,-1.1147,-1.1791,-1.2597,-1.338,-1.4068,-1.4219,-1.4389,-1.506,-1.5808,-1.6458,-1.6847,-1.6792,-1.6458,-1.5648,-1.4122,-1.2636,-1.1635,-1.0384,-0.9518,-0.9096,-0.894,-0.8723,-0.8425,-0.8323,-0.8385,-0.8437,-0.8706,-0.9165,-0.9806,0.0,0.0,0.0,0.0,0.0,0.0,0.0,0.0,0.0,0.0,0.0,0.0,0.0,0.0,0.0,0.0,0.0,0.0,0.0,0.0,0.0,0.0,0.0,-0.9279,-0.9225,-0.9288,-0.9287,-0.9169,-0.9327,-0.9706,-0.9941,-1.0231,-1.0408,-1.0092,-0.9938,-0.9859,-0.9669,-0.9693,-0.9829,-0.9978,-1.0127,-1.0276,-1.0283,-1.029,-1.029,-1.029,-1.029,-1.029,-1.029,-1.0283,-1.027,-1.012,-1.0053,-1.0039,-0.989,-0.9822,-0.9795,-0.9503,-0.9395,-0.9388,-0.9388,-0.9388,-0.9388,-0.9388,-0.962,-0.9845,-1.0532,-1.1216,-1.1966,-1.2748,-1.3157,-1.3207,-1.3227,-1.3009,-1.2792,-1.2455,-1.191,-1.1581,-1.1573,-1.1135,-1.0696,-1.0688,-1.0688,-1.0798,-1.1455,-1.1797,-1.2339,-1.3141,-1.3766,-1.447,-1.5243,-1.5915,0.0,-1.7134,-1.7123,-1.667,-1.5761,-1.4463,-1.3104,-1.1626,-1.0514,-0.9595,-0.8947,-0.8784,-0.8574,-0.8282,-0.8269,-0.8227,-0.8215,-0.9021,-0.9708,-1.0315,0.0,0.0,0.0,0.0,0.0,0.0,0.0,0.0,0.0,0.0,0.0,0.0,0.0,0.0,0.0,0.0,0.0,0.0,0.0,0.0,0.0,-0.983,-0.9699,-0.9222,-0.9506,-0.961,-0.9327,-0.9482,-0.966,-0.971,-1.0163,-1.0412,-1.0339,-1.0343,-1.0236,-1.0149,-1.0073,-1.0114,-1.0154,-1.0195,-1.0236,-1.0283,-1.0385,-1.0432,-1.0432,-1.0548,-1.0541,-1.0432,-1.0432,-1.0378,-1.0276,-1.0236,-1.0154,-1.0046,-1.0005,-0.9924,-0.9815,-0.9734,-0.9639,-0.9544,-0.9544,-0.9544,-0.9544,-0.9544,-0.9544,-0.9648,-0.9997,-1.0386,-1.0799,-1.1486,-1.1671,-1.175,-1.1977,-1.1864,-1.1524,-1.1183,-1.098,-1.0667,-1.0212,-0.9898,-0.9706,-0.9485,-0.9375,-0.9485,-0.9926,-1.0288,-1.0923,-1.247,-1.287,-1.3205,-1.4118,-1.4907,0.0,-1.6418,-1.6698,-1.657,-1.5997,-1.459,-1.3168,-1.1794,-1.0562,-0.9546,-0.8798,-0.8628,-0.8465,-0.8275,-0.816,-0.8308,-0.869,-0.9494,-1.0267,0.0,0.0,0.0,0.0,0.0,0.0,0.0,0.0,0.0,0.0,0.0,0.0,0.0,0.0,0.0,0.0,0.0,0.0,0.0,0.0,0.0,0.0,-1.0079,-0.9928,-0.9493,-0.964,-0.9809,-0.9724,-0.9806,-0.9849,-0.9981,-1.02,-1.0414,-1.0253,-1.0343,-1.0433,-1.0276,-1.0283,-1.031,-1.0365,-1.0371,-1.0399,-1.0466,-1.0548,-1.0588,-1.0588,-1.0677,-1.067,-1.0588,-1.0588,-1.0541,-1.046,-1.0399,-1.0317,-1.0229,-1.0168,-1.0053,0.0,0.0,0.0,0.0,0.0,-0.97,-0.97,-0.97,-0.97,-0.9686,-0.9947,-1.0112,-1.0288,-1.0872,-1.0933,-1.0878,-1.1101,-1.0985,-1.0763,-1.0532,-1.0348,-1.0167,-0.9817,-0.9469,-0.9252,-0.9028,-0.8981,-0.9051,-0.9375,-0.9485,0.0,-1.1199,-1.1818,-1.2354,-1.3113,-1.418,-1.5171,-1.615,-1.6759,-1.6843,-1.6374,-1.5226,-1.3769,-1.2052,-1.0917,0.0,0.0,0.0,-0.8513,-0.8364,-0.8275,0.0,0.0,0.0,0.0,0.0,0.0,0.0,0.0,-1.3382,-1.3788,0.0,0.0,0.0,0.0,0.0,0.0,0.0,0.0,0.0,0.0,0.0,0.0,0.0,0.0,0.0,0.0,-1.0149,-1.0132,-0.9898,-0.9809,-0.9795,-1.0236,-0.9971,-0.9978,-1.0256,-1.0297,-1.0304,-1.0304,-1.0324,-1.0331,-1.0331,0.0,0.0,0.0,0.0,-1.0582,-1.0717,-1.0717,-1.0717,-1.0717,-1.0717,-1.0717,-1.0717,-1.0717,-1.0717,-1.0711,-1.0575,-1.0507,-1.048,-1.0358,-1.0215,-1.0059,-0.989,-0.9822,-0.9822,-0.9822,-0.9822,-0.9822,-0.9822,0.0,0.0,-1.0186,-1.0095,-1.0101,-1.0695,-1.059,-1.0237,-1.0585,-1.0469,-1.0237,-1.0237,-0.9997,-0.975,-0.975,-0.9516,-0.9178,-0.9178,-0.9062,-0.9071,-0.9293,-0.9389,-0.9375,-0.9706,-1.0688,-1.1564,-1.2219,-1.3542,-1.4831,-1.6138,-1.6993,-1.7278,-1.6712,0.0,0.0,-1.2199,-1.1346,-1.0303,-0.8981,-0.8818,-0.8676,-0.854,-0.8533,-0.8646,-0.8962,-0.9546,-1.0382,-1.1522,-1.2552,-1.3865,-1.5208,-1.5369,-1.5565,0.0,0.0,0.0,0.0,0.0,0.0,0.0,0.0,0.0,0.0,0.0,0.0,0.0,0.0,0.0,-0.9928,-0.9828,-0.9894,-1.0184,-1.0003,-0.9813,-0.993,-1.0039,-1.0215,-1.0276,-1.0385,-1.0453,-1.0453,-1.0568,-1.0636,-1.0636,-1.0636,-1.0649,-1.0677,-1.0677,-1.069,-1.0717,-1.0717,-1.0717,-1.0717,0.0,0.0,-1.0717,-1.0717,-1.0717,-1.0717,-1.069,-1.0609,-1.0487,-1.046,-1.0365,-1.0209,-0.993,-0.9822,-0.9822,-0.9822,-0.9822,-0.9822,-0.9822,-0.9822,-0.9822,-0.9822,-0.9923,-0.9902,-1.0023,-0.9995,0.0,-0.9975,-0.9975,-0.9854,-0.9854,-0.9772,-0.9683,-0.9683,-0.9449,-0.934,-0.934,-0.9218,-0.911,-0.9222,-0.9126,-0.9051,-0.9044,-0.9706,-1.0468,-1.1564,-1.2578,-1.3799,-1.5713,-1.6706,-1.7146,-1.6966,-1.6143,-1.4765,-1.256,-1.1577,-1.0484,-0.9243,-0.8974,-0.8879,-0.8852,-0.8852,-0.8961,-0.918,-0.9798,-1.0816,-1.2165,-1.3227,-1.4516,-1.5944,-1.6036,-1.6394,0.0,0.0,0.0,0.0,0.0,0.0,0.0,0.0,0.0,0.0,0.0,-0.8901,-0.9259,0.0,-0.975,-0.9968,-0.9938,-1.0044,-1.0272,-1.026,-1.0154,-1.0154,-1.029,-1.0419,-1.0493,-1.0561,-1.0609,-1.0609,-1.0677,-1.0717,-1.0717,-1.0717,-1.0717,-1.0717,-1.0717,-1.0717,-1.0717,-1.0717,-1.0717,-1.0717,-1.0717,-1.0717,-1.0717,-1.0717,-1.0717,-1.0717,-1.0717,-1.0677,-1.0602,-1.0521,-1.0453,-1.0365,-1.0141,-1.0053,-1.0053,-1.0053,-1.0005,-0.9937,-0.9937,-0.9883,-0.9822,-0.9822,-0.9822,-0.9822,-0.9822,-0.9822,-0.9822,-0.9822,-0.9822,-0.9822,-0.9822,-0.9768,-0.9713,-0.9713,-0.9605,-0.9496,-0.9496,-0.9374,-0.9266,-0.9266,-0.9211,-0.9157,-0.9157,-0.9384,-1.0032,-1.1167,-1.2199,-1.3718,-1.5749,-1.6798,-1.7371,-1.7274,-1.6563,-1.5161,-1.2812,-1.1193,-1.0098,-0.9394,-0.9198,-0.9157,-0.9157,-0.9232,-0.9273,-0.9502,-1.0033,-1.0802,-1.2043,-1.3096,-1.4477,-1.632,-1.6843,-1.7296,0.0,0.0,0.0,0.0,0.0,0.0,0.0,0.0,-0.7753,-0.8087,-0.8489,-0.887,-0.9248,-0.9488,-0.9596,-0.9924,-1.0087,-1.025,-1.0313,-1.039,-1.05,-1.0534,-1.0534,-1.0582,-1.0711,-1.0717,-1.0717,-1.0717,-1.0717,-1.0717,-1.0717,-1.0717,-1.0717,-1.0717,-1.0717,-1.0717,-1.0717,-1.0717,-1.0717,-1.0717,-1.0717,-1.0717,-1.0717,-1.0717,-1.0717,-1.0717,-1.0717,-1.0717,-1.0711,-1.0588,-1.0534,-1.0527,-1.0412,-1.0365,-1.0358,-1.0304,-1.0202,-1.0093,-1.0093,-0.9992,-0.9863,-0.9863,-0.9842,-0.9822,-0.9822,-0.9822,-0.9822,-0.9822,-0.9822,-0.9822,-0.9822,-0.9822,-0.9822,-0.9822,-0.9734,-0.9652,-0.9652,-0.953,-0.9422,-0.9422,-0.9401,-0.9381,-0.9381,-0.9408,-0.9831,-1.0803,-1.2065,-1.3624,-1.5781,-1.6887,-1.7493,-1.7527,-1.6949,-1.5536,-1.2829,-1.0891,-0.9686,-0.9564,-0.9557,-0.9557,-0.9557,-0.9673,-0.9741,-0.9741,-1.0214,-1.0767,-1.1614,-1.2587,-1.4115,-1.6122,-1.726,-1.8126,-0.6437,-0.6471,0.0,-0.6763,-0.7041,-0.7361,0.0,0.0,-0.8247,-0.8601,-0.8888,-0.922,-0.924,-0.9553,-0.9743,-0.982,-0.9903,-1.0114,-1.0378,-1.046,-1.0541,-1.0677,-1.0697,-1.0704,-1.0717,-1.0717,-1.0717,-1.0717,-1.0717,-1.0717,-1.0717,-1.0717,-1.0717,-1.0717,-1.0717,-1.0717,-1.0717,-1.0717,-1.0717,-1.0717,-1.0717,-1.0717,-1.0717,-1.0717,-1.0717,-1.0717,-1.0717,-1.0717,-1.0717,-1.0704,-1.0697,-1.0697,-1.0677,-1.067,-1.0636,-1.0378,-1.027,-1.0256,-1.0256,-1.0154,-1.0025,-1.0025,-0.993,-0.9822,-0.9822,-0.9822,-0.9822,-0.9822,-0.9822,-0.9822,-0.9822,-0.9822,-0.9822,-0.9822,-0.9808,-0.9795,-0.9795,-0.9686,-0.9585,-0.9585,-0.9476,-0.9381,-0.9381,-0.9496,-0.9884,-1.0647,-1.1803,-1.3217,-1.5109,-1.6588,-1.7539,-1.7446,-1.6989,-1.5603,-1.2582,-1.1092,-1.0195,-1.0181,-1.0181,-1.0181,-1.0181,-1.0195,-1.0202,-1.0202,-1.0601,-1.0861,-1.1232,-1.2607,-1.3867,-1.4873,-1.7088,-1.8667,-0.6776,0.0,0.0,0.0,-0.7475,-0.776,-0.7856,-0.8089,-0.848,-0.8836,-0.8983,-0.9085,-0.9367,-0.9614,-0.9827,0.0,-1.0154,-1.0351,-1.0473,-1.0568,-1.0649,-1.0711,-1.0717,-1.0717,-1.0717,-1.0717,-1.0717,-1.0717,-1.0717,-1.0717,-1.0717,-1.0717,-1.0717,-1.0717,-1.0717,-1.0717,-1.0717,-1.0717,-1.0717,-1.0717,-1.0717,-1.0717,-1.0717,-1.0717,-1.0717,-1.0717,-1.0717,-1.0717,-1.0717,-1.0717,-1.0717,-1.0717,-1.0717,-1.0717,-1.0704,-1.0582,-1.048,-1.0405,-1.0405,-1.0304,-1.0181,-1.0181,-1.008,-0.9951,-0.9951,-0.989,-0.9822,-0.9822,-0.9822,-0.9822,-0.9822,-0.9822,-0.9822,-0.9822,-0.9822,-0.9822,-0.9822,-0.9774,-0.9734,-0.9734,-0.968,-0.9639,-0.9639,-0.9693,-0.9827,-1.0354,-1.147,-1.3067,-1.4969,-1.6357,-1.7086,-1.7108,-1.5648,-1.407,-1.2406,-1.1031,-1.0283,-1.0283,-1.0283,-1.0283,-1.0283,-1.0358,-1.0405,-1.0405,-1.0623,-1.0925,-1.1185,-1.2216,-1.35,-1.4904,-1.6669,-1.8324,-0.7129,0.0,0.0,-0.7529,-0.7862,-0.816,-0.816,-0.8391,-0.8669,-0.8893,-0.9035,-0.9225,-0.9551,-0.9727,-0.9883,-1.008,-1.0297,-1.046,-1.0541,-1.0649,-1.0704,-1.0663,-1.0697,-1.0704,-1.0663,-1.0697,-1.0717,-1.0717,-1.0717,-1.0717,-1.0717,-1.0717,-1.0717,-1.0717,-1.0717,-1.0717,-1.0717,-1.0717,-1.0717,-1.0717,-1.0717,-1.0717,-1.0717,-1.0717,-1.0717,-1.0717,-1.0717,-1.0717,-1.0717,-1.0717,-1.0717,-1.0717,-1.0717,-1.0717,-1.0717,-1.0717,-1.0649,-1.0555,-1.0555,-1.046,-1.0337,-1.0337,-1.0236,-1.0114,-1.0114,-1.0039,-0.9951,-0.9951,-0.9951,-0.9937,-0.9897,-0.9883,-0.9876,-0.9829,-0.9822,-0.9822,-0.9822,-0.9822,-0.9822,-0.9822,-0.9822,-0.9836,-0.9876,-0.9883,-1.0019,-1.0429,-1.1294,-1.2612,-1.437,-1.5825,-1.6686,-1.6626,-1.4556,-1.3071,-1.2306,-1.117,-1.0399,-1.0399,-1.0399,-1.0399,-1.0399,-1.05,-1.0555,-1.0555,-1.0663,-1.085,-1.1115,-1.1909,-1.3087,-1.452,-1.6213,-1.7776,0.0,0.0,-0.8011,-0.8018,-0.8241,-0.8465,-0.8465,-0.8703,-0.8927,-0.894,-0.9286,-0.9591,-0.9605,-0.9727,-0.9917,-1.0222,-1.0283,-1.0385,-1.067,-1.0717,-1.0663,-1.0514,-1.0629,-1.0663,0.0,-1.0629,-1.0717,-1.0717,-1.0717,-1.0717,-1.0717,-1.0717,-1.0717,-1.0717,-1.0717,-1.0717,-1.0717,-1.0717,-1.0717,-1.0717,-1.0717,-1.0717,-1.0717,-1.0717,-1.0717,-1.0717,-1.0717,-1.0717,-1.0717,-1.0717,-1.0717,-1.0717,-1.0717,-1.0717,-1.0717,-1.0717,-1.0717,-1.0711,-1.0711,-1.0616,-1.0487,-1.0487,-1.0392,-1.0276,-1.0276,-1.027,-1.0263,-1.0263,-1.0263,-1.0236,-1.008,-1.0039,-1.0005,-0.9856,-0.9822,-0.9822,-0.9822,-0.9822,-0.9822,-0.9822,-0.9822,-0.9869,-1.0019,-1.0039,-1.0218,-1.0749,-1.1024,-1.1838,-1.3382,-1.5087,-1.6118,-1.5991,-1.4382,-1.307,-1.2421,-1.1365,-1.0704,-1.0704,-1.0704,-1.0704,-1.0704,-1.0711,-1.0711,-1.0711,-1.0717,-1.0717,-1.0717,-1.1776,-1.27,-1.3473,-1.5824,-1.7518,0.0,0.0,-0.8085,-0.8282,-0.856,-0.8784,-0.8784,-0.9015,-0.9232,-0.9232,-0.9354,-0.9456,-0.9456,-0.9659,-0.989,-1.0093,-1.029,-1.0493,-1.069,-1.0717,-1.0704,-1.0649,-1.069,0.0,0.0,0.0,0.0,-1.0717,-1.0717,-1.0717,-1.0717,-1.0717,-1.0717,-1.0717,-1.0717,-1.0717,-1.0717,-1.0717,-1.0717,-1.0717,-1.0717,-1.0717,-1.0717,-1.0717,-1.0717,-1.0717,-1.0717,-1.0717,-1.0717,-1.0717,-1.0717,-1.0717,-1.0717,-1.0717,-1.0717,-1.0717,-1.0717,-1.0717,-1.0717,-1.0683,-1.0643,-1.0643,-1.0541,-1.0419,-1.0419,-1.0351,-1.0283,-1.0283,-1.0283,-1.027,-1.0215,-1.0202,-1.0188,-1.0134,-1.0127,-1.0127,-1.0127,-1.0127,-1.0127,-1.0127,-1.0127,-1.0141,-1.0195,-1.0202,-1.0349,-1.0777,-1.1538,-1.2557,-1.3753,-1.4642,-1.5169,-1.5306,-1.3953,-1.2824,-1.2305,-1.138,-1.0717,-1.0717,-1.0717,-1.0717,-1.0717,-1.0717,-1.0717,-1.0717,-1.0717,-1.0717,-1.0717,-1.1247,-1.2165,-1.3341,-1.4912,-1.6602,0.0,-0.8241,-0.8404,-0.8594,-0.8872,-0.9096,-0.9096,-0.9245,-0.9381,-0.9381,-0.9381,-0.9381,-0.9381,-0.9578,-0.9815,-1.0019,-1.0256,-1.0487,-1.069,-1.0717,-1.0697,-1.0643,-1.0683,-1.0697,0.0,0.0,0.0,-1.0717,-1.0717,-1.0717,-1.0717,-1.0717,-1.0717,-1.0717,-1.0717,-1.0717,-1.0717,-1.0717,-1.0717,-1.0717,-1.0717,-1.0717,-1.0717,-1.0717,-1.0717,-1.0717,-1.0717,-1.0717,-1.0717,-1.0717,-1.0717,-1.0717,-1.0717,-1.0717,-1.0717,-1.0717,-1.0717,-1.0717,-1.0717,-1.0717,-1.0717,-1.0717,-1.0656,-1.0575,-1.0575,-1.0507,-1.0439,-1.0439,-1.0439,-1.0426,-1.0371,-1.0358,-1.0344,-1.029,-1.0283,-1.0283,-1.0283,-1.0283,-1.0283,-1.0283,-1.0283,-1.0297,-1.0344,-1.0399,-1.0568,-1.0697,-1.1585,-1.2499,-1.3448,-1.3775,-1.3994,-1.411,-1.3079,-1.2297,-1.1909,-1.1115,-1.0717,-1.0717,-1.0717,-1.0717,-1.0717,-1.0717,-1.0717,-1.0717,-1.0717,-1.0717,-1.0717,-1.0982,-1.1901,-1.321,-1.439,-1.6073,-0.8255,-0.8615,-0.894,-0.896,-0.9178,-0.9388,-0.9381,-0.9388,-0.9388,-0.9361,-0.9361,-0.9354,0.0,0.0,-0.9686,-0.9992,-1.0175,-1.0385,-1.0677,-1.0717,-1.0663,0.0,0.0,0.0,0.0,0.0,0.0,-1.0717,0.0,-1.0717,-1.0717,-1.0717,-1.0717,-1.0717,-1.0717,-1.0717,-1.0717,-1.0717,-1.0717,-1.0717,-1.0717,-1.0717,-1.0717,-1.0717,-1.0717,-1.0717,-1.0717,-1.0717,-1.0717,-1.0717,-1.0717,-1.0717,-1.0717,-1.0717,-1.0717,-1.0717,-1.0717,-1.0717,-1.0717,-1.0717,-1.0717,-1.0717,-1.0717,-1.0717,-1.0717,-1.0717,-1.0717,-1.0717,-1.0717,-1.0683,-1.0541,-1.0507,-1.0466,-1.0337,-1.0304,-1.0304,-1.0304,-1.0304,-1.0304,-1.0304,-1.0304,-1.0344,-1.048,-1.0622,-1.0717,-1.0717,-1.0982,-1.1461,-1.2467,-1.2718,-1.2684,-1.2684,-1.2173,-1.1644,-1.1247,-1.085,-1.0717,-1.0717,-1.0717,-1.0717,-1.0717,-1.0717,-1.0717,-1.0717,-1.0717,-1.0717,-1.0717,-1.0982,-1.1769,-1.2816,-1.4259,-1.5954,-0.8635,-0.8852,-0.8994,-0.9211,-0.9408,-0.9523,-0.9408,-0.9469,-0.9456,-0.9123,-0.9049,-0.9015,0.0,0.0,0.0,-0.9815,-1.0107,0.0,-1.0677,-1.0717,0.0,0.0,0.0,-1.0704,-1.0663,-1.0697,0.0,0.0,-1.0717,-1.0717,-1.0717,-1.0717,-1.0717,-1.0717,-1.0717,-1.0717,-1.0717,-1.0717,-1.0717,-1.0717,-1.0717,-1.0717,-1.0717,-1.0717,-1.0717,-1.0717,-1.0717,-1.0717,-1.0717,-1.0717,-1.0717,-1.0717,-1.0717,-1.0717,-1.0717,-1.0717,-1.0717,-1.0717,-1.0717,-1.0717,-1.0717,-1.0717,-1.0717,-1.0717,-1.0717,-1.0717,-1.0717,-1.0717,-1.0717,-1.0711,-1.067,-1.0663,-1.0656,-1.0616,-1.0609,-1.0609,-1.0609,-1.0609,-1.0609,-1.0609,-1.0609,-1.0622,-1.0656,-1.0697,-1.0717,-1.0717,-1.0717,-1.0969,-1.1454,-1.1878,-1.2041,-1.2041,-1.1644,-1.1247,-1.1247,-1.085,-1.0717,-1.0717,-1.0717,-1.0717,-1.0717,-1.0717,-1.0717,-1.0717,-1.0717,-1.0717,-1.0717,-1.085,-1.1505,-1.2816,-1.3735,-1.5564,-0.8845,-0.9083,-0.9273,-0.9442,-0.9544,-0.9585,-0.9503,-0.9395,-0.9245,-0.8988,-0.8832,0.0,0.0,0.0,0.0,0.0,0.0,0.0,-1.0575,-1.0677,-1.0717,0.0,-1.0717,0.0,-1.0717,-1.0717,-1.0717,0.0,-1.0717,-1.0717,-1.0717,-1.0717,-1.0717,-1.0717,-1.0717,-1.0717,-1.0717,-1.0717,-1.0717,-1.0717,-1.0717,-1.0717,-1.0717,-1.0717,-1.0717,-1.0717,0.0,-1.0717,-1.0717,-1.0717,-1.0717,-1.0717,-1.0717,-1.0717,-1.0717,-1.0717,-1.0717,-1.0717,-1.0717,-1.0717,-1.0717,-1.0717,-1.0717,-1.0717,-1.0717,-1.0717,-1.0717,-1.0717,-1.0717,-1.0717,-1.0717,-1.0717,-1.0717,-1.0717,-1.0717,-1.0717,-1.0717,-1.0717,-1.0717,-1.0717,-1.0717,-1.0717,-1.0717,-1.0717,-1.0717,-1.0717,-1.0717,-1.0717,-1.0982,-1.1115,-1.138,-1.138,-1.1115,-1.0982,-1.0982,-1.085,-1.0717,-1.0717,-1.0717,-1.0717,-1.0717,-1.0717,-1.0751,-1.0819,-1.0819,-1.0853,-1.0914,-1.0914,-1.1716,-1.3059,-1.3729,-1.5585,-0.9008,-0.9313,-0.9612,-0.9632,-0.9625,-0.9598,-0.9557,-0.9232,-0.892,-0.8866,0.0,0.0,-0.8452,0.0,-0.9008,-0.9327,0.0,-1.0154,-1.0446,-1.0622,-1.0717,-1.0717,-1.0717,-1.0717,-1.0717,-1.0717,-1.0717,-1.0717,-1.0717,-1.0717,-1.0717,-1.0717,-1.0717,-1.0717,-1.0717,-1.0717,-1.0717,-1.0717,-1.0717,-1.0717,-1.0717,-1.0717,-1.0717,-1.0717,-1.0717,-1.0717,-1.0717,-1.0717,-1.0717,-1.0717,-1.0717,-1.0717,-1.0717,-1.0717,-1.0717,-1.0717,-1.0717,-1.0717,-1.0717,-1.0717,-1.0717,-1.0717,-1.0717,-1.0717,-1.0717,-1.0717,-1.0717,-1.0717,-1.0717,-1.0717,-1.0717,-1.0717,-1.0717,-1.0717,-1.0717,-1.0717,-1.0717,-1.0717,-1.0717,-1.0717,-1.0717,-1.0717,-1.0717,-1.0717,-1.0717,-1.0717,-1.0717,-1.0717,-1.0717,-1.0717,-1.0717,-1.0717,-1.0717,-1.0717,-1.0717,-1.0717,-1.0731,-1.0751,-1.0751,-1.0758,-1.0778,-1.0778,-1.0839,-1.0975,-1.0975,-1.1036,-1.1165,-1.1165,-1.1993,-1.3368,-1.4045,-1.5934,-0.9395,-0.9551,-0.9639,-0.9754,-0.9693,-0.9544,-0.9293,-0.9076,0.0,0.0,0.0,-0.8309,-0.8309,-0.8554,0.0,-0.9313,0.0,0.0,0.0,0.0,-1.0717,0.0,0.0,0.0,0.0,0.0,0.0,0.0,-1.0717,-1.0717,-1.0717,-1.0717,-1.0717,-1.0717,-1.0717,-1.0717,-1.0717,-1.0717,-1.0717,-1.0717,-1.0717,-1.0717,-1.0717,-1.0717,-1.0717,-1.0717,-1.0717,0.0,-1.0717,-1.0717,-1.0717,-1.0717,-1.0717,-1.0717,-1.0717,-1.0717,-1.0717,-1.0717,-1.0717,-1.0717,-1.0717,-1.0717,-1.0717,-1.0717,-1.0717,-1.0717,-1.0717,-1.0717,-1.0717,-1.0717,-1.0717,-1.0717,-1.0717,-1.0717,-1.0717,-1.0717,-1.0717,-1.0717,-1.0717,-1.0717,-1.0717,-1.0717,-1.0717,-1.0717,-1.0717,-1.0717,-1.0717,-1.0717,-1.0717,-1.0717,-1.0717,-1.0717,-1.0717,-1.0717,-1.0717,-1.0717,-1.0772,-1.09,-1.0907,-1.0962,-1.1084,-1.1084,-1.1097,-1.1124,-1.1124,-1.1138,-1.1165,-1.1165,-1.1993,-1.3368,-1.4045,-1.5934,-0.953,-0.9666,-0.972,-0.9713,-0.9598,-0.9415,-0.911,0.0,0.0,0.0,0.0,-0.8147,-0.8147,-0.8391,0.0,0.0,0.0,0.0,0.0,0.0,0.0,0.0,0.0,0.0,0.0,0.0,0.0,0.0,-1.0717,-1.0717,-1.0717,-1.0717,-1.0717,-1.0717,-1.0717,-1.0717,-1.0717,-1.0717,-1.0717,-1.0717,-1.0717,-1.0717,-1.0717,-1.0717,-1.0717,-1.0717,-1.0717,-1.0717,-1.0717,-1.0717,-1.0717,-1.0717,-1.0717,-1.0717,-1.0717,-1.0717,-1.0717,-1.0717,-1.0717,-1.0717,-1.0717,-1.0717,-1.0717,-1.0717,-1.0717,-1.0717,-1.0717,-1.0717,-1.0717,-1.0717,-1.0717,-1.0717,-1.0717,-1.0717,-1.0717,-1.0717,-1.0717,-1.0717,-1.0717,-1.0717,-1.0717,-1.0717,-1.0717,-1.0717,-1.0717,-1.0717,-1.0717,-1.0717,-1.0717,-1.0717,-1.0717,-1.0717,-1.0717,-1.0751,-1.0833,-1.0839,-1.09,-1.105,-1.1056,-1.109,-1.1158,-1.1165,-1.1199,-1.128,-1.128,-1.1321,-1.1402,-1.1402,-1.2241,-1.3644,-1.4335,-1.6273,-0.9564,-0.9713,-0.9788,-0.9646,-0.9496,-0.9293,-0.8967,-0.8676,0.0,0.0,0.0,-0.8038,-0.8038,0.0,0.0,0.0,0.0,0.0,0.0,0.0,0.0,0.0,0.0,0.0,0.0,0.0,0.0,0.0,-1.0717,-1.0717,-1.0717,-1.0717,-1.0717,-1.0717,-1.0717,-1.0717,-1.0717,-1.0717,-1.0717,-1.0717,-1.0717,-1.0717,-1.0717,-1.0717,-1.0717,-1.0717,-1.0717,-1.0717,-1.0717,-1.0717,-1.0717,-1.0717,-1.0717,-1.0717,-1.0717,-1.0717,-1.0717,-1.0717,-1.0717,-1.0717,-1.0717,-1.0717,-1.0717,-1.0717,-1.0717,-1.0717,-1.0717,-1.0717,-1.0717,-1.0717,-1.0717,-1.0717,-1.0717,-1.0717,-1.0717,-1.0717,-1.0717,-1.0717,-1.0717,-1.0717,-1.0717,-1.0717,-1.0717,-1.0717,-1.0717,-1.0717,-1.0717,-1.0731,-1.0765,-1.0772,-1.0778,-1.0812,-1.0785,-1.0833,-1.0982,-1.0995,-1.1056,-1.1206,-1.1212,-1.1226,-1.126,-1.126,-1.1314,-1.1436,-1.1443,-1.1497,-1.1619,-1.1619,-1.2474,-1.3896,-1.4893,-1.6715,-0.9564,-0.9713,-0.9788,-0.9646,-0.9496,-0.9266,-0.8832,0.0,0.0,0.0,-0.8052,-0.8038,-0.8038,0.0,0.0,0.0,0.0,0.0,0.0,0.0,0.0,0.0,0.0,0.0,0.0,0.0,0.0,-1.0717,-1.0717,-1.0717,-1.0717,-1.0717,-1.0717,-1.0717,-1.0717,-1.0717,-1.0717,-1.0717,-1.0717,-1.0717,-1.0717,-1.0717,-1.0717,-1.0717,-1.0717,-1.0717,-1.0717,-1.0717,0.0,-1.0717,-1.0717,-1.0717,-1.0717,-1.0717,-1.0717,-1.0717,-1.0717,-1.0717,-1.0717,-1.0717,-1.0717,-1.0717,-1.0717,-1.0717,-1.0717,-1.0717,-1.0717,-1.0717,-1.0717,-1.0717,-1.0717,-1.0717,-1.0717,-1.0717,-1.0717,-1.0717,-1.0717,-1.0717,-1.0717,-1.0717,-1.0717,-1.0717,-1.0717,-1.0717,-1.0717,-1.0717,-1.0717,-1.0772,-1.0907,-1.0928,-1.0975,-1.1111,-1.1009,-1.0989,-1.1131,-1.1145,-1.1206,-1.1362,-1.1369,-1.1436,-1.1572,-1.1579,-1.1586,-1.1599,-1.1599,-1.1606,-1.1619,-1.1907,-1.2768,-1.3904,-1.5452,-1.7278,-0.9517,-0.9652,-0.9659,-0.951,-0.9429,-0.9239,-0.8696,0.0,0.0,-0.8099,-0.8038,-0.8038,-0.8038,-0.8167,0.0,0.0,0.0,0.0,0.0,0.0,0.0,0.0,0.0,0.0,0.0,0.0,0.0,-1.0717,-1.0717,-1.0717,-1.0717,-1.0717,-1.0717,-1.0717,-1.0717,-1.0717,-1.0717,-1.0717,-1.0717,-1.0717,-1.0717,-1.0717,-1.0717,-1.0717,-1.0717,-1.0717,-1.0717,-1.0717,0.0,-1.0717,-1.0717,-1.0717,-1.0717,-1.0717,-1.0717,-1.0717,-1.0717,-1.0717,-1.0717,-1.0717,-1.0717,-1.0717,-1.0717,-1.0717,-1.0717,-1.0717,-1.0717,-1.0717,-1.0717,-1.0717,-1.0717,-1.0717,-1.0717,-1.0717,-1.0717,-1.0717,-1.0717,-1.0717,-1.0717,-1.0717,-1.0717,-1.0717,-1.0717,-1.0717,-1.0751,-1.0846,-1.086,-1.0907,-1.1056,-1.1077,-1.1138,-1.128,-1.1165,-1.1138,-1.1287,-1.1301,-1.1362,-1.1518,-1.1531,-1.1558,-1.1619,-1.1619,-1.1619,-1.1619,-1.1619,-1.1619,-1.1619,-1.2051,-1.2904,-1.4315,-1.5593,-1.7559,-0.9327,-0.9476,-0.9503,-0.9354,-0.9279,-0.9117,0.0,0.0,-0.835,-0.8092,-0.8038,-0.8038,-0.8038,-0.8126,-0.8214,0.0,0.0,0.0,0.0,0.0,0.0,0.0,0.0,0.0,0.0,0.0,-1.0717,-1.0717,-1.0717,-1.0717,-1.0717,-1.0717,-1.0717,-1.0717,-1.0717,-1.0717,-1.0717,-1.0717,-1.0717,-1.0717,-1.0717,-1.0717,-1.0717,-1.0717,-1.0717,-1.0717,-1.0717,-1.0717,0.0,-1.0717,-1.0717,-1.0717,-1.0717,-1.0717,-1.0717,-1.0717,-1.0717,-1.0717,-1.0717,-1.0717,-1.0717,-1.0717,-1.0717,-1.0717,-1.0717,-1.0717,-1.0717,-1.0717,-1.0717,-1.0717,-1.0717,-1.0717,-1.0717,-1.0717,-1.0717,-1.0717,-1.0717,-1.0717,-1.0731,-1.0778,-1.0785,-1.0799,-1.0846,-1.0853,-1.0887,-1.0995,-1.1009,-1.1063,-1.1212,-1.1226,-1.1287,-1.1443,-1.1362,-1.1341,-1.145,-1.1457,-1.1504,-1.1613,-1.1619,-1.1619,-1.1619,-1.1619,-1.1619,-1.1619,-1.1619,-1.1619,-1.1619,-1.2194,-1.319,-1.46,-1.615,-1.8261,-0.8947,-0.9157,-0.9347,-0.9191,-0.9049,-0.8859,0.0,-0.837,-0.8228,-0.8072,-0.8038,-0.8038,-0.8038,-0.8038,-0.8092,-0.8248,0.0,0.0,0.0,0.0,0.0,0.0,0.0,0.0,0.0,0.0,-1.0717,-1.0717,-1.0717,0.0,-1.0717,-1.0717,-1.0717,-1.0717,-1.0717,-1.0717,-1.0717,-1.0717,-1.0717,-1.0717,-1.0717,-1.0717,-1.0717,-1.0717,-1.0717,-1.0717,-1.0717,-1.0717,0.0,-1.0717,-1.0717,-1.0717,-1.0717,-1.0717,-1.0717,-1.0717,-1.0717,-1.0717,-1.0717,-1.0717,-1.0717,-1.0717,-1.0717,-1.0717,-1.0717,-1.0717,-1.0717,-1.0717,-1.0717,-1.0717,-1.0717,-1.0717,-1.0717,-1.0717,-1.0717,-1.0717,-1.0717,-1.0717,-1.0765,-1.0914,-1.0948,-1.0989,-1.1131,-1.1158,-1.1158,-1.1158,-1.1158,-1.1212,-1.1369,-1.1389,-1.145,-1.1599,-1.1613,-1.1613,-1.1619,-1.1619,-1.1619,-1.1619,-1.1619,-1.1619,-1.1619,-1.1619,-1.1619,-1.1619,-1.1619,-1.1619,-1.1619,-1.2753,-1.3753,-1.46,-1.7137,-1.9796,-0.9152,-0.9224,-0.9286,-0.9022,-0.8974,-0.8832,-0.8431,-0.8303,-0.8228,-0.8072,-0.8038,-0.8038,-0.8038,-0.8038,-0.8092,-0.8248,-0.8391,0.0,0.0,0.0,0.0,0.0,0.0,0.0,0.0,0.0,-1.0717,-1.0717,-1.0717,-1.0717,-1.0717,-1.0717,-1.0717,-1.0717,-1.0717,-1.0717,-1.0717,-1.0717,-1.0717,-1.0717,-1.0717,-1.0717,-1.0717,-1.0717,-1.0717,-1.0717,-1.0717,-1.0717,-1.0717,-1.0717,-1.0717,-1.0717,-1.0717,-1.0717,-1.0717,-1.0717,-1.0717,-1.0717,-1.0717,-1.0717,-1.0717,-1.0717,-1.0717,-1.0717,-1.0717,-1.0717,-1.0717,-1.0717,-1.0717,-1.0717,-1.0717,-1.0717,-1.0717,-1.0717,-1.0717,-1.0717,-1.0717,-1.0806,-1.0894,-1.0941,-1.1029,-1.1111,-1.1158,-1.1165,-1.1199,-1.1301,-1.1321,-1.1375,-1.1531,-1.1545,-1.1565,-1.1613,-1.1619,-1.1619,-1.1619,-1.1619,-1.1619,-1.1619,-1.1619,-1.1619,-1.1619,-1.1714,-1.1762,-1.1762,-1.187,-1.187,-1.1762,-1.2924,-1.4728,-1.7278,-1.9111,-2.0792,0.0,-0.9105,-0.9096,-0.8764,-0.8723,-0.8615,-0.8336,-0.8228,-0.8153,-0.8058,-0.8038,-0.8038,-0.8038,-0.8038,-0.8092,-0.8248,-0.8391,0.0,0.0,0.0,0.0,0.0,0.0,0.0,0.0,-1.0717,-1.0717,-1.0717,-1.0717,-1.0717,-1.0717,-1.0717,-1.0717,-1.0717,-1.0717,-1.0717,-1.0717,-1.0717,-1.0717,-1.0717,-1.0717,-1.0717,-1.0717,-1.0717,-1.0717,-1.0717,-1.0717,-1.0717,0.0,-1.0717,-1.0717,-1.0717,-1.0717,-1.0717,-1.0717,-1.0717,-1.0717,-1.0717,-1.0717,-1.0717,-1.0717,-1.0717,-1.0717,-1.0717,-1.0717,-1.0717,-1.0717,-1.0717,-1.0717,-1.0717,-1.0717,-1.0717,-1.0717,-1.0717,-1.0717,-1.0717,-1.0717,-1.0839,-1.0962,-1.1016,-1.1145,-1.1267,-1.1321,-1.1335,-1.1369,-1.1463,-1.1477,-1.1511,-1.1606,-1.1619,-1.1619,-1.1619,-1.1619,-1.1619,-1.1619,-1.1619,-1.1619,-1.1619,-1.1619,-1.1647,-1.1694,-1.1782,-1.1857,-1.1918,-1.2013,-1.2013,-1.1918,-1.3529,-1.594,-1.9096,-2.0392,-2.1657,0.0,-0.8925,-0.8877,-0.857,-0.8474,-0.8371,-0.8255,-0.814,0.0,-0.8038,-0.8038,-0.8038,-0.8038,-0.8038,-0.8092,-0.8255,-0.8397,0.0,0.0,0.0,0.0,0.0,0.0,0.0,-1.0717,-1.0717,-1.0717,-1.0717,-1.0717,-1.0717,-1.0717,-1.0717,-1.0717,-1.0717,-1.0717,-1.0717,-1.0717,-1.0717,-1.0717,-1.0717,-1.0717,-1.0717,-1.0717,-1.0717,-1.0717,0.0,-1.0717,-1.0717,-1.0717,-1.0717,-1.0717,-1.0717,-1.0717,-1.0717,-1.0717,-1.0717,-1.0717,-1.0717,-1.0717,-1.0717,-1.0717,-1.0717,-1.0717,-1.0717,-1.0717,-1.0717,-1.0717,-1.0717,-1.0717,-1.0717,-1.0717,-1.0717,-1.0717,-1.0717,-1.0717,-1.0724,-1.0731,-1.0853,-1.1002,-1.1151,-1.1301,-1.145,-1.1592,-1.1619,-1.1619,-1.1619,-1.1619,-1.1619,-1.1619,-1.1619,-1.1619,-1.1619,-1.1619,-1.1619,-1.1619,-1.1619,-1.1619,-1.1619,-1.1626,-1.1694,-1.1823,-1.185,-1.1932,-1.2074,-1.2081,-1.223,-1.223,-1.458,-1.7214,-2.0272,-2.1006,-2.2312,-0.9985,0.0,-0.9477,-0.8801,-0.8596,-0.854,0.0,0.0,0.0,0.0,0.0,0.0,0.0,0.0,0.0,0.0,0.0,0.0,0.0,0.0,0.0,0.0,0.0,0.0,-1.0717,-1.0717,-1.0717,-1.0717,-1.0717,-1.0717,-1.0717,-1.0717,-1.0717,-1.0717,-1.0717,-1.0717,-1.0717,-1.0717,-1.0717,-1.0717,-1.0717,-1.0717,-1.0717,-1.0717,-1.0717,-1.0717,-1.0717,-1.0717,-1.0717,-1.0717,-1.0717,-1.0717,-1.0717,-1.0717,-1.0717,-1.0717,-1.0717,-1.0717,-1.0717,-1.0717,-1.0717,-1.0717,-1.0717,-1.0717,-1.0717,-1.0717,-1.0717,-1.0717,-1.0717,-1.0717,-1.0717,-1.0717,-1.0717,-1.0717,-1.0717,-1.0751,-1.0867,-1.1009,-1.1158,-1.1307,-1.1463,-1.1579,-1.1613,-1.1619,-1.1619,-1.1619,-1.1619,-1.1619,-1.1619,-1.1619,-1.1619,-1.1619,-1.1619,-1.1619,-1.1619,-1.1619,-1.1619,-1.1619,-1.1721,-1.1796,-1.183,-1.206,-1.2203,-1.2237,-1.2237,-1.2842,-1.4041,-1.5092,-1.7214,-2.0272,-2.1006,-2.2312,-1.1251,-1.0529,-0.9714,-0.8832,-0.8614,-0.8442,0.0,0.0,0.0,0.0,0.0,0.0,0.0,0.0,0.0,0.0,0.0,0.0,0.0,0.0,0.0,0.0,0.0,-1.0717,0.0,-1.0717,-1.0717,-1.0717,-1.0717,-1.0717,-1.0717,-1.0717,-1.0717,-1.0717,-1.0717,-1.0717,-1.0717,-1.0717,-1.0717,-1.0717,-1.0717,-1.0717,-1.0717,-1.0717,-1.0717,-1.0717,-1.0717,-1.0717,-1.0717,-1.0717,-1.0717,-1.0717,-1.0717,-1.0717,-1.0717,-1.0717,-1.0717,-1.0717,-1.0717,-1.0717,-1.0717,-1.0717,-1.0717,-1.0717,-1.0717,-1.0717,-1.0717,-1.0717,-1.0717,-1.0717,-1.0717,-1.0717,-1.0717,-1.0717,-1.0772,-1.0846,-1.0928,-1.1118,-1.1294,-1.1375,-1.1511,-1.1619,-1.1619,-1.1619,-1.1619,-1.1619,-1.1619,-1.1619,-1.1619,-1.1619,-1.1619,-1.1619,-1.1619,-1.1647,-1.1708,-1.1714,-1.1714,-1.1714,-1.1857,-1.1972,-1.204,-1.2203,-1.2318,-1.2386,-1.2539,-1.3457,-1.483,-1.5922,-1.7803,-2.0626,-2.1666,-2.2847,-1.2316,-1.1311,-1.0079,-0.8898,-0.863,-0.8435,0.0,0.0,0.0,0.0,0.0,0.0,0.0,0.0,0.0,0.0,0.0,0.0,0.0,0.0,0.0,0.0,0.0,0.0,-1.0717,-1.0717,-1.0717,-1.0717,-1.0717,-1.0717,-1.0717,-1.0717,-1.0717,-1.0717,-1.0717,-1.0717,-1.0717,-1.0717,-1.0717,-1.0717,-1.0717,-1.0717,-1.0717,-1.0717,-1.0717,-1.0717,0.0,0.0,-1.0717,-1.0717,-1.0717,-1.0717,-1.0717,-1.0717,-1.0717,-1.0717,-1.0717,-1.0717,-1.0717,-1.0717,-1.0717,-1.0717,-1.0717,-1.0717,-1.0717,-1.0717,-1.0717,-1.0717,-1.0717,-1.0717,-1.0717,-1.0717,-1.0724,-1.0751,-1.0853,-1.0962,-1.1009,-1.1212,-1.1396,-1.1423,-1.1531,-1.1619,-1.1619,-1.1619,-1.1619,-1.1619,-1.1619,-1.1619,-1.1619,-1.1619,-1.1626,-1.1647,-1.1653,-1.1708,-1.1857,-1.1884,-1.1904,-1.1904,-1.2026,-1.2162,-1.2318,-1.2325,-1.2379,-1.2501,-1.2965,-1.3737,-1.4968,-1.6644,-1.8613,-2.1026,-2.2247,-2.3438,-1.248,-1.1999,-1.1248,-0.9778,-0.9205,-0.8939,0.0,0.0,0.0,0.0,0.0,0.0,0.0,0.0,0.0,0.0,0.0,0.0,0.0,0.0,0.0,0.0,0.0,-1.0717,-1.0717,-1.0717,-1.0717,-1.0717,-1.0717,-1.0717,-1.0717,-1.0717,-1.0717,-1.0717,-1.0717,-1.0717,-1.0717,-1.0717,-1.0717,-1.0717,-1.0717,-1.0717,-1.0717,-1.0717,-1.0717,-1.0717,0.0,-1.0717,-1.0717,-1.0717,-1.0717,-1.0717,-1.0717,-1.0717,-1.0717,-1.0717,-1.0717,-1.0717,-1.0717,-1.0717,-1.0717,-1.0717,-1.0717,-1.0717,-1.0717,-1.0717,-1.0717,-1.0717,-1.0717,-1.0717,-1.0717,-1.0717,-1.0751,-1.088,-1.0928,-1.1016,-1.1267,-1.1362,-1.143,-1.1558,-1.1606,-1.1619,-1.1619,-1.1619,-1.1619,-1.1619,-1.1619,-1.1619,-1.1619,-1.1619,-1.1667,-1.1782,-1.1796,-1.1857,-1.2013,-1.2149,-1.2216,-1.2216,-1.2244,-1.2318,-1.2461,-1.2467,-1.2481,-1.2501,-1.2965,-1.3737,-1.4968,-1.6644,-1.8613,-2.1026,-2.2247,-2.3438,-1.3266,-1.2711,-1.1786,-1.0511,-0.9797,0.0,0.0,0.0,0.0,0.0,0.0,0.0,0.0,0.0,0.0,0.0,0.0,0.0,0.0,0.0,0.0,0.0,0.0,-1.0717,-1.0717,-1.0717,-1.0717,-1.0717,-1.0717,-1.0717,-1.0717,-1.0717,-1.0717,-1.0717,-1.0717,-1.0717,-1.0717,-1.0717,-1.0717,-1.0717,-1.0717,-1.0717,-1.0717,-1.0717,-1.0717,-1.0717,0.0,-1.0717,-1.0717,-1.0717,-1.0717,-1.0717,-1.0717,-1.0717,-1.0717,-1.0717,-1.0717,-1.0717,-1.0717,-1.0717,-1.0717,-1.0717,-1.0717,-1.0717,-1.0717,-1.0717,-1.0717,-1.0717,-1.0717,-1.0717,-1.0717,-1.0778,-1.086,-1.0928,-1.107,-1.1226,-1.1362,-1.1457,-1.1538,-1.1606,-1.1619,-1.1619,-1.1619,-1.1619,-1.1619,-1.1619,-1.1687,-1.1735,-1.1735,-1.1809,-1.1884,-1.1945,-1.1952,-1.202,-1.2176,-1.225,-1.2325,-1.24,-1.2406,-1.2433,-1.2501,-1.2501,-1.2501,-1.2501,-1.312,-1.3891,-1.4968,-1.7102,-1.9067,-2.1026,-2.2396,-2.36,-1.3758,-1.3259,-1.2178,0.0,0.0,0.0,0.0,0.0,0.0,0.0,0.0,0.0,0.0,0.0,0.0,0.0,0.0,0.0,0.0,-1.0649,-1.0717,-1.0717,-1.0717,-1.0717,-1.0717,-1.0717,-1.0717,-1.0717,-1.0717,-1.0717,-1.0717,-1.0717,-1.0717,-1.0717,-1.0717,-1.0717,-1.0717,-1.0717,-1.0717,-1.0717,-1.0717,-1.0717,-1.0717,-1.0717,-1.0717,-1.0717,-1.0717,-1.0717,-1.0717,-1.0717,-1.0717,-1.0717,-1.0717,-1.0717,-1.0717,-1.0717,-1.0717,-1.0717,-1.0717,-1.0717,-1.0717,-1.0717,-1.0717,-1.0717,-1.0717,-1.0717,-1.0724,-1.0765,-1.0772,-1.0772,-1.0772,-1.086,-1.0968,-1.1036,-1.1226,-1.1402,-1.1436,-1.1538,-1.1619,-1.1619,-1.1619,-1.1619,-1.1619,-1.1619,-1.1633,-1.166,-1.1762,-1.1843,-1.1877,-1.1986,-1.2074,-1.2108,-1.2115,-1.2176,-1.2325,-1.2338,-1.2386,-1.2494,-1.2501,-1.2501,-1.2501,-1.2501,-1.2501,-1.2501,-1.3274,-1.4045,-1.4968,-1.7255,-1.9218,-2.1037,-2.2545,-2.3748,-1.3331,-1.3357,0.0,0.0,0.0,0.0,0.0,0.0,0.0,0.0,0.0,0.0,0.0,0.0,0.0,0.0,0.0,0.0,-1.0683,0.0,-1.0717,-1.0717,-1.0717,-1.0717,-1.0717,-1.0717,-1.0717,-1.0717,-1.0717,-1.0717,-1.0717,-1.0717,-1.0717,-1.0717,-1.0717,-1.0717,-1.0717,-1.0717,-1.0717,-1.0717,-1.0717,-1.0717,-1.0717,-1.0717,-1.0717,-1.0717,-1.0717,-1.0717,-1.0717,-1.0717,-1.0717,-1.0717,-1.0717,-1.0717,-1.0717,-1.0717,-1.0717,-1.0717,-1.0717,-1.0717,-1.0717,-1.0717,-1.0717,-1.0717,-1.0717,-1.0717,-1.0751,-1.0894,-1.0934,-1.0934,-1.0934,-1.0941,-1.1016,-1.1294,-1.1375,-1.143,-1.1572,-1.1613,-1.1619,-1.1619,-1.1619,-1.1619,-1.1619,-1.1619,-1.166,-1.1796,-1.1823,-1.1884,-1.2026,-1.2054,-1.2115,-1.2257,-1.2277,-1.2332,-1.2474,-1.2488,-1.2488,-1.2501,-1.2501,-1.2501,-1.2501,-1.2501,-1.2501,-1.2501,-1.2965,-1.3737,-1.4968,-1.6644,-1.8764,-2.1026,-2.2247,-2.3451,-1.2026,-1.1738,0.0,0.0,0.0,0.0,0.0,0.0,0.0,0.0,0.0,0.0,0.0,0.0,0.0,0.0,0.0,0.0,-1.0711,-1.0717,-1.0717,-1.0717,-1.0717,-1.0717,-1.0717,-1.0717,-1.0717,-1.0717,-1.0717,-1.0717,-1.0717,-1.0717,-1.0717,-1.0717,-1.0717,-1.0717,-1.0717,-1.0717,-1.0717,-1.0717,-1.0717,-1.0717,-1.0717,-1.0717,-1.0717,-1.0717,-1.0717,-1.0717,-1.0717,-1.0717,-1.0717,-1.0717,-1.0717,-1.0717,-1.0717,-1.0717,-1.0717,-1.0717,-1.0717,-1.0717,-1.0717,-1.0717,-1.0717,-1.0717,-1.0717,-1.0785,-1.0873,-1.0934,-1.1016,-1.1084,-1.1084,-1.1151,-1.1253,-1.1362,-1.1463,-1.1552,-1.1606,-1.1619,-1.1619,-1.1619,-1.1619,-1.1619,-1.1619,-1.1694,-1.1769,-1.1823,-1.1993,-1.2135,-1.2196,-1.2284,-1.2359,-1.2413,-1.242,-1.244,-1.2494,-1.2501,-1.2501,-1.2501,-1.2501,-1.2501,-1.2501,-1.2501,-1.2501,-1.2501,-1.2965,-1.3737,-1.4968,-1.6644,-1.8613,-2.1026,-2.2247,-2.3438,-1.0267,-0.9904,0.0,0.0,0.0,0.0,0.0,0.0,0.0,0.0,0.0,0.0,0.0,0.0,0.0,0.0,0.0,-1.0717,-1.0717,-1.0717,-1.0717,-1.0717,-1.0717,-1.0717,-1.0717,-1.0717,-1.0717,-1.0717,-1.0717,-1.0717,-1.0717,-1.0717,-1.0717,-1.0717,-1.0717,-1.0717,-1.0717,-1.0717,-1.0717,-1.0717,-1.0717,-1.0717,-1.0717,-1.0717,-1.0717,-1.0717,-1.0717,-1.0717,-1.0717,-1.0717,-1.0717,-1.0717,-1.0717,-1.0717,-1.0717,-1.0717,-1.0717,-1.0717,-1.0717,-1.0717,-1.0717,-1.0717,-1.0717,-1.0731,-1.0778,-1.0867,-1.0968,-1.1063,-1.1158,-1.1246,-1.1294,-1.1348,-1.1402,-1.145,-1.1545,-1.1619,-1.1619,-1.1619,-1.1619,-1.1619,-1.1619,-1.1633,-1.1681,-1.1769,-1.1864,-1.1959,-1.2155,-1.2305,-1.2352,-1.244,-1.2501,-1.2501,-1.2501,-1.2501,-1.2501,-1.2501,-1.2501,-1.2501,-1.2501,-1.2501,-1.2501,-1.2501,-1.2501,-1.2501,-1.2811,-1.3583,-1.4968,-1.6339,-1.8461,-2.1026,-2.2097,-2.329,-0.7937,0.0,0.0,0.0,0.0,0.0,0.0,0.0,0.0,0.0,0.0,0.0,0.0,0.0,0.0,0.0,-1.0622,-1.0717,-1.0717,-1.0717,-1.0717,-1.0717,-1.0717,-1.0717,-1.0717,-1.0717,-1.0717,-1.0717,-1.0717,-1.0717,-1.0717,-1.0717,-1.0717,-1.0717,-1.0717,-1.0717,-1.0717,-1.0717,-1.0717,-1.0717,-1.0717,-1.0717,-1.0717,-1.0717,-1.0717,-1.0717,-1.0717,-1.0717,-1.0717,-1.0717,-1.0717,-1.0717,-1.0717,-1.0717,-1.0717,-1.0717,-1.0717,-1.0717,-1.0717,-1.0717,-1.0717,-1.0717,-1.0717,-1.0751,-1.09,-1.0948,-1.1009,-1.1307,-1.1396,-1.143,-1.1579,-1.1504,-1.143,-1.1586,-1.1619,-1.1619,-1.1619,-1.1619,-1.1619,-1.1619,-1.1619,-1.1667,-1.1809,-1.183,-1.1938,-1.2244,-1.2291,-1.2345,-1.2481,-1.2501,-1.2501,-1.2501,-1.2501,-1.2501,-1.2501,-1.2501,-1.2501,-1.2501,-1.2501,-1.2501,-1.2501,-1.2501,-1.2501,-1.2501,-1.2501,-1.3274,-1.4968,-1.588,-1.7854,-2.1037,-2.1798,-2.2992,-0.7652,0.0,0.0,0.0,0.0,0.0,0.0,0.0,0.0,0.0,0.0,0.0,0.0,0.0,0.0,-1.0493,-1.0622,-1.0717,-1.0717,-1.0717,-1.0717,-1.0717,-1.0717,-1.0717,-1.0717,-1.0717,-1.0717,-1.0717,-1.0717,-1.0717,-1.0717,-1.0717,-1.0717,-1.0717,-1.0717,-1.0717,-1.0717,-1.0717,-1.0717,-1.0717,-1.0717,-1.0717,-1.0717,-1.0717,-1.0717,-1.0717,-1.0717,-1.0717,-1.0717,-1.0717,-1.0717,-1.0717,-1.0717,-1.0717,-1.0717,-1.0717,-1.0717,-1.0717,-1.0717,-1.0717,-1.0717,-1.0717,-1.0717,-1.0751,-1.09,-1.1023,-1.1138,-1.1335,-1.147,-1.1558,-1.1606,-1.1586,-1.1565,-1.1606,-1.1619,-1.1619,-1.1619,-1.1619,-1.1619,-1.1619,-1.1701,-1.1782,-1.1823,-1.2013,-1.2182,-1.2277,-1.2372,-1.2454,-1.2494,-1.2501,-1.2501,-1.2501,-1.2501,-1.2501,-1.2501,-1.2501,-1.2501,-1.2501,-1.2501,-1.2501,-1.2501,-1.2501,-1.2501,-1.2501,-1.2501,-1.3274,-1.4968,-1.588,-1.7854,-2.1037,-2.1499,-2.2694,0.0,0.0,0.0,0.0,0.0,0.0,0.0,0.0,0.0,0.0,0.0,0.0,0.0,0.0,0.0,-1.0582,-1.0663,-1.0717,-1.0717,-1.0717,-1.0717,-1.0717,-1.0717,-1.0717,-1.0717,-1.0717,-1.0717,-1.0717,-1.0717,-1.0717,-1.0717,-1.0717,-1.0717,-1.0717,-1.0717,-1.0717,-1.0717,-1.0717,-1.0717,-1.0717,-1.0717,-1.0717,-1.0717,-1.0717,-1.0717,-1.0717,-1.0717,-1.0717,-1.0717,-1.0717,-1.0717,-1.0717,-1.0717,-1.0717,-1.0717,-1.0717,-1.0717,-1.0717,-1.0717,-1.0717,-1.0717,-1.0717,-1.0717,-1.0758,-1.0968,-1.1097,-1.1206,-1.1423,-1.1545,-1.1619,-1.1619,-1.1619,-1.1619,-1.1619,-1.1619,-1.1619,-1.1619,-1.1619,-1.1619,-1.1619,-1.1735,-1.185,-1.1911,-1.2128,-1.2311,-1.2366,-1.2447,-1.2501,-1.2501,-1.2501,-1.2501,-1.2501,-1.2501,-1.2501,-1.2501,-1.2501,-1.2501,-1.2501,-1.2501,-1.2501,-1.2501,-1.2501,-1.2501,-1.2501,-1.2501,-1.3274,-1.4806,-1.5727,-1.7702,-2.0575,-2.1199,-2.2396,0.0,0.0,0.0,0.0,0.0,0.0,0.0,0.0,0.0,0.0,0.0,0.0,0.0,0.0,0.0,-1.0717,-1.0717,-1.0717,-1.0717,-1.0717,-1.0717,-1.0717,-1.0717,-1.0717,-1.0717,-1.0717,-1.0717,-1.0717,-1.0717,-1.0717,-1.0717,-1.0717,-1.0717,-1.0717,-1.0717,-1.0717,-1.0717,-1.0717,-1.0717,-1.0717,-1.0717,-1.0717,-1.0717,-1.0717,-1.0717,-1.0717,-1.0717,-1.0717,-1.0717,-1.0717,-1.0717,-1.0717,-1.0717,-1.0717,-1.0717,-1.0717,-1.0717,-1.0717,-1.0717,-1.0717,-1.0717,-1.0717,-1.0717,-1.0772,-1.107,-1.1165,-1.1226,-1.1531,-1.1619,-1.1619,-1.1619,-1.1619,-1.1619,-1.1619,-1.1619,-1.1619,-1.1619,-1.1619,-1.1619,-1.1619,-1.1742,-1.1898,-1.204,-1.2196,-1.2352,-1.2481,-1.2501,-1.2501,-1.2501,-1.2501,-1.2501,-1.2501,-1.2501,-1.2501,-1.2501,-1.2501,-1.2501,-1.2501,-1.2501,-1.2501,-1.2501,-1.2501,-1.2501,-1.2501,-1.2501,-1.312,-1.4345,-1.5573,-1.7398,-1.9811,-2.0887,-2.2097,0.0,0.0,0.0,0.0,0.0,0.0,0.0,0.0,0.0,0.0,0.0,0.0,0.0,0.0,-1.0717,-1.0717,-1.0717,-1.0717,-1.0717,-1.0717,-1.0717,-1.0717,-1.0717,-1.0717,-1.0717,-1.0717,-1.0717,-1.0717,-1.0717,-1.0717,-1.0717,-1.0717,-1.0717,-1.0717,-1.0717,-1.0717,-1.0717,-1.0717,-1.0717,-1.0717,-1.0717,-1.0717,-1.0717,-1.0717,-1.0717,-1.0717,-1.0717,-1.0717,-1.0717,-1.0717,-1.0717,-1.0717,-1.0717,-1.0717,-1.0717,-1.0717,-1.0717,-1.0717,-1.0717,-1.0717,-1.0717,-1.0717,-1.0717,-1.0772,-1.107,-1.1165,-1.1226,-1.1531,-1.1619,-1.1619,-1.1619,-1.1619,-1.1619,-1.1619,-1.1619,-1.1619,-1.1619,-1.1619,-1.1619,-1.1619,-1.183,-1.202,-1.2054,-1.2284,-1.2467,-1.2494,-1.2501,-1.2501,-1.2501,-1.2501,-1.2501,-1.2501,-1.2501,-1.2501,-1.2501,-1.2501,-1.2501,-1.2501,-1.2501,-1.2501,-1.2501,-1.2501,-1.2501,-1.2501,-1.2501,-1.312,-1.4345,-1.5259,-1.7084,-1.9811,-2.0436,-2.1499,0.0,0.0,0.0,0.0,0.0,0.0,0.0,0.0,0.0,0.0,0.0,0.0,0.0,-1.0717,-1.0717,-1.0717,-1.0717,-1.0717,-1.0717,-1.0717,-1.0717,-1.0717,-1.0717,-1.0717,-1.0717,-1.0717,-1.0717,-1.0717,-1.0717,-1.0717,-1.0717,-1.0717,-1.0717,-1.0717,-1.0717,-1.0717,-1.0717,-1.0717,-1.0717,-1.0717,-1.0717,-1.0717,-1.0717,-1.0717,-1.0717,-1.0717,-1.0717,-1.0717,-1.0717,-1.0717,-1.0717,-1.0717,-1.0717,-1.0717,-1.0717,-1.0717,-1.0717,-1.0717,-1.0717,-1.0717,-1.0717,-1.0717,-1.0717,-1.0772,-1.107,-1.1165,-1.1226,-1.1531,-1.1619,-1.1619,-1.1619,-1.1619,-1.1619,-1.1619,-1.1619,-1.1619,-1.1619,-1.1619,-1.1619,-1.1619,-1.1857,-1.206,-1.206,-1.2305,-1.2501,-1.2501,-1.2501,-1.2501,-1.2501,-1.2501,-1.2501,-1.2501,-1.2501,-1.2501,-1.2501,-1.2501,-1.2501,-1.2501,-1.2501,-1.2501,-1.2501,-1.2501,-1.2501,-1.2501,-1.2501,-1.2965,-1.3729,-1.4952,-1.6635,-1.8613,-1.9973,-2.1337,0.0,0.0,0.0,0.0,0.0,0.0,0.0,0.0,0.0,0.0,0.0,0.0,-1.0717,-1.0717,-1.0717,-1.0717,-1.0717,-1.0717,-1.0717,-1.0717,-1.0717,-1.0717,-1.0717,-1.0717,-1.0717,-1.0717,-1.0717,-1.0717,-1.0717,-1.0717,-1.0717,-1.0697,-1.0683,-1.0683,-1.0656,-1.0656,-1.0677,-1.0683,-1.0697,-1.0717,-1.0717,-1.0717,-1.0717,-1.0717,-1.0717,-1.0717,-1.0717,-1.0717,-1.0717,-1.0717,-1.0717,-1.0717,-1.0717,-1.0717,-1.0717,-1.0717,-1.0717,-1.0717,-1.0717,-1.0717,-1.0717,-1.0717,-1.0738,-1.0812,-1.1084,-1.1185,-1.126,-1.1538,-1.1619,-1.1619,-1.1619,-1.1619,-1.1619,-1.1619,-1.1619,-1.1619,-1.1619,-1.1619,-1.1619,-1.1619,-1.1857,-1.2081,-1.2128,-1.2338,-1.2501,-1.2501,-1.2501,-1.2501,-1.2501,-1.2501,-1.2501,-1.2501,-1.2501,-1.2501,-1.2501,-1.2501,-1.2501,-1.2501,-1.2501,-1.2501,-1.2501,-1.2501,-1.2501,-1.2501,-1.2501,-1.2656,-1.312,-1.4653,-1.6024,-1.7407,-1.9671,-2.1187,0.0,0.0,0.0,0.0,0.0,0.0,0.0,0.0,0.0,0.0,0.0,-1.0717,-1.0717,-1.0717,-1.0717,-1.0717,-1.0717,-1.0717,-1.0717,-1.0717,-1.0717,-1.0717,-1.0717,-1.0717,-1.0717,-1.0717,-1.0717,-1.0717,-1.0717,-1.0717,-1.0717,-1.0595,-1.0521,-1.0521,-1.0405,-1.0399,-1.0521,-1.0521,-1.0588,-1.0717,-1.0717,-1.0717,-1.0717,-1.0717,-1.0717,-1.0717,-1.0717,-1.0717,-1.0717,-1.0717,-1.0717,-1.0717,-1.0717,-1.0717,-1.0717,-1.0717,-1.0717,-1.0717,-1.0717,-1.0717,-1.0717,-1.0717,-1.0812,-1.0948,-1.1111,-1.1253,-1.1396,-1.1572,-1.1619,-1.1619,-1.1619,-1.1619,-1.1619,-1.1619,-1.1619,-1.1619,-1.1619,-1.1619,-1.1619,-1.1619,-1.1857,-1.2142,-1.24,-1.2474,-1.2501,-1.2501,-1.2501,-1.2501,-1.2501,-1.2501,-1.2501,-1.2501,-1.2501,-1.2501,-1.2501,-1.2501,-1.2501,-1.2501,-1.2501,-1.2501,-1.2501,-1.2501,-1.2501,-1.2501,-1.2501,-1.2656,-1.312,-1.4037,-1.5565,-1.7407,-1.8764,-2.0285,0.0,0.0,0.0,0.0,0.0,0.0,0.0,0.0,0.0,0.0,-1.0663,-1.0717,-1.0717,-1.0717,-1.0717,-1.0717,-1.0717,-1.0717,-1.0717,-1.0717,-1.0717,-1.0717,-1.0717,-1.0717,-1.0717,-1.0717,-1.0717,-1.0717,-1.0643,-1.0595,-1.0595,-1.0453,-1.0371,-1.0371,-1.031,-1.031,-1.0371,-1.0453,-1.0568,-1.0717,-1.0717,-1.0717,-1.0717,-1.0717,-1.0717,-1.0717,-1.0717,-1.0717,-1.0717,-1.0717,-1.0717,-1.0717,-1.0717,-1.0717,-1.0717,-1.0717,-1.0717,-1.0717,-1.0717,-1.0717,-1.0717,-1.0717,-1.0826,-1.0975,-1.1118,-1.1267,-1.1423,-1.1572,-1.1619,-1.1619,-1.1619,-1.1619,-1.1619,-1.1619,-1.1619,-1.1619,-1.1619,-1.1619,-1.1667,-1.1837,-1.1972,-1.2155,-1.2447,-1.2501,-1.2501,-1.2501,-1.2501,-1.2501,-1.2501,-1.2501,-1.2501,-1.2501,-1.2501,-1.2501,-1.2501,-1.2501,-1.2501,-1.2501,-1.2501,-1.2501,-1.2501,-1.2501,-1.2501,-1.2501,-1.2501,-1.2656,-1.2811,-1.3883,-1.5113,-1.6483,-1.8309,-1.9822,0.0,0.0,0.0,0.0,0.0,0.0,0.0,0.0,0.0,0.0,-1.0582,-1.0677,-1.0711,-1.0717,-1.0717,-1.0717,-1.0717,-1.0717,-1.0717,-1.0717,-1.0717,-1.0717,-1.0717,-1.0717,-1.0717,-1.0683,-1.0663,-1.0663,-1.0521,-1.0439,-1.0439,-1.0304,-1.0222,-1.0222,-1.0181,-1.0181,-1.0222,-1.0399,-1.0548,-1.0663,-1.0704,-1.0717,-1.0717,-1.0717,-1.0717,-1.0717,-1.0717,-1.0717,-1.0717,-1.0717,-1.0717,-1.0717,-1.0717,-1.0717,-1.0717,-1.0717,-1.0717,-1.0717,-1.0717,-1.0717,-1.0717,-1.0717,-1.0846,-1.1023,-1.1131,-1.1294,-1.147,-1.1586,-1.1619,-1.1619,-1.1619,-1.1619,-1.1619,-1.1619,-1.1619,-1.1619,-1.1619,-1.1619,-1.1708,-1.2006,-1.204,-1.2128,-1.2447,-1.2501,-1.2501,-1.2501,-1.2501,-1.2501,-1.2501,-1.2501,-1.2501,-1.2501,-1.2501,-1.2501,-1.2501,-1.2501,-1.2501,-1.2501,-1.2501,-1.2501,-1.2501,-1.2501,-1.2501,-1.2501,-1.2501,-1.2501,-1.2501,-1.3575,-1.4499,-1.5565,-1.755,-1.8916,0.0,0.0,0.0,0.0,0.0,0.0,0.0,0.0,0.0,-1.0405,-1.05,-1.0548,-1.0697,-1.0717,-1.0717,-1.0717,-1.0717,-1.0717,-1.0717,-1.0717,-1.0717,-1.0717,-1.0717,-1.0717,-1.0717,-1.0588,-1.0507,-1.0507,-1.0371,-1.029,-1.029,-1.0148,-1.0059,-1.0059,-0.9924,-0.9917,-1.0059,-1.0351,-1.0493,-1.0507,-1.0649,-1.0717,-1.0717,-1.0717,-1.0717,-1.0717,-1.0717,-1.0717,-1.0717,-1.0717,-1.0717,-1.0717,-1.0717,-1.0717,-1.0717,-1.0717,-1.0717,-1.0717,-1.0717,-1.0717,-1.0717,-1.0717,-1.0914,-1.1151,-1.1158,-1.1369,-1.1606,-1.1619,-1.1619,-1.1619,-1.1619,-1.1619,-1.1619,-1.1619,-1.1619,-1.1619,-1.1619,-1.1619,-1.1708,-1.2006,-1.1986,-1.2047,-1.2433,-1.2501,-1.2501,-1.2501,-1.2501,-1.2501,-1.2501,-1.2501,-1.2501,-1.2501,-1.2501,-1.2501,-1.2501,-1.2501,-1.2501,-1.2501,-1.2501,-1.2501,-1.2501,-1.2501,-1.2501,-1.2501,-1.2501,-1.2501,-1.2501,-1.2965,-1.3737,-1.5113,-1.588,-1.695,0.0,0.0,0.0,0.0,0.0,0.0,0.0,0.0,-0.9869,-1.0025,-1.0215,-1.0371,-1.0426,-1.0588,-1.069,-1.0588,-1.0575,-1.0541,-1.0453,-1.0514,-1.0575,-1.0575,-1.0663,-1.0683,-1.0582,-1.0521,-1.0453,-1.0365,-1.0215,-1.0134,-1.0134,-0.9985,-0.9903,-0.9903,-0.9849,-0.9897,-1.0046,-1.0154,-1.0304,-1.0493,-1.0548,-1.0622,-1.0717,-1.0717,-1.0717,-1.0717,-1.0717,-1.0717,-1.0717,-1.0717,-1.0717,-1.0717,-1.0717,-1.0717,-1.0717,-1.0717,-1.0717,-1.0717,-1.0717,-1.0717,-1.0717,-1.0717,-1.0921,-1.1165,-1.1165,-1.1375,-1.1619,-1.1619,-1.1619,-1.1619,-1.1619,-1.1619,-1.1619,-1.1619,-1.1619,-1.1619,-1.1619,-1.1619,-1.1708,-1.2006,-1.1986,-1.204,-1.2433,-1.2501,-1.2501,-1.2501,-1.2501,-1.2501,-1.2501,-1.2501,-1.2501,-1.2501,-1.2501,-1.2501,-1.2501,-1.2501,-1.2501,-1.2501,-1.2501,-1.2501,-1.2501,-1.2501,-1.2501,-1.2501,-1.2501,-1.2501,-1.2501,-1.2965,-1.3428,-1.4199,-1.4968,-1.5727,0.0,0.0,0.0,0.0,0.0,0.0,0.0,0.0,-0.9503,-0.9707,-0.9951,-1.0161,-1.0263,-1.0439,-1.0541,-1.0439,-1.0419,-1.0385,-1.0297,-1.0365,-1.0419,-1.0419,-1.0514,-1.0534,-1.0432,-1.0371,-1.0304,-1.0209,-1.0059,0.0,-0.9971,-0.9876,-0.9822,-0.9822,-0.9822,-0.9869,-0.9971,-1.0025,-1.0148,-1.0344,-1.0446,-1.0548,-1.0643,-1.0697,-1.0717,-1.0717,-1.0717,-1.0717,-1.0717,-1.0717,-1.0717,-1.0717,-1.0717,-1.0717,-1.0717,-1.0717,-1.0717,-1.0717,-1.0717,-1.0717,-1.0717,-1.0717,-1.0921,-1.1165,-1.1165,-1.1375,-1.1619,-1.1619,-1.1619,-1.1619,-1.1619,-1.1619,-1.1619,-1.1619,-1.1619,-1.1619,-1.1619,-1.1653,-1.1762,-1.2013,-1.2013,-1.2081,-1.244,-1.2501,-1.2501,-1.2501,-1.2501,-1.2501,-1.2501,-1.2501,-1.2501,-1.2501,-1.2501,-1.2501,-1.2501,-1.2501,-1.2501,-1.2501,-1.2501,-1.2501,-1.2501,-1.2501,-1.2501,-1.2501,-1.2501,-1.2501,-1.2501,-1.2811,-1.312,-1.3583,-1.4045,-1.4653,0.0,0.0,0.0,0.0,0.0,0.0,0.0,0.0,-0.8872,-0.9462,-0.97,-0.9897,-1.0202,-1.0263,-1.0263,-1.0263,-1.027,-1.027,-1.027,-1.027,-1.0276,-1.0276,-1.0276,-1.0276,-1.0276,-1.0141,-1.0046,-1.0039,-0.9903,-0.9822,-0.9822,-0.9822,-0.9822,-0.9822,-0.9822,-0.9822,-0.9822,-0.9971,-1.0046,-1.0053,-1.0344,-1.0487,-1.0493,-1.0649,-1.0717,-1.0717,-1.0717,-1.0717,-1.0717,-1.0717,-1.0717,-1.0717,-1.0717,-1.0717,-1.0717,-1.0717,-1.0717,-1.0717,-1.0717,-1.0717,-1.0717,-1.0717,-1.0921,-1.1165,-1.1165,-1.1375,-1.1619,-1.1619,-1.1619,-1.1619,-1.1619,-1.1619,-1.1619,-1.1619,-1.1619,-1.1619,-1.1619,-1.1735,-1.1877,-1.2026,-1.206,-1.2155,-1.2447,-1.2501,-1.2501,-1.2501,-1.2501,-1.2501,-1.2501,-1.2501,-1.2501,-1.2501,-1.2501,-1.2501,-1.2501,-1.2501,-1.2501,-1.2501,-1.2501,-1.2501,-1.2501,-1.2501,-1.2501,-1.2501,-1.2501,-1.2501,-1.2501,-1.2501,-1.2656,-1.312,-1.312,-1.3274,-0.5808,0.0,0.0,0.0,0.0,0.0,0.0,0.0,-0.8621,-0.8899,-0.9157,-0.9429,-0.9741,-0.9795,-0.9829,-0.993,-1.0039,-1.0073,-0.9964,-1.0046,-1.0114,-1.0114,-1.0215,-1.0236,-1.0127,-1.0073,-1.0005,0.0,-0.9842,-0.9822,-0.9822,-0.9822,-0.9822,-0.9822,-0.9822,-0.9822,-0.9822,-0.9863,-0.9937,-1.0053,-1.0249,-1.0392,-1.0493,-1.0649,-1.0717,-1.0717,-1.0717,-1.0717,-1.0717,-1.0717,-1.0717,-1.0717,-1.0717,-1.0717,-1.0717,-1.0717,-1.0717,-1.0717,-1.0717,-1.0717,-1.0717,-1.0717,-1.0921,-1.1165,-1.1165,-1.1375,-1.1619,-1.1619,-1.1619,-1.1619,-1.1619,-1.1619,-1.1619,-1.1619,-1.1619,-1.1619,-1.1619,-1.1762,-1.1904,-1.1938,-1.2006,-1.2155,-1.2447,-1.2501,-1.2501,-1.2501,-1.2501,-1.2501,-1.2501,-1.2501,-1.2501,-1.2501,-1.2501,-1.2501,-1.2501,-1.2501,-1.2501,-1.2501,-1.2501,-1.2501,-1.2501,-1.2501,-1.2501,-1.2501,-1.2501,-1.2501,-1.2501,-1.2501,-1.2501,-1.2656,-1.2656,-1.2656,0.0,0.0,0.0,0.0,0.0,0.0,-0.719,-0.7638,-0.8099,0.0,-0.8669,-0.8988,-0.9354,-0.9422,-0.9469,-0.9612,-0.9768,-0.9856,-0.9822,-0.9897,-0.9958,-0.9958,-1.0032,-1.0053,-0.9964,-0.9958,-0.9917,-0.9829,-0.9822,-0.9822,-0.9822,-0.9822,-0.9822,-0.9822,-0.9822,-0.9822,-0.9822,-0.9822,-0.9863,-0.9958,-1.0175,-1.0324,-1.0412,-1.0622,-1.0717,-1.0717,-1.0717,-1.0717,-1.0717,-1.0717,-1.0717,-1.0717,-1.0717,-1.0717,-1.0717,-1.0717,-1.0717,-1.0717,-1.0717,-1.0717,-1.0717,-1.0717,-1.0921,-1.1165,-1.1165,-1.1375,-1.1619,-1.1619,-1.1619,-1.1619,-1.1619,-1.1619,-1.1619,-1.1619,-1.1619,-1.1619,-1.1619,-1.1775,-1.1918,-1.1911,-1.2094,-1.2298,-1.2474,-1.2501,-1.2501,-1.2501,-1.2501,-1.2501,-1.2501,-1.2501,-1.2501,-1.2501,-1.2501,-1.2501,-1.2501,-1.2501,-1.2501,-1.2501,-1.2501,-1.2501,-1.2501,-1.2501,-1.2501,-1.2501,-1.2501,-1.2501,-1.2501,-1.2501,-1.2501,-1.2501,-1.2501,-1.2501,0.0,0.0,0.0,0.0,0.0,0.0,-0.6668,-0.7034,-0.7461,0.0,-0.8201,-0.854,-0.8974,-0.9069,-0.9137,-0.9306,-0.9462,-0.9612,-0.9774,-0.9808,-0.9822,-0.9822,-0.9822,-0.9822,-0.9822,-0.9822,-0.9822,-0.9822,-0.9822,-0.9822,-0.9822,-0.9822,-0.9822,-0.9822,-0.9822,-0.9822,-0.9822,-0.9822,-0.9829,-0.9849,-1.0141,-1.029,-1.0317,-1.0595,-1.0717,-1.0717,-1.0717,-1.0717,-1.0717,-1.0717,-1.0717,-1.0717,-1.0717,-1.0717,-1.0717,-1.0717,-1.0717,-1.0717,-1.0717,-1.0717,-1.0717,-1.0717,-1.0921,-1.1165,-1.1165,-1.1375,-1.1619,-1.1619,-1.1619,-1.1619,-1.1619,-1.1619,-1.1619,-1.1619,-1.1619,-1.1619,-1.1619,-1.1762,-1.1891,-1.1918,-1.2237,-1.2501,-1.2501,-1.2501,-1.2501,-1.2501,-1.2501,-1.2501,-1.2501,-1.2501,-1.2501,-1.2501,-1.2501,-1.2501,-1.2501,-1.2501,-1.2501,-1.2501,-1.2501,-1.2501,-1.2501,-1.2501,-1.2501,-1.2501,-1.2501,-1.2501,-1.2501,-1.2501,-1.2501,-1.2501,-1.2501,-1.2501,0.0,0.0,-0.6743,0.0,0.0,0.0,-0.6695,-0.6953,-0.7244,0.0,-0.7733,-0.8045,-0.8384,-0.8533,-0.8703,-0.8981,-0.9144,-0.934,-0.9612,-0.9747,-0.9822,-0.9822,-0.9822,-0.9822,-0.9822,-0.9822,-0.9822,-0.9822,-0.9822,-0.9822,-0.9822,-0.9822,-0.9822,-0.9822,-0.9822,-0.9822,-0.9822,-0.9822,-0.9883,-1.0005,-1.0188,-1.0337,-1.046,-1.0636,-1.0717,-1.0717,-1.0717,-1.0717,-1.0717,-1.0717,-1.0717,-1.0717,-1.0717,-1.0717,-1.0717,-1.0717,-1.0717,-1.0717,-1.0717,-1.0717,-1.0717,-1.0717,-1.0921,-1.1165,-1.1165,-1.1375,-1.1619,-1.1619,-1.1619,-1.1619,-1.1619,-1.1619,-1.1619,-1.1619,-1.1619,-1.1619,-1.1619,-1.1647,-1.1728,-1.1884,-1.2237,-1.2501,-1.2501,-1.2501,-1.2501,-1.2501,-1.2501,-1.2501,-1.2501,-1.2501,-1.2501,-1.2501,-1.2501,-1.2501,-1.2501,-1.2501,-1.2501,-1.2501,-1.2501,-1.2501,-1.2501,-1.2501,-1.2501,-1.2501,-1.2501,-1.2501,-1.2501,-1.2501,-1.2501,-1.2501,-1.2501,-1.2501,0.0,0.0,-0.6318,-0.6337,0.0,0.0,0.0,-0.6536,-0.6766,-0.7007,-0.7217,-0.7461,-0.7767,-0.7943,-0.814,-0.8236,-0.8461,-0.8595,-0.866,-0.9228,-0.9598,-0.9598,-0.9673,-0.9713,-0.9713,-0.9593,-0.9473,-0.9232,-0.9297,-0.9457,-0.9579,-0.9579,-0.9579,-0.9822,-0.9822,-0.9822,-0.9822,-0.9822,-0.9897,-1.0053,-1.0209,-1.0351,-1.0493,-1.0649,-1.0717,-1.0717,-1.0717,-1.0717,-1.0717,-1.0717,-1.0717,-1.0717,-1.0717,-1.0717,-1.0717,-1.0717,-1.0717,-1.0717,-1.0717,-1.0717,-1.0717,-1.0717,-1.0873,-1.107,-1.1138,-1.1375,-1.1619,-1.1619,-1.1619,-1.1619,-1.1619,-1.1619,-1.1619,-1.1619,-1.1619,-1.1619,-1.1619,-1.1619,-1.1681,-1.1877,-1.2237,-1.2501,-1.2501,-1.2501,-1.2501,-1.2501,-1.2501,-1.2501,-1.2501,-1.2501,-1.2501,-1.2501,-1.2501,-1.2501,-1.2501,-1.2501,-1.2501,-1.2501,-1.2501,-1.2501,-1.2501,-1.2501,-1.2501,-1.2501,-1.2501,-1.2501,-1.2501,-1.2501,-1.2501,-1.2501,-1.2501,-1.2501,0.0,0.0,0.0,0.0,0.0,-0.5627,0.0,0.0,0.0,-0.6634,-0.6776,0.0,0.0,0.0,0.0,-0.7375,0.0,0.0,0.0,-0.819,0.0,-0.9089,-0.9332,-0.9406,-0.9406,-0.9071,-0.8729,-0.8491,-0.8497,-0.869,-0.9054,-0.9079,-0.9335,-0.97,-0.9822,-0.9822,-0.9822,-0.9849,-0.9944,-1.0093,-1.0249,-1.0399,-1.0541,-1.0663,-1.0717,-1.0717,-1.0717,-1.0717,-1.0717,-1.0717,-1.0717,-1.0717,-1.0717,-1.0717,-1.0717,-1.0717,-1.0717,-1.0717,-1.0717,-1.0717,-1.0717,-1.0717,-1.0839,-1.1016,-1.1165,-1.1402,-1.1619,-1.1619,-1.1619,-1.1619,-1.1619,-1.1619,-1.1619,-1.1619,-1.1619,-1.1619,-1.1619,-1.1619,-1.1687,-1.1904,-1.2216,-1.2454,-1.2494,-1.2501,-1.2501,-1.2501,-1.2501,-1.2501,-1.2501,-1.2501,-1.2501,-1.2501,-1.2501,-1.2501,-1.2501,-1.2501,-1.2501,-1.2501,-1.2501,-1.2501,-1.2501,-1.2501,-1.2501,-1.2501,-1.2501,-1.2501,-1.2501,-1.2501,-1.2501,-1.2501,-1.2501,-1.2501,0.0,0.0,0.0,0.0,-0.5526,0.0,0.0,0.0,-0.6244,-0.6498,0.0,0.0,0.0,0.0,0.0,0.0,0.0,0.0,-0.648,-0.654,-0.6967,-0.7969,-0.8514,-0.8755,-0.8527,-0.8049,-0.7646,-0.7418,-0.7406,-0.7595,-0.7948,-0.8539,-0.897,-0.9335,-0.97,-0.9822,-0.9822,-0.9958,-1.01,-1.0256,-1.0399,-1.0548,-1.0697,-1.0711,-1.0717,-1.0717,-1.0717,-1.0717,-1.0717,-1.0717,-1.0717,-1.0717,-1.0717,-1.0717,-1.0717,-1.0717,-1.0717,-1.0717,-1.0717,-1.0717,-1.0717,-1.0717,-1.0907,-1.1165,-1.1321,-1.1484,-1.1619,-1.1619,-1.1619,-1.1619,-1.1619,-1.1619,-1.1619,-1.1619,-1.1619,-1.1619,-1.1619,-1.1619,-1.1701,-1.1993,-1.2149,-1.2291,-1.2474,-1.2501,-1.2501,-1.2501,-1.2501,-1.2501,-1.2501,-1.2501,-1.2501,-1.2501,-1.2501,-1.2501,-1.2501,-1.2501,-1.2501,-1.2501,-1.2501,-1.2501,-1.2501,-1.2501,-1.2501,-1.2501,-1.2501,-1.2501,-1.2501,-1.2501,-1.2501,-1.2501,-1.2501,-1.2501,0.0,0.0,0.0,0.0,0.0,0.0,-0.5162,0.0,-0.5836,0.0,0.0,0.0,0.0,0.0,0.0,0.0,-0.5552,0.0,0.0,0.0,-0.5441,0.0,0.0,0.0,-0.7674,-0.723,-0.6621,-0.5934,-0.608,-0.6432,-0.6971,-0.7564,-0.8244,-0.897,-0.9335,-0.9579,-0.9822,-0.9971,-1.0127,-1.0283,-1.0426,-1.0575,-1.0717,-1.0717,-1.0717,-1.0717,-1.0717,-1.0717,-1.0717,-1.0717,-1.0717,-1.0717,-1.0717,-1.0717,-1.0717,-1.0717,-1.0717,-1.0717,-1.0717,-1.0717,-1.0717,-1.0717,-1.0921,-1.1172,-1.124,-1.143,-1.1619,-1.1619,-1.1619,-1.1619,-1.1619,-1.1619,-1.1619,-1.1619,-1.1619,-1.1619,-1.1619,-1.1687,-1.1803,-1.202,-1.2169,-1.2305,-1.2474,-1.2501,-1.2501,-1.2501,-1.2501,-1.2501,-1.2501,-1.2501,-1.2501,-1.2501,-1.2501,-1.2501,-1.2501,-1.2501,-1.2501,-1.2501,-1.2501,-1.2501,-1.2501,-1.2501,-1.2501,-1.2501,-1.2501,-1.2501,-1.2501,-1.2501,-1.2501,-1.2501,-1.2501,-1.2501,-0.2335,0.0,0.0,0.0,0.0,0.0,0.0,0.0,0.0,0.0,0.0,0.0,0.0,0.0,0.0,0.0,0.0,-0.4355,0.0,-0.3657,0.0,0.0,0.0,0.0,0.0,-0.6226,-0.5528,-0.4664,-0.4565,-0.4798,-0.5614,-0.6547,-0.7474,-0.836,-0.8848,-0.9335,-0.97,-0.9888,-1.0168,-1.0283,-1.0466,-1.0616,-1.0717,-1.0717,-1.0717,-1.0717,-1.0717,-1.0717,-1.0717,-1.0717,-1.0717,-1.0717,-1.0717,-1.0717,-1.0717,-1.0717,-1.0717,-1.0717,-1.0717,-1.0717,-1.0724,-1.0772,-1.0955,-1.1172,-1.1212,-1.1409,-1.1619,-1.1619,-1.1619,-1.1619,-1.1619,-1.1619,-1.1619,-1.1619,-1.1619,-1.1619,-1.1619,-1.1728,-1.1877,-1.2033,-1.2182,-1.2338,-1.2474,-1.2501,-1.2501,-1.2501,-1.2501,-1.2501,-1.2501,-1.2501,-1.2501,-1.2501,-1.2501,-1.2501,-1.2501,-1.2501,-1.2501,-1.2501,-1.2501,-1.2501,-1.2501,-1.2501,-1.2501,-1.2501,-1.2501,-1.2501,-1.2501,-1.2501,-1.2501,-1.2501,-1.2501,-1.2501,0.0,0.0,0.0,-0.1682,0.0,0.0,0.0,0.0,-0.468,0.0,0.0,0.0,0.0,0.0,0.0,0.0,0.0,0.0,0.0,0.0,0.0,0.0,0.0,0.0,0.0,-0.4962,-0.4407,0.0,-0.2888,-0.2845,-0.3875,-0.5253,-0.6422,-0.7383,-0.8366,-0.897,-0.9335,-0.9995,-1.0276,-1.0283,-1.0575,-1.0717,-1.0717,-1.0717,-1.0717,-1.0717,-1.0717,-1.0717,-1.0717,-1.0717,-1.0717,-1.0717,-1.0717,-1.0717,-1.0717,-1.0717,-1.0717,-1.0717,-1.0717,-1.0717,-1.0744,-1.0894,-1.1043,-1.1192,-1.1341,-1.1497,-1.1619,-1.1619,-1.1619,-1.1619,-1.1619,-1.1619,-1.1619,-1.1619,-1.1619,-1.1619,-1.1619,-1.1728,-1.1877,-1.2033,-1.2182,-1.2338,-1.2474,-1.2501,-1.2501,-1.2501,-1.2501,-1.2501,-1.2501,-1.2501,-1.2501,-1.2501,-1.2501,-1.2501,-1.2501,-1.2501,-1.2501,-1.2501,-1.2501,-1.2501,-1.2501,-1.2501,-1.2501,-1.2501,-1.2501,-1.2501,-1.2501,-1.2501,-1.2501,-1.2501,-1.2501,-1.2501,0.0,0.0,-0.0535,-0.0522,0.0,0.0,0.0,0.0,0.0,0.0,0.0,0.0,0.0,0.0,0.0,0.0,0.0,0.0,0.0,0.0,0.0,0.0,0.0,0.0,0.0,0.0,0.0,-0.2695,-0.1832,0.0,-0.239,-0.413,-0.5549,-0.6668,-0.795,-0.8891,-0.9484,-1.0055,-1.0331,-1.0426,-1.0622,-1.0717,-1.0717,-1.0717,-1.0717,-1.0717,-1.0717,-1.0717,-1.0717,-1.0717,-1.0717,-1.0717,-1.0717,-1.0717,-1.0717,-1.0717,-1.0717,-1.0717,-1.0717,-1.0717,-1.0744,-1.09,-1.1043,-1.1192,-1.1348,-1.1497,-1.1619,-1.1619,-1.1619,-1.1619,-1.1619,-1.1619,-1.1619,-1.1619,-1.1619,-1.1647,-1.1742,-1.1877,-1.2026,-1.2182,-1.2332,-1.2447,-1.2494,-1.2501,-1.2501,-1.2501,-1.2501,-1.2501,-1.2501,-1.2501,-1.2501,-1.2501,-1.2501,-1.2501,-1.2501,-1.2501,-1.2501,-1.2501,-1.2501,-1.2501,-1.2501,-1.2501,-1.2501,-1.2501,-1.2501,-1.2501,-1.2501,-1.2501,-1.2501,-1.2501,-1.2501,-1.2501,0.0,0.0,0.0,0.0,-0.0412,0.0,-0.1629,0.0,-0.3356,0.0,0.0,0.0,0.0,0.0,0.0,0.0,0.0,0.0,0.0,-0.1528,0.0,0.0,0.0,0.0,0.0,0.0,-0.285,-0.2017,-0.126,0.0,0.0,-0.3155,-0.4671,-0.5774,-0.7113,-0.8094,-0.9056,-0.9494,-1.0019,-1.0364,-1.0518,-1.0585,-1.0717,-1.0717,-1.0717,-1.0717,-1.0717,-1.0717,-1.0717,-1.0717,-1.0717,-1.0717,-1.0717,-1.0717,-1.0717,-1.0717,-1.0717,-1.0717,-1.0717,-1.0758,-1.0826,-1.0975,-1.1124,-1.1274,-1.1423,-1.1538,-1.1619,-1.1619,-1.1619,-1.1619,-1.1619,-1.1619,-1.1619,-1.1619,-1.1619,-1.166,-1.1803,-1.1952,-1.2108,-1.2257,-1.2406,-1.2501,-1.2501,-1.2501,-1.2501,-1.2501,-1.2501,-1.2501,-1.2501,-1.2501,-1.2501,-1.2501,-1.2501,-1.2501,-1.2501,-1.2501,-1.2501,-1.2501,-1.2501,-1.2501,-1.2501,-1.2501,-1.2501,-1.2501,-1.2501,-1.2501,-1.2501,-1.2501,-1.2501,-1.2501,-1.2501,-1.2501]}]]